<?xml version="1.0" encoding="UTF-8" standalone="no" ?>
<gpx xmlns="http://www.topografix.com/GPX/1/1" xmlns:xsi="http://www.w3.org/2001/XMLSchema-instance" xsi:schemaLocation="http://www.topografix.com/GPX/1/1 http://www.topografix.com/GPX/1/1/gpx.xsd" version="1.1" creator="VisuGPX - https://www.visugpx.com">
  <metadata>
    <name>F26420 col de Rousset but de Nève but de l'Aiglette</name>
    <desc><![CDATA[File with points/tracks from Locus Map/4.3.3]]></desc>
  </metadata>
  <trk>
    <name><![CDATA[F26420 col de Rousset buts Nève Aiglette]]></name>
    <extensions>
      <line xmlns="http://www.topografix.com/GPX/gpx_style/0/2">
        <color>0000FF</color>
        <opacity>0.59</opacity>
        <width>6.0</width>
      </line>
    </extensions>
    <trkseg>
      <trkpt lat="44.84082" lon="5.40622">
        <ele>1234.6</ele>
        <time>2021-09-22T06:56:29.000Z</time>
      </trkpt>
      <trkpt lat="44.84082" lon="5.4062">
        <ele>1234.38</ele>
        <time>2021-09-22T06:56:39.000Z</time>
      </trkpt>
      <trkpt lat="44.84081" lon="5.40624">
        <ele>1235.16</ele>
        <time>2021-09-22T06:56:49.000Z</time>
      </trkpt>
      <trkpt lat="44.8408" lon="5.40625">
        <ele>1235.3</ele>
        <time>2021-09-22T06:57:38.000Z</time>
      </trkpt>
      <trkpt lat="44.84079" lon="5.40627">
        <ele>1235.91</ele>
        <time>2021-09-22T06:57:48.000Z</time>
      </trkpt>
      <trkpt lat="44.84077" lon="5.40626">
        <ele>1235.89</ele>
        <time>2021-09-22T06:57:58.000Z</time>
      </trkpt>
      <trkpt lat="44.84077" lon="5.40624">
        <ele>1235.58</ele>
        <time>2021-09-22T06:58:08.000Z</time>
      </trkpt>
      <trkpt lat="44.84075" lon="5.40625">
        <ele>1236.12</ele>
        <time>2021-09-22T06:58:18.000Z</time>
      </trkpt>
      <trkpt lat="44.84074" lon="5.40625">
        <ele>1236.26</ele>
        <time>2021-09-22T06:58:30.000Z</time>
      </trkpt>
      <trkpt lat="44.84067" lon="5.40625">
        <ele>1236.95</ele>
        <time>2021-09-22T06:58:40.000Z</time>
      </trkpt>
      <trkpt lat="44.84058" lon="5.40624">
        <ele>1237.85</ele>
        <time>2021-09-22T06:58:49.233Z</time>
      </trkpt>
      <trkpt lat="44.84049" lon="5.40629">
        <ele>1239.86</ele>
        <time>2021-09-22T06:58:58.354Z</time>
      </trkpt>
      <trkpt lat="44.84042" lon="5.40628">
        <ele>1240.43</ele>
        <time>2021-09-22T06:59:07.553Z</time>
      </trkpt>
      <trkpt lat="44.84035" lon="5.40628">
        <ele>1241.05</ele>
        <time>2021-09-22T06:59:17.173Z</time>
      </trkpt>
      <trkpt lat="44.84028" lon="5.40633">
        <ele>1242.73</ele>
        <time>2021-09-22T06:59:26.313Z</time>
      </trkpt>
      <trkpt lat="44.84023" lon="5.40634">
        <ele>1243.5</ele>
        <time>2021-09-22T06:59:35.873Z</time>
      </trkpt>
      <trkpt lat="44.84023" lon="5.40635">
        <ele>1243.77</ele>
        <time>2021-09-22T06:59:48.000Z</time>
      </trkpt>
      <trkpt lat="44.84019" lon="5.40638">
        <ele>1244.77</ele>
        <time>2021-09-22T06:59:57.158Z</time>
      </trkpt>
      <trkpt lat="44.84011" lon="5.40637">
        <ele>1245.51</ele>
        <time>2021-09-22T07:00:06.895Z</time>
      </trkpt>
      <trkpt lat="44.84006" lon="5.40634">
        <ele>1245.39</ele>
        <time>2021-09-22T07:00:16.319Z</time>
      </trkpt>
      <trkpt lat="44.84005" lon="5.40627">
        <ele>1244.08</ele>
        <time>2021-09-22T07:00:26.329Z</time>
      </trkpt>
      <trkpt lat="44.8399" lon="5.40627">
        <ele>1246.05</ele>
        <time>2021-09-22T07:00:36.503Z</time>
      </trkpt>
      <trkpt lat="44.83978" lon="5.40629">
        <ele>1247.9</ele>
        <time>2021-09-22T07:00:45.891Z</time>
      </trkpt>
      <trkpt lat="44.83968" lon="5.40628">
        <ele>1248.96</ele>
        <time>2021-09-22T07:00:55.334Z</time>
      </trkpt>
      <trkpt lat="44.83959" lon="5.40622">
        <ele>1249.26</ele>
        <time>2021-09-22T07:01:05.533Z</time>
      </trkpt>
      <trkpt lat="44.83951" lon="5.40618">
        <ele>1250.13</ele>
        <time>2021-09-22T07:01:15.054Z</time>
      </trkpt>
      <trkpt lat="44.83941" lon="5.40616">
        <ele>1251.34</ele>
        <time>2021-09-22T07:01:24.060Z</time>
      </trkpt>
      <trkpt lat="44.83933" lon="5.40613">
        <ele>1252.3</ele>
        <time>2021-09-22T07:01:33.313Z</time>
      </trkpt>
      <trkpt lat="44.83924" lon="5.40608">
        <ele>1253.37</ele>
        <time>2021-09-22T07:01:42.373Z</time>
      </trkpt>
      <trkpt lat="44.83917" lon="5.40598">
        <ele>1254.2</ele>
        <time>2021-09-22T07:01:51.457Z</time>
      </trkpt>
      <trkpt lat="44.83907" lon="5.40604">
        <ele>1255.62</ele>
        <time>2021-09-22T07:02:00.976Z</time>
      </trkpt>
      <trkpt lat="44.839" lon="5.40611">
        <ele>1256.73</ele>
        <time>2021-09-22T07:02:10.253Z</time>
      </trkpt>
      <trkpt lat="44.83893" lon="5.40619">
        <ele>1257.93</ele>
        <time>2021-09-22T07:02:19.472Z</time>
      </trkpt>
      <trkpt lat="44.83886" lon="5.40622">
        <ele>1258.91</ele>
        <time>2021-09-22T07:02:28.610Z</time>
      </trkpt>
      <trkpt lat="44.83875" lon="5.40628">
        <ele>1260.53</ele>
        <time>2021-09-22T07:02:38.298Z</time>
      </trkpt>
      <trkpt lat="44.83866" lon="5.4063">
        <ele>1261.66</ele>
        <time>2021-09-22T07:02:47.497Z</time>
      </trkpt>
      <trkpt lat="44.83857" lon="5.40632">
        <ele>1262.75</ele>
        <time>2021-09-22T07:02:57.174Z</time>
      </trkpt>
      <trkpt lat="44.83849" lon="5.40635">
        <ele>1263.87</ele>
        <time>2021-09-22T07:03:06.521Z</time>
      </trkpt>
      <trkpt lat="44.83839" lon="5.40634">
        <ele>1264.83</ele>
        <time>2021-09-22T07:03:15.588Z</time>
      </trkpt>
      <trkpt lat="44.83828" lon="5.40646">
        <ele>1267.2</ele>
        <time>2021-09-22T07:03:25.072Z</time>
      </trkpt>
      <trkpt lat="44.83821" lon="5.40656">
        <ele>1269.25</ele>
        <time>2021-09-22T07:03:34.095Z</time>
      </trkpt>
      <trkpt lat="44.83808" lon="5.40652">
        <ele>1270.17</ele>
        <time>2021-09-22T07:03:43.215Z</time>
      </trkpt>
      <trkpt lat="44.83797" lon="5.40647">
        <ele>1270.86</ele>
        <time>2021-09-22T07:03:52.337Z</time>
      </trkpt>
      <trkpt lat="44.83788" lon="5.40648">
        <ele>1272.02</ele>
        <time>2021-09-22T07:04:02.640Z</time>
      </trkpt>
      <trkpt lat="44.83782" lon="5.40644">
        <ele>1272.33</ele>
        <time>2021-09-22T07:04:12.257Z</time>
      </trkpt>
      <trkpt lat="44.83775" lon="5.40642">
        <ele>1272.94</ele>
        <time>2021-09-22T07:04:22.000Z</time>
      </trkpt>
      <trkpt lat="44.83766" lon="5.40646">
        <ele>1274.49</ele>
        <time>2021-09-22T07:04:31.260Z</time>
      </trkpt>
      <trkpt lat="44.8376" lon="5.4065">
        <ele>1275.96</ele>
        <time>2021-09-22T07:04:40.692Z</time>
      </trkpt>
      <trkpt lat="44.83751" lon="5.40653">
        <ele>1277.53</ele>
        <time>2021-09-22T07:04:50.018Z</time>
      </trkpt>
      <trkpt lat="44.83742" lon="5.4066">
        <ele>1279.75</ele>
        <time>2021-09-22T07:04:59.752Z</time>
      </trkpt>
      <trkpt lat="44.83736" lon="5.40663">
        <ele>1281.11</ele>
        <time>2021-09-22T07:05:08.952Z</time>
      </trkpt>
      <trkpt lat="44.83729" lon="5.40662">
        <ele>1281.94</ele>
        <time>2021-09-22T07:05:18.153Z</time>
      </trkpt>
      <trkpt lat="44.83722" lon="5.40664">
        <ele>1283.17</ele>
        <time>2021-09-22T07:05:27.381Z</time>
      </trkpt>
      <trkpt lat="44.83714" lon="5.40662">
        <ele>1283.94</ele>
        <time>2021-09-22T07:05:37.000Z</time>
      </trkpt>
      <trkpt lat="44.83707" lon="5.4066">
        <ele>1284.78</ele>
        <time>2021-09-22T07:05:46.311Z</time>
      </trkpt>
      <trkpt lat="44.83701" lon="5.40661">
        <ele>1285.6</ele>
        <time>2021-09-22T07:05:55.539Z</time>
      </trkpt>
      <trkpt lat="44.83694" lon="5.40664">
        <ele>1286.93</ele>
        <time>2021-09-22T07:06:05.431Z</time>
      </trkpt>
      <trkpt lat="44.83694" lon="5.4066">
        <ele>1286.52</ele>
        <time>2021-09-22T07:06:15.139Z</time>
      </trkpt>
      <trkpt lat="44.83686" lon="5.40665">
        <ele>1288.2</ele>
        <time>2021-09-22T07:06:24.936Z</time>
      </trkpt>
      <trkpt lat="44.83678" lon="5.40666">
        <ele>1289.39</ele>
        <time>2021-09-22T07:06:33.975Z</time>
      </trkpt>
      <trkpt lat="44.8367" lon="5.40665">
        <ele>1290.33</ele>
        <time>2021-09-22T07:06:43.345Z</time>
      </trkpt>
      <trkpt lat="44.83663" lon="5.40672">
        <ele>1292.16</ele>
        <time>2021-09-22T07:06:52.579Z</time>
      </trkpt>
      <trkpt lat="44.83657" lon="5.40679">
        <ele>1294.16</ele>
        <time>2021-09-22T07:07:01.815Z</time>
      </trkpt>
      <trkpt lat="44.83651" lon="5.40682">
        <ele>1295.46</ele>
        <time>2021-09-22T07:07:11.145Z</time>
      </trkpt>
      <trkpt lat="44.83644" lon="5.40683">
        <ele>1296.23</ele>
        <time>2021-09-22T07:07:20.321Z</time>
      </trkpt>
      <trkpt lat="44.83638" lon="5.40686">
        <ele>1297.45</ele>
        <time>2021-09-22T07:07:29.555Z</time>
      </trkpt>
      <trkpt lat="44.83632" lon="5.40689">
        <ele>1298.79</ele>
        <time>2021-09-22T07:07:38.924Z</time>
      </trkpt>
      <trkpt lat="44.83626" lon="5.40691">
        <ele>1299.94</ele>
        <time>2021-09-22T07:07:48.196Z</time>
      </trkpt>
      <trkpt lat="44.83623" lon="5.40688">
        <ele>1299.32</ele>
        <time>2021-09-22T07:07:58.000Z</time>
      </trkpt>
      <trkpt lat="44.83621" lon="5.40691">
        <ele>1300.36</ele>
        <time>2021-09-22T07:08:07.675Z</time>
      </trkpt>
      <trkpt lat="44.83616" lon="5.407">
        <ele>1303.5</ele>
        <time>2021-09-22T07:08:17.000Z</time>
      </trkpt>
      <trkpt lat="44.83609" lon="5.40703">
        <ele>1304.97</ele>
        <time>2021-09-22T07:08:26.785Z</time>
      </trkpt>
      <trkpt lat="44.83597" lon="5.40702">
        <ele>1306.1</ele>
        <time>2021-09-22T07:08:36.530Z</time>
      </trkpt>
      <trkpt lat="44.83591" lon="5.40702">
        <ele>1306.89</ele>
        <time>2021-09-22T07:08:46.000Z</time>
      </trkpt>
      <trkpt lat="44.83591" lon="5.40704">
        <ele>1307.58</ele>
        <time>2021-09-22T07:08:58.137Z</time>
      </trkpt>
      <trkpt lat="44.83583" lon="5.40713">
        <ele>1311.94</ele>
        <time>2021-09-22T07:09:07.742Z</time>
      </trkpt>
      <trkpt lat="44.8357" lon="5.40723">
        <ele>1317.22</ele>
        <time>2021-09-22T07:09:17.755Z</time>
      </trkpt>
      <trkpt lat="44.8356" lon="5.40722">
        <ele>1318.94</ele>
        <time>2021-09-22T07:09:27.740Z</time>
      </trkpt>
      <trkpt lat="44.83552" lon="5.40723">
        <ele>1320.71</ele>
        <time>2021-09-22T07:09:37.732Z</time>
      </trkpt>
      <trkpt lat="44.83546" lon="5.4072">
        <ele>1321.17</ele>
        <time>2021-09-22T07:09:46.795Z</time>
      </trkpt>
      <trkpt lat="44.83541" lon="5.40722">
        <ele>1322.67</ele>
        <time>2021-09-22T07:09:56.555Z</time>
      </trkpt>
      <trkpt lat="44.83533" lon="5.40724">
        <ele>1325.01</ele>
        <time>2021-09-22T07:10:06.000Z</time>
      </trkpt>
      <trkpt lat="44.83526" lon="5.4072">
        <ele>1325.44</ele>
        <time>2021-09-22T07:10:15.541Z</time>
      </trkpt>
      <trkpt lat="44.83524" lon="5.40717">
        <ele>1325.45</ele>
        <time>2021-09-22T07:10:24.555Z</time>
      </trkpt>
      <trkpt lat="44.83518" lon="5.40722">
        <ele>1327.87</ele>
        <time>2021-09-22T07:10:34.542Z</time>
      </trkpt>
      <trkpt lat="44.8351" lon="5.40721">
        <ele>1329.28</ele>
        <time>2021-09-22T07:10:43.771Z</time>
      </trkpt>
      <trkpt lat="44.83502" lon="5.40721">
        <ele>1330.88</ele>
        <time>2021-09-22T07:10:53.757Z</time>
      </trkpt>
      <trkpt lat="44.83497" lon="5.40717">
        <ele>1331.17</ele>
        <time>2021-09-22T07:11:03.157Z</time>
      </trkpt>
      <trkpt lat="44.8349" lon="5.40725">
        <ele>1333.95</ele>
        <time>2021-09-22T07:11:12.553Z</time>
      </trkpt>
      <trkpt lat="44.83484" lon="5.40724">
        <ele>1334.8</ele>
        <time>2021-09-22T07:11:21.736Z</time>
      </trkpt>
      <trkpt lat="44.83478" lon="5.40719">
        <ele>1335.45</ele>
        <time>2021-09-22T07:11:30.754Z</time>
      </trkpt>
      <trkpt lat="44.8347" lon="5.40721">
        <ele>1337.18</ele>
        <time>2021-09-22T07:11:39.816Z</time>
      </trkpt>
      <trkpt lat="44.83463" lon="5.40725">
        <ele>1338.85</ele>
        <time>2021-09-22T07:11:49.510Z</time>
      </trkpt>
      <trkpt lat="44.83457" lon="5.40726">
        <ele>1340.12</ele>
        <time>2021-09-22T07:11:58.756Z</time>
      </trkpt>
      <trkpt lat="44.83449" lon="5.40725">
        <ele>1341.46</ele>
        <time>2021-09-22T07:12:08.763Z</time>
      </trkpt>
      <trkpt lat="44.83441" lon="5.40726">
        <ele>1342.86</ele>
        <time>2021-09-22T07:12:17.775Z</time>
      </trkpt>
      <trkpt lat="44.83432" lon="5.40728">
        <ele>1344.49</ele>
        <time>2021-09-22T07:12:27.118Z</time>
      </trkpt>
      <trkpt lat="44.83426" lon="5.40725">
        <ele>1345.31</ele>
        <time>2021-09-22T07:12:37.471Z</time>
      </trkpt>
      <trkpt lat="44.83424" lon="5.40715">
        <ele>1345.62</ele>
        <time>2021-09-22T07:12:46.898Z</time>
      </trkpt>
      <trkpt lat="44.83426" lon="5.40707">
        <ele>1345.36</ele>
        <time>2021-09-22T07:12:56.191Z</time>
      </trkpt>
      <trkpt lat="44.83432" lon="5.40705">
        <ele>1344.22</ele>
        <time>2021-09-22T07:13:05.477Z</time>
      </trkpt>
      <trkpt lat="44.83439" lon="5.40699">
        <ele>1343</ele>
        <time>2021-09-22T07:13:15.747Z</time>
      </trkpt>
      <trkpt lat="44.83447" lon="5.40687">
        <ele>1341.33</ele>
        <time>2021-09-22T07:13:25.745Z</time>
      </trkpt>
      <trkpt lat="44.83452" lon="5.40677">
        <ele>1340.52</ele>
        <time>2021-09-22T07:13:35.775Z</time>
      </trkpt>
      <trkpt lat="44.83456" lon="5.40673">
        <ele>1339.56</ele>
        <time>2021-09-22T07:13:45.312Z</time>
      </trkpt>
      <trkpt lat="44.83464" lon="5.40668">
        <ele>1337.37</ele>
        <time>2021-09-22T07:13:54.763Z</time>
      </trkpt>
      <trkpt lat="44.83466" lon="5.40656">
        <ele>1337.57</ele>
        <time>2021-09-22T07:14:03.766Z</time>
      </trkpt>
      <trkpt lat="44.8347" lon="5.40641">
        <ele>1338.41</ele>
        <time>2021-09-22T07:14:13.212Z</time>
      </trkpt>
      <trkpt lat="44.83474" lon="5.40629">
        <ele>1339.28</ele>
        <time>2021-09-22T07:14:22.753Z</time>
      </trkpt>
      <trkpt lat="44.83483" lon="5.40622">
        <ele>1338.38</ele>
        <time>2021-09-22T07:14:32.744Z</time>
      </trkpt>
      <trkpt lat="44.83491" lon="5.40618">
        <ele>1337.28</ele>
        <time>2021-09-22T07:14:41.747Z</time>
      </trkpt>
      <trkpt lat="44.835" lon="5.40615">
        <ele>1335.94</ele>
        <time>2021-09-22T07:14:50.776Z</time>
      </trkpt>
      <trkpt lat="44.83502" lon="5.40618">
        <ele>1334.71</ele>
        <time>2021-09-22T07:15:01.355Z</time>
      </trkpt>
      <trkpt lat="44.83507" lon="5.40608">
        <ele>1335.84</ele>
        <time>2021-09-22T07:15:10.740Z</time>
      </trkpt>
      <trkpt lat="44.83517" lon="5.40601">
        <ele>1334.95</ele>
        <time>2021-09-22T07:15:20.746Z</time>
      </trkpt>
      <trkpt lat="44.83525" lon="5.40594">
        <ele>1334.37</ele>
        <time>2021-09-22T07:15:29.768Z</time>
      </trkpt>
      <trkpt lat="44.83523" lon="5.40586">
        <ele>1336.95</ele>
        <time>2021-09-22T07:15:39.731Z</time>
      </trkpt>
      <trkpt lat="44.83523" lon="5.40589">
        <ele>1336.34</ele>
        <time>2021-09-22T07:15:48.735Z</time>
      </trkpt>
      <trkpt lat="44.83526" lon="5.40579">
        <ele>1337.68</ele>
        <time>2021-09-22T07:15:57.749Z</time>
      </trkpt>
      <trkpt lat="44.83534" lon="5.40564">
        <ele>1338.6</ele>
        <time>2021-09-22T07:16:07.749Z</time>
      </trkpt>
      <trkpt lat="44.83539" lon="5.40553">
        <ele>1339.28</ele>
        <time>2021-09-22T07:16:17.737Z</time>
      </trkpt>
      <trkpt lat="44.83545" lon="5.40541">
        <ele>1340.32</ele>
        <time>2021-09-22T07:16:26.744Z</time>
      </trkpt>
      <trkpt lat="44.83552" lon="5.40533">
        <ele>1340.64</ele>
        <time>2021-09-22T07:16:35.753Z</time>
      </trkpt>
      <trkpt lat="44.83563" lon="5.40525">
        <ele>1340.09</ele>
        <time>2021-09-22T07:16:45.744Z</time>
      </trkpt>
      <trkpt lat="44.83571" lon="5.40518">
        <ele>1340.1</ele>
        <time>2021-09-22T07:16:54.759Z</time>
      </trkpt>
      <trkpt lat="44.83578" lon="5.40507">
        <ele>1341.24</ele>
        <time>2021-09-22T07:17:04.752Z</time>
      </trkpt>
      <trkpt lat="44.83583" lon="5.40506">
        <ele>1340.45</ele>
        <time>2021-09-22T07:17:13.790Z</time>
      </trkpt>
      <trkpt lat="44.83588" lon="5.40504">
        <ele>1339.71</ele>
        <time>2021-09-22T07:17:23.000Z</time>
      </trkpt>
      <trkpt lat="44.83592" lon="5.40498">
        <ele>1340.47</ele>
        <time>2021-09-22T07:17:32.721Z</time>
      </trkpt>
      <trkpt lat="44.836" lon="5.40488">
        <ele>1341.21</ele>
        <time>2021-09-22T07:17:41.757Z</time>
      </trkpt>
      <trkpt lat="44.83612" lon="5.40481">
        <ele>1340.13</ele>
        <time>2021-09-22T07:17:50.764Z</time>
      </trkpt>
      <trkpt lat="44.83622" lon="5.4047">
        <ele>1340.86</ele>
        <time>2021-09-22T07:18:00.538Z</time>
      </trkpt>
      <trkpt lat="44.83631" lon="5.40462">
        <ele>1341.64</ele>
        <time>2021-09-22T07:18:09.753Z</time>
      </trkpt>
      <trkpt lat="44.83638" lon="5.4045">
        <ele>1344.41</ele>
        <time>2021-09-22T07:18:19.735Z</time>
      </trkpt>
      <trkpt lat="44.83644" lon="5.40445">
        <ele>1344.72</ele>
        <time>2021-09-22T07:18:29.768Z</time>
      </trkpt>
      <trkpt lat="44.83653" lon="5.40438">
        <ele>1344.95</ele>
        <time>2021-09-22T07:18:39.753Z</time>
      </trkpt>
      <trkpt lat="44.83659" lon="5.40431">
        <ele>1346.43</ele>
        <time>2021-09-22T07:18:48.761Z</time>
      </trkpt>
      <trkpt lat="44.83667" lon="5.40423">
        <ele>1347.66</ele>
        <time>2021-09-22T07:18:58.146Z</time>
      </trkpt>
      <trkpt lat="44.83673" lon="5.40412">
        <ele>1349.57</ele>
        <time>2021-09-22T07:19:07.749Z</time>
      </trkpt>
      <trkpt lat="44.8368" lon="5.40403">
        <ele>1350.31</ele>
        <time>2021-09-22T07:19:16.755Z</time>
      </trkpt>
      <trkpt lat="44.83688" lon="5.40396">
        <ele>1350.06</ele>
        <time>2021-09-22T07:19:25.763Z</time>
      </trkpt>
      <trkpt lat="44.83697" lon="5.40388">
        <ele>1348.36</ele>
        <time>2021-09-22T07:19:34.776Z</time>
      </trkpt>
      <trkpt lat="44.83705" lon="5.40377">
        <ele>1348.12</ele>
        <time>2021-09-22T07:19:44.756Z</time>
      </trkpt>
      <trkpt lat="44.83712" lon="5.4036">
        <ele>1349.12</ele>
        <time>2021-09-22T07:19:54.444Z</time>
      </trkpt>
      <trkpt lat="44.83717" lon="5.40356">
        <ele>1347.72</ele>
        <time>2021-09-22T07:20:03.745Z</time>
      </trkpt>
      <trkpt lat="44.83722" lon="5.40344">
        <ele>1347.77</ele>
        <time>2021-09-22T07:20:13.757Z</time>
      </trkpt>
      <trkpt lat="44.83726" lon="5.40333">
        <ele>1348.33</ele>
        <time>2021-09-22T07:20:22.760Z</time>
      </trkpt>
      <trkpt lat="44.83721" lon="5.40314">
        <ele>1355.46</ele>
        <time>2021-09-22T07:20:32.762Z</time>
      </trkpt>
      <trkpt lat="44.83723" lon="5.40299">
        <ele>1357.86</ele>
        <time>2021-09-22T07:20:42.753Z</time>
      </trkpt>
      <trkpt lat="44.83732" lon="5.40287">
        <ele>1355.47</ele>
        <time>2021-09-22T07:20:52.754Z</time>
      </trkpt>
      <trkpt lat="44.83735" lon="5.40274">
        <ele>1356.8</ele>
        <time>2021-09-22T07:21:01.771Z</time>
      </trkpt>
      <trkpt lat="44.83745" lon="5.40257">
        <ele>1355.32</ele>
        <time>2021-09-22T07:21:11.767Z</time>
      </trkpt>
      <trkpt lat="44.83744" lon="5.40242">
        <ele>1357.6</ele>
        <time>2021-09-22T07:21:21.764Z</time>
      </trkpt>
      <trkpt lat="44.83747" lon="5.40231">
        <ele>1358.81</ele>
        <time>2021-09-22T07:21:30.767Z</time>
      </trkpt>
      <trkpt lat="44.83749" lon="5.4022">
        <ele>1360.3</ele>
        <time>2021-09-22T07:21:39.771Z</time>
      </trkpt>
      <trkpt lat="44.83752" lon="5.40208">
        <ele>1361.99</ele>
        <time>2021-09-22T07:21:49.751Z</time>
      </trkpt>
      <trkpt lat="44.83751" lon="5.40195">
        <ele>1363.65</ele>
        <time>2021-09-22T07:21:59.761Z</time>
      </trkpt>
      <trkpt lat="44.83748" lon="5.40182">
        <ele>1364.32</ele>
        <time>2021-09-22T07:22:09.750Z</time>
      </trkpt>
      <trkpt lat="44.83749" lon="5.40172">
        <ele>1364.27</ele>
        <time>2021-09-22T07:22:19.000Z</time>
      </trkpt>
      <trkpt lat="44.83749" lon="5.40174">
        <ele>1364.27</ele>
        <time>2021-09-22T07:22:29.746Z</time>
      </trkpt>
      <trkpt lat="44.83749" lon="5.40175">
        <ele>1364.31</ele>
        <time>2021-09-22T07:22:39.000Z</time>
      </trkpt>
      <trkpt lat="44.83749" lon="5.40177">
        <ele>1364.37</ele>
        <time>2021-09-22T07:22:55.000Z</time>
      </trkpt>
      <trkpt lat="44.83749" lon="5.40178">
        <ele>1364.35</ele>
        <time>2021-09-22T07:23:10.000Z</time>
      </trkpt>
      <trkpt lat="44.83748" lon="5.40176">
        <ele>1364.31</ele>
        <time>2021-09-22T07:23:52.000Z</time>
      </trkpt>
      <trkpt lat="44.83744" lon="5.40176">
        <ele>1363.93</ele>
        <time>2021-09-22T07:24:01.759Z</time>
      </trkpt>
      <trkpt lat="44.8375" lon="5.40182">
        <ele>1364.44</ele>
        <time>2021-09-22T07:24:11.000Z</time>
      </trkpt>
      <trkpt lat="44.83749" lon="5.40182">
        <ele>1364.36</ele>
        <time>2021-09-22T07:26:13.000Z</time>
      </trkpt>
      <trkpt lat="44.83745" lon="5.40174">
        <ele>1363.82</ele>
        <time>2021-09-22T07:26:22.755Z</time>
      </trkpt>
      <trkpt lat="44.83743" lon="5.40172">
        <ele>1363.62</ele>
        <time>2021-09-22T07:26:32.000Z</time>
      </trkpt>
      <trkpt lat="44.83743" lon="5.4017">
        <ele>1363.41</ele>
        <time>2021-09-22T07:26:41.752Z</time>
      </trkpt>
      <trkpt lat="44.83742" lon="5.40169">
        <ele>1363.22</ele>
        <time>2021-09-22T07:26:51.000Z</time>
      </trkpt>
      <trkpt lat="44.83741" lon="5.40168">
        <ele>1363.05</ele>
        <time>2021-09-22T07:27:19.000Z</time>
      </trkpt>
      <trkpt lat="44.83742" lon="5.40169">
        <ele>1363.24</ele>
        <time>2021-09-22T07:27:28.499Z</time>
      </trkpt>
      <trkpt lat="44.83742" lon="5.4017">
        <ele>1363.38</ele>
        <time>2021-09-22T07:28:03.000Z</time>
      </trkpt>
      <trkpt lat="44.83742" lon="5.40172">
        <ele>1363.48</ele>
        <time>2021-09-22T07:28:13.000Z</time>
      </trkpt>
      <trkpt lat="44.83743" lon="5.40172">
        <ele>1363.6</ele>
        <time>2021-09-22T07:28:39.000Z</time>
      </trkpt>
      <trkpt lat="44.83744" lon="5.40173">
        <ele>1363.72</ele>
        <time>2021-09-22T07:28:49.000Z</time>
      </trkpt>
      <trkpt lat="44.83744" lon="5.40177">
        <ele>1363.89</ele>
        <time>2021-09-22T07:28:58.749Z</time>
      </trkpt>
      <trkpt lat="44.83755" lon="5.4018">
        <ele>1365.14</ele>
        <time>2021-09-22T07:29:07.751Z</time>
      </trkpt>
      <trkpt lat="44.83763" lon="5.4017">
        <ele>1366.52</ele>
        <time>2021-09-22T07:29:16.759Z</time>
      </trkpt>
      <trkpt lat="44.8377" lon="5.40165">
        <ele>1367.83</ele>
        <time>2021-09-22T07:29:25.784Z</time>
      </trkpt>
      <trkpt lat="44.83779" lon="5.40164">
        <ele>1369.88</ele>
        <time>2021-09-22T07:29:35.754Z</time>
      </trkpt>
      <trkpt lat="44.83787" lon="5.40164">
        <ele>1371.97</ele>
        <time>2021-09-22T07:29:45.499Z</time>
      </trkpt>
      <trkpt lat="44.83796" lon="5.40159">
        <ele>1373.98</ele>
        <time>2021-09-22T07:29:54.748Z</time>
      </trkpt>
      <trkpt lat="44.838" lon="5.40159">
        <ele>1375.31</ele>
        <time>2021-09-22T07:30:03.761Z</time>
      </trkpt>
      <trkpt lat="44.83806" lon="5.40158">
        <ele>1376.92</ele>
        <time>2021-09-22T07:30:13.984Z</time>
      </trkpt>
      <trkpt lat="44.83811" lon="5.40149">
        <ele>1377.53</ele>
        <time>2021-09-22T07:30:23.753Z</time>
      </trkpt>
      <trkpt lat="44.83818" lon="5.40146">
        <ele>1379</ele>
        <time>2021-09-22T07:30:32.759Z</time>
      </trkpt>
      <trkpt lat="44.83823" lon="5.40137">
        <ele>1379.14</ele>
        <time>2021-09-22T07:30:41.789Z</time>
      </trkpt>
      <trkpt lat="44.83827" lon="5.40129">
        <ele>1379.08</ele>
        <time>2021-09-22T07:30:51.744Z</time>
      </trkpt>
      <trkpt lat="44.83834" lon="5.40123">
        <ele>1380.2</ele>
        <time>2021-09-22T07:31:00.746Z</time>
      </trkpt>
      <trkpt lat="44.83838" lon="5.4012">
        <ele>1381.38</ele>
        <time>2021-09-22T07:31:09.753Z</time>
      </trkpt>
      <trkpt lat="44.83843" lon="5.40119">
        <ele>1383.31</ele>
        <time>2021-09-22T07:31:18.758Z</time>
      </trkpt>
      <trkpt lat="44.83849" lon="5.40112">
        <ele>1384.58</ele>
        <time>2021-09-22T07:31:27.761Z</time>
      </trkpt>
      <trkpt lat="44.83856" lon="5.40112">
        <ele>1387.99</ele>
        <time>2021-09-22T07:31:37.765Z</time>
      </trkpt>
      <trkpt lat="44.83865" lon="5.40113">
        <ele>1392.3</ele>
        <time>2021-09-22T07:31:47.296Z</time>
      </trkpt>
      <trkpt lat="44.83871" lon="5.40109">
        <ele>1394.5</ele>
        <time>2021-09-22T07:31:56.768Z</time>
      </trkpt>
      <trkpt lat="44.83875" lon="5.40099">
        <ele>1395.24</ele>
        <time>2021-09-22T07:32:06.757Z</time>
      </trkpt>
      <trkpt lat="44.83878" lon="5.40092">
        <ele>1396.31</ele>
        <time>2021-09-22T07:32:15.760Z</time>
      </trkpt>
      <trkpt lat="44.83883" lon="5.40084">
        <ele>1397.92</ele>
        <time>2021-09-22T07:32:25.742Z</time>
      </trkpt>
      <trkpt lat="44.83888" lon="5.40073">
        <ele>1399.69</ele>
        <time>2021-09-22T07:32:34.746Z</time>
      </trkpt>
      <trkpt lat="44.83893" lon="5.40066">
        <ele>1401.27</ele>
        <time>2021-09-22T07:32:43.751Z</time>
      </trkpt>
      <trkpt lat="44.83896" lon="5.40063">
        <ele>1402.57</ele>
        <time>2021-09-22T07:32:53.759Z</time>
      </trkpt>
      <trkpt lat="44.83899" lon="5.40057">
        <ele>1403.23</ele>
        <time>2021-09-22T07:33:02.761Z</time>
      </trkpt>
      <trkpt lat="44.83904" lon="5.40051">
        <ele>1404.83</ele>
        <time>2021-09-22T07:33:12.741Z</time>
      </trkpt>
      <trkpt lat="44.83908" lon="5.40049">
        <ele>1406.04</ele>
        <time>2021-09-22T07:33:21.751Z</time>
      </trkpt>
      <trkpt lat="44.83913" lon="5.40048">
        <ele>1408.36</ele>
        <time>2021-09-22T07:33:30.758Z</time>
      </trkpt>
      <trkpt lat="44.83921" lon="5.40045">
        <ele>1411.63</ele>
        <time>2021-09-22T07:33:39.764Z</time>
      </trkpt>
      <trkpt lat="44.83925" lon="5.40039">
        <ele>1412.29</ele>
        <time>2021-09-22T07:33:49.758Z</time>
      </trkpt>
      <trkpt lat="44.83928" lon="5.4003">
        <ele>1411.27</ele>
        <time>2021-09-22T07:33:59.759Z</time>
      </trkpt>
      <trkpt lat="44.83931" lon="5.40022">
        <ele>1410.76</ele>
        <time>2021-09-22T07:34:09.785Z</time>
      </trkpt>
      <trkpt lat="44.83934" lon="5.40018">
        <ele>1411.14</ele>
        <time>2021-09-22T07:34:19.756Z</time>
      </trkpt>
      <trkpt lat="44.83944" lon="5.40021">
        <ele>1416.18</ele>
        <time>2021-09-22T07:34:28.761Z</time>
      </trkpt>
      <trkpt lat="44.83951" lon="5.40018">
        <ele>1418.52</ele>
        <time>2021-09-22T07:34:37.765Z</time>
      </trkpt>
      <trkpt lat="44.83956" lon="5.40014">
        <ele>1419.59</ele>
        <time>2021-09-22T07:34:47.757Z</time>
      </trkpt>
      <trkpt lat="44.83961" lon="5.40011">
        <ele>1420.77</ele>
        <time>2021-09-22T07:34:57.746Z</time>
      </trkpt>
      <trkpt lat="44.83962" lon="5.40009">
        <ele>1420.79</ele>
        <time>2021-09-22T07:35:06.755Z</time>
      </trkpt>
      <trkpt lat="44.8397" lon="5.40006">
        <ele>1423.17</ele>
        <time>2021-09-22T07:35:16.754Z</time>
      </trkpt>
      <trkpt lat="44.83979" lon="5.40001">
        <ele>1425.88</ele>
        <time>2021-09-22T07:35:25.760Z</time>
      </trkpt>
      <trkpt lat="44.83986" lon="5.39997">
        <ele>1427.87</ele>
        <time>2021-09-22T07:35:34.761Z</time>
      </trkpt>
      <trkpt lat="44.83994" lon="5.39994">
        <ele>1430.59</ele>
        <time>2021-09-22T07:35:43.838Z</time>
      </trkpt>
      <trkpt lat="44.84001" lon="5.39996">
        <ele>1433.16</ele>
        <time>2021-09-22T07:35:53.783Z</time>
      </trkpt>
      <trkpt lat="44.84006" lon="5.39993">
        <ele>1434.79</ele>
        <time>2021-09-22T07:36:03.740Z</time>
      </trkpt>
      <trkpt lat="44.8401" lon="5.39986">
        <ele>1436.52</ele>
        <time>2021-09-22T07:36:12.756Z</time>
      </trkpt>
      <trkpt lat="44.84012" lon="5.39979">
        <ele>1438.08</ele>
        <time>2021-09-22T07:36:22.753Z</time>
      </trkpt>
      <trkpt lat="44.84015" lon="5.39977">
        <ele>1439.21</ele>
        <time>2021-09-22T07:36:33.000Z</time>
      </trkpt>
      <trkpt lat="44.84015" lon="5.39976">
        <ele>1439.7</ele>
        <time>2021-09-22T07:37:40.000Z</time>
      </trkpt>
      <trkpt lat="44.84018" lon="5.39975">
        <ele>1440.52</ele>
        <time>2021-09-22T07:37:49.741Z</time>
      </trkpt>
      <trkpt lat="44.84019" lon="5.39975">
        <ele>1440.93</ele>
        <time>2021-09-22T07:38:23.000Z</time>
      </trkpt>
      <trkpt lat="44.84021" lon="5.39972">
        <ele>1442.11</ele>
        <time>2021-09-22T07:38:33.000Z</time>
      </trkpt>
      <trkpt lat="44.8402" lon="5.39971">
        <ele>1442.16</ele>
        <time>2021-09-22T07:38:43.000Z</time>
      </trkpt>
      <trkpt lat="44.84024" lon="5.39968">
        <ele>1443.74</ele>
        <time>2021-09-22T07:38:52.291Z</time>
      </trkpt>
      <trkpt lat="44.84028" lon="5.39961">
        <ele>1446.34</ele>
        <time>2021-09-22T07:39:01.796Z</time>
      </trkpt>
      <trkpt lat="44.84029" lon="5.3996">
        <ele>1446.64</ele>
        <time>2021-09-22T07:39:31.000Z</time>
      </trkpt>
      <trkpt lat="44.84033" lon="5.39957">
        <ele>1448.33</ele>
        <time>2021-09-22T07:39:40.742Z</time>
      </trkpt>
      <trkpt lat="44.84034" lon="5.39955">
        <ele>1448.78</ele>
        <time>2021-09-22T07:39:50.000Z</time>
      </trkpt>
      <trkpt lat="44.84035" lon="5.39954">
        <ele>1449.12</ele>
        <time>2021-09-22T07:40:03.000Z</time>
      </trkpt>
      <trkpt lat="44.84035" lon="5.39953">
        <ele>1449.43</ele>
        <time>2021-09-22T07:40:18.000Z</time>
      </trkpt>
      <trkpt lat="44.84039" lon="5.39948">
        <ele>1450.86</ele>
        <time>2021-09-22T07:40:27.758Z</time>
      </trkpt>
      <trkpt lat="44.84041" lon="5.39943">
        <ele>1451.92</ele>
        <time>2021-09-22T07:40:37.000Z</time>
      </trkpt>
      <trkpt lat="44.84042" lon="5.39944">
        <ele>1452.03</ele>
        <time>2021-09-22T07:41:16.000Z</time>
      </trkpt>
      <trkpt lat="44.84045" lon="5.39937">
        <ele>1453.25</ele>
        <time>2021-09-22T07:41:25.745Z</time>
      </trkpt>
      <trkpt lat="44.84049" lon="5.39928">
        <ele>1454.33</ele>
        <time>2021-09-22T07:41:34.762Z</time>
      </trkpt>
      <trkpt lat="44.84052" lon="5.39919">
        <ele>1454.74</ele>
        <time>2021-09-22T07:41:44.788Z</time>
      </trkpt>
      <trkpt lat="44.84051" lon="5.39912">
        <ele>1454.39</ele>
        <time>2021-09-22T07:41:54.767Z</time>
      </trkpt>
      <trkpt lat="44.84051" lon="5.39914">
        <ele>1454.42</ele>
        <time>2021-09-22T07:42:04.000Z</time>
      </trkpt>
      <trkpt lat="44.84052" lon="5.39913">
        <ele>1454.53</ele>
        <time>2021-09-22T07:42:19.000Z</time>
      </trkpt>
      <trkpt lat="44.84053" lon="5.39914">
        <ele>1454.76</ele>
        <time>2021-09-22T07:42:30.000Z</time>
      </trkpt>
      <trkpt lat="44.84054" lon="5.39913">
        <ele>1454.87</ele>
        <time>2021-09-22T07:42:40.000Z</time>
      </trkpt>
      <trkpt lat="44.84053" lon="5.39911">
        <ele>1454.76</ele>
        <time>2021-09-22T07:42:57.000Z</time>
      </trkpt>
      <trkpt lat="44.84055" lon="5.39911">
        <ele>1455.04</ele>
        <time>2021-09-22T07:44:13.747Z</time>
      </trkpt>
      <trkpt lat="44.84064" lon="5.39909">
        <ele>1456.79</ele>
        <time>2021-09-22T07:44:22.759Z</time>
      </trkpt>
      <trkpt lat="44.84074" lon="5.39906">
        <ele>1458.63</ele>
        <time>2021-09-22T07:44:31.859Z</time>
      </trkpt>
      <trkpt lat="44.84082" lon="5.399">
        <ele>1460.71</ele>
        <time>2021-09-22T07:44:41.762Z</time>
      </trkpt>
      <trkpt lat="44.84089" lon="5.39897">
        <ele>1462.39</ele>
        <time>2021-09-22T07:44:50.766Z</time>
      </trkpt>
      <trkpt lat="44.84097" lon="5.39896">
        <ele>1463.65</ele>
        <time>2021-09-22T07:45:00.752Z</time>
      </trkpt>
      <trkpt lat="44.84104" lon="5.39891">
        <ele>1465.67</ele>
        <time>2021-09-22T07:45:09.767Z</time>
      </trkpt>
      <trkpt lat="44.84109" lon="5.39886">
        <ele>1467.63</ele>
        <time>2021-09-22T07:45:19.740Z</time>
      </trkpt>
      <trkpt lat="44.84115" lon="5.39884">
        <ele>1468.5</ele>
        <time>2021-09-22T07:45:28.779Z</time>
      </trkpt>
      <trkpt lat="44.84121" lon="5.3988">
        <ele>1470.3</ele>
        <time>2021-09-22T07:45:38.749Z</time>
      </trkpt>
      <trkpt lat="44.84124" lon="5.39876">
        <ele>1471.73</ele>
        <time>2021-09-22T07:45:47.758Z</time>
      </trkpt>
      <trkpt lat="44.84127" lon="5.39872">
        <ele>1473.08</ele>
        <time>2021-09-22T07:45:57.762Z</time>
      </trkpt>
      <trkpt lat="44.84132" lon="5.3987">
        <ele>1474.15</ele>
        <time>2021-09-22T07:46:07.763Z</time>
      </trkpt>
      <trkpt lat="44.84137" lon="5.39867">
        <ele>1475.34</ele>
        <time>2021-09-22T07:46:17.753Z</time>
      </trkpt>
      <trkpt lat="44.84141" lon="5.39862">
        <ele>1477.09</ele>
        <time>2021-09-22T07:46:26.756Z</time>
      </trkpt>
      <trkpt lat="44.84142" lon="5.39859">
        <ele>1477.99</ele>
        <time>2021-09-22T07:46:36.000Z</time>
      </trkpt>
      <trkpt lat="44.84142" lon="5.39854">
        <ele>1479.26</ele>
        <time>2021-09-22T07:46:45.754Z</time>
      </trkpt>
      <trkpt lat="44.84142" lon="5.39847">
        <ele>1480.67</ele>
        <time>2021-09-22T07:46:54.772Z</time>
      </trkpt>
      <trkpt lat="44.84142" lon="5.39844">
        <ele>1481.14</ele>
        <time>2021-09-22T07:47:04.000Z</time>
      </trkpt>
      <trkpt lat="44.84142" lon="5.39846">
        <ele>1480.96</ele>
        <time>2021-09-22T07:47:14.000Z</time>
      </trkpt>
      <trkpt lat="44.84143" lon="5.39846">
        <ele>1480.99</ele>
        <time>2021-09-22T07:47:24.000Z</time>
      </trkpt>
      <trkpt lat="44.84142" lon="5.39846">
        <ele>1480.98</ele>
        <time>2021-09-22T07:47:43.000Z</time>
      </trkpt>
      <trkpt lat="44.84143" lon="5.39845">
        <ele>1481.18</ele>
        <time>2021-09-22T07:49:18.000Z</time>
      </trkpt>
      <trkpt lat="44.84146" lon="5.39843">
        <ele>1481.63</ele>
        <time>2021-09-22T07:49:28.000Z</time>
      </trkpt>
      <trkpt lat="44.84147" lon="5.39843">
        <ele>1481.8</ele>
        <time>2021-09-22T07:49:43.748Z</time>
      </trkpt>
      <trkpt lat="44.84147" lon="5.39841">
        <ele>1481.95</ele>
        <time>2021-09-22T07:50:13.000Z</time>
      </trkpt>
      <trkpt lat="44.84147" lon="5.3984">
        <ele>1482.04</ele>
        <time>2021-09-22T07:50:27.000Z</time>
      </trkpt>
      <trkpt lat="44.84149" lon="5.3984">
        <ele>1482.27</ele>
        <time>2021-09-22T07:50:36.793Z</time>
      </trkpt>
      <trkpt lat="44.84155" lon="5.3984">
        <ele>1482.91</ele>
        <time>2021-09-22T07:50:46.278Z</time>
      </trkpt>
      <trkpt lat="44.84164" lon="5.39833">
        <ele>1484.73</ele>
        <time>2021-09-22T07:50:55.781Z</time>
      </trkpt>
      <trkpt lat="44.84173" lon="5.39827">
        <ele>1486.28</ele>
        <time>2021-09-22T07:51:05.736Z</time>
      </trkpt>
      <trkpt lat="44.84174" lon="5.39827">
        <ele>1486.42</ele>
        <time>2021-09-22T07:51:18.743Z</time>
      </trkpt>
      <trkpt lat="44.84182" lon="5.3982">
        <ele>1487.87</ele>
        <time>2021-09-22T07:51:28.157Z</time>
      </trkpt>
      <trkpt lat="44.84187" lon="5.39812">
        <ele>1489.07</ele>
        <time>2021-09-22T07:51:37.749Z</time>
      </trkpt>
      <trkpt lat="44.84193" lon="5.39807">
        <ele>1490.61</ele>
        <time>2021-09-22T07:51:47.317Z</time>
      </trkpt>
      <trkpt lat="44.84193" lon="5.39801">
        <ele>1490.86</ele>
        <time>2021-09-22T07:51:57.000Z</time>
      </trkpt>
      <trkpt lat="44.84195" lon="5.39799">
        <ele>1491.54</ele>
        <time>2021-09-22T07:52:09.753Z</time>
      </trkpt>
      <trkpt lat="44.84203" lon="5.39797">
        <ele>1494.17</ele>
        <time>2021-09-22T07:52:18.761Z</time>
      </trkpt>
      <trkpt lat="44.84208" lon="5.39794">
        <ele>1495.98</ele>
        <time>2021-09-22T07:52:28.772Z</time>
      </trkpt>
      <trkpt lat="44.84213" lon="5.39793">
        <ele>1497.65</ele>
        <time>2021-09-22T07:52:38.762Z</time>
      </trkpt>
      <trkpt lat="44.84217" lon="5.39795">
        <ele>1498.39</ele>
        <time>2021-09-22T07:52:49.000Z</time>
      </trkpt>
      <trkpt lat="44.84218" lon="5.39794">
        <ele>1499.01</ele>
        <time>2021-09-22T07:53:14.000Z</time>
      </trkpt>
      <trkpt lat="44.84224" lon="5.39789">
        <ele>1501.82</ele>
        <time>2021-09-22T07:53:23.810Z</time>
      </trkpt>
      <trkpt lat="44.8423" lon="5.39784">
        <ele>1504.87</ele>
        <time>2021-09-22T07:53:33.761Z</time>
      </trkpt>
      <trkpt lat="44.84235" lon="5.3978">
        <ele>1507.82</ele>
        <time>2021-09-22T07:53:42.763Z</time>
      </trkpt>
      <trkpt lat="44.8424" lon="5.39776">
        <ele>1510.64</ele>
        <time>2021-09-22T07:53:52.755Z</time>
      </trkpt>
      <trkpt lat="44.84244" lon="5.39772">
        <ele>1512.7</ele>
        <time>2021-09-22T07:54:01.775Z</time>
      </trkpt>
      <trkpt lat="44.84251" lon="5.3977">
        <ele>1515.16</ele>
        <time>2021-09-22T07:54:11.759Z</time>
      </trkpt>
      <trkpt lat="44.84256" lon="5.39769">
        <ele>1516.68</ele>
        <time>2021-09-22T07:54:20.768Z</time>
      </trkpt>
      <trkpt lat="44.84257" lon="5.39768">
        <ele>1517.17</ele>
        <time>2021-09-22T07:55:02.000Z</time>
      </trkpt>
      <trkpt lat="44.84262" lon="5.39762">
        <ele>1519.57</ele>
        <time>2021-09-22T07:55:11.760Z</time>
      </trkpt>
      <trkpt lat="44.84271" lon="5.39758">
        <ele>1521.79</ele>
        <time>2021-09-22T07:55:20.765Z</time>
      </trkpt>
      <trkpt lat="44.84274" lon="5.39757">
        <ele>1522.46</ele>
        <time>2021-09-22T07:55:29.767Z</time>
      </trkpt>
      <trkpt lat="44.84274" lon="5.39752">
        <ele>1523.34</ele>
        <time>2021-09-22T07:55:39.361Z</time>
      </trkpt>
      <trkpt lat="44.84275" lon="5.39746">
        <ele>1524.01</ele>
        <time>2021-09-22T07:55:48.748Z</time>
      </trkpt>
      <trkpt lat="44.84273" lon="5.39742">
        <ele>1523.93</ele>
        <time>2021-09-22T07:55:57.757Z</time>
      </trkpt>
      <trkpt lat="44.84273" lon="5.3974">
        <ele>1523.93</ele>
        <time>2021-09-22T07:56:09.000Z</time>
      </trkpt>
      <trkpt lat="44.84275" lon="5.3974">
        <ele>1524.33</ele>
        <time>2021-09-22T07:56:19.753Z</time>
      </trkpt>
      <trkpt lat="44.84278" lon="5.39738">
        <ele>1524.79</ele>
        <time>2021-09-22T07:56:29.000Z</time>
      </trkpt>
      <trkpt lat="44.84282" lon="5.39738">
        <ele>1525.37</ele>
        <time>2021-09-22T07:56:38.744Z</time>
      </trkpt>
      <trkpt lat="44.84285" lon="5.39735">
        <ele>1526</ele>
        <time>2021-09-22T07:56:48.000Z</time>
      </trkpt>
      <trkpt lat="44.84286" lon="5.39735">
        <ele>1526.15</ele>
        <time>2021-09-22T07:57:01.000Z</time>
      </trkpt>
      <trkpt lat="44.84286" lon="5.39733">
        <ele>1526.12</ele>
        <time>2021-09-22T07:57:23.000Z</time>
      </trkpt>
      <trkpt lat="44.84287" lon="5.39733">
        <ele>1526.38</ele>
        <time>2021-09-22T07:57:35.000Z</time>
      </trkpt>
      <trkpt lat="44.84292" lon="5.39729">
        <ele>1527.16</ele>
        <time>2021-09-22T07:57:44.760Z</time>
      </trkpt>
      <trkpt lat="44.84293" lon="5.39727">
        <ele>1527.51</ele>
        <time>2021-09-22T07:57:53.795Z</time>
      </trkpt>
      <trkpt lat="44.84303" lon="5.39724">
        <ele>1529.42</ele>
        <time>2021-09-22T07:58:03.506Z</time>
      </trkpt>
      <trkpt lat="44.84302" lon="5.39725">
        <ele>1529.23</ele>
        <time>2021-09-22T07:58:27.000Z</time>
      </trkpt>
      <trkpt lat="44.84303" lon="5.39726">
        <ele>1529.38</ele>
        <time>2021-09-22T07:59:38.000Z</time>
      </trkpt>
      <trkpt lat="44.84306" lon="5.39725">
        <ele>1529.93</ele>
        <time>2021-09-22T07:59:47.753Z</time>
      </trkpt>
      <trkpt lat="44.84309" lon="5.39721">
        <ele>1530.96</ele>
        <time>2021-09-22T07:59:56.763Z</time>
      </trkpt>
      <trkpt lat="44.84305" lon="5.39722">
        <ele>1530.09</ele>
        <time>2021-09-22T08:00:07.000Z</time>
      </trkpt>
      <trkpt lat="44.84307" lon="5.39721">
        <ele>1530.45</ele>
        <time>2021-09-22T08:00:19.077Z</time>
      </trkpt>
      <trkpt lat="44.84314" lon="5.39719">
        <ele>1532.21</ele>
        <time>2021-09-22T08:00:28.769Z</time>
      </trkpt>
      <trkpt lat="44.84318" lon="5.39716">
        <ele>1533.57</ele>
        <time>2021-09-22T08:00:38.753Z</time>
      </trkpt>
      <trkpt lat="44.84322" lon="5.39712">
        <ele>1535.16</ele>
        <time>2021-09-22T08:00:47.773Z</time>
      </trkpt>
      <trkpt lat="44.84326" lon="5.39709">
        <ele>1536.75</ele>
        <time>2021-09-22T08:00:57.767Z</time>
      </trkpt>
      <trkpt lat="44.84328" lon="5.39705">
        <ele>1537.92</ele>
        <time>2021-09-22T08:01:07.304Z</time>
      </trkpt>
      <trkpt lat="44.84334" lon="5.39701">
        <ele>1540.15</ele>
        <time>2021-09-22T08:01:16.375Z</time>
      </trkpt>
      <trkpt lat="44.84338" lon="5.39697">
        <ele>1542.4</ele>
        <time>2021-09-22T08:01:25.751Z</time>
      </trkpt>
      <trkpt lat="44.84341" lon="5.39696">
        <ele>1543.02</ele>
        <time>2021-09-22T08:01:35.751Z</time>
      </trkpt>
      <trkpt lat="44.84343" lon="5.39689">
        <ele>1545.15</ele>
        <time>2021-09-22T08:01:45.770Z</time>
      </trkpt>
      <trkpt lat="44.84343" lon="5.39686">
        <ele>1545.74</ele>
        <time>2021-09-22T08:01:55.000Z</time>
      </trkpt>
      <trkpt lat="44.84344" lon="5.39686">
        <ele>1546.01</ele>
        <time>2021-09-22T08:02:35.000Z</time>
      </trkpt>
      <trkpt lat="44.84345" lon="5.39685">
        <ele>1546.37</ele>
        <time>2021-09-22T08:02:45.000Z</time>
      </trkpt>
      <trkpt lat="44.84347" lon="5.39684">
        <ele>1547.22</ele>
        <time>2021-09-22T08:02:55.801Z</time>
      </trkpt>
      <trkpt lat="44.84354" lon="5.39678">
        <ele>1549.93</ele>
        <time>2021-09-22T08:03:05.775Z</time>
      </trkpt>
      <trkpt lat="44.84358" lon="5.39677">
        <ele>1551.27</ele>
        <time>2021-09-22T08:03:15.000Z</time>
      </trkpt>
      <trkpt lat="44.84361" lon="5.39674">
        <ele>1552.43</ele>
        <time>2021-09-22T08:03:24.751Z</time>
      </trkpt>
      <trkpt lat="44.84364" lon="5.39671">
        <ele>1553.44</ele>
        <time>2021-09-22T08:03:34.000Z</time>
      </trkpt>
      <trkpt lat="44.84365" lon="5.39669">
        <ele>1553.99</ele>
        <time>2021-09-22T08:03:43.756Z</time>
      </trkpt>
      <trkpt lat="44.84372" lon="5.39664">
        <ele>1556.36</ele>
        <time>2021-09-22T08:03:53.756Z</time>
      </trkpt>
      <trkpt lat="44.84378" lon="5.39658">
        <ele>1558.26</ele>
        <time>2021-09-22T08:04:02.764Z</time>
      </trkpt>
      <trkpt lat="44.84379" lon="5.39654">
        <ele>1559.22</ele>
        <time>2021-09-22T08:04:11.778Z</time>
      </trkpt>
      <trkpt lat="44.8438" lon="5.39657">
        <ele>1559.17</ele>
        <time>2021-09-22T08:04:21.000Z</time>
      </trkpt>
      <trkpt lat="44.84384" lon="5.39653">
        <ele>1560.6</ele>
        <time>2021-09-22T08:04:30.776Z</time>
      </trkpt>
      <trkpt lat="44.84391" lon="5.39646">
        <ele>1563.44</ele>
        <time>2021-09-22T08:04:40.754Z</time>
      </trkpt>
      <trkpt lat="44.84396" lon="5.39642">
        <ele>1565.51</ele>
        <time>2021-09-22T08:04:49.766Z</time>
      </trkpt>
      <trkpt lat="44.84403" lon="5.39639">
        <ele>1567.8</ele>
        <time>2021-09-22T08:04:58.768Z</time>
      </trkpt>
      <trkpt lat="44.84408" lon="5.39633">
        <ele>1570.52</ele>
        <time>2021-09-22T08:05:08.758Z</time>
      </trkpt>
      <trkpt lat="44.84409" lon="5.39633">
        <ele>1571.04</ele>
        <time>2021-09-22T08:05:19.763Z</time>
      </trkpt>
      <trkpt lat="44.84414" lon="5.39632">
        <ele>1572.47</ele>
        <time>2021-09-22T08:05:29.748Z</time>
      </trkpt>
      <trkpt lat="44.84417" lon="5.39631">
        <ele>1573.58</ele>
        <time>2021-09-22T08:05:39.757Z</time>
      </trkpt>
      <trkpt lat="44.84418" lon="5.39626">
        <ele>1575.27</ele>
        <time>2021-09-22T08:05:48.789Z</time>
      </trkpt>
      <trkpt lat="44.84424" lon="5.3962">
        <ele>1578.31</ele>
        <time>2021-09-22T08:05:58.773Z</time>
      </trkpt>
      <trkpt lat="44.84424" lon="5.39615">
        <ele>1579.52</ele>
        <time>2021-09-22T08:06:08.770Z</time>
      </trkpt>
      <trkpt lat="44.84424" lon="5.39613">
        <ele>1579.92</ele>
        <time>2021-09-22T08:06:18.000Z</time>
      </trkpt>
      <trkpt lat="44.84425" lon="5.39612">
        <ele>1580.51</ele>
        <time>2021-09-22T08:06:29.059Z</time>
      </trkpt>
      <trkpt lat="44.84431" lon="5.39608">
        <ele>1583.34</ele>
        <time>2021-09-22T08:06:38.776Z</time>
      </trkpt>
      <trkpt lat="44.84438" lon="5.39602">
        <ele>1586.71</ele>
        <time>2021-09-22T08:06:48.770Z</time>
      </trkpt>
      <trkpt lat="44.84442" lon="5.39596">
        <ele>1589.23</ele>
        <time>2021-09-22T08:06:59.786Z</time>
      </trkpt>
      <trkpt lat="44.84442" lon="5.39597">
        <ele>1588.87</ele>
        <time>2021-09-22T08:07:09.000Z</time>
      </trkpt>
      <trkpt lat="44.84443" lon="5.39598">
        <ele>1588.93</ele>
        <time>2021-09-22T08:07:19.000Z</time>
      </trkpt>
      <trkpt lat="44.84444" lon="5.39598">
        <ele>1589.46</ele>
        <time>2021-09-22T08:12:05.000Z</time>
      </trkpt>
      <trkpt lat="44.84448" lon="5.39595">
        <ele>1591.15</ele>
        <time>2021-09-22T08:12:14.153Z</time>
      </trkpt>
      <trkpt lat="44.84455" lon="5.39591">
        <ele>1594.11</ele>
        <time>2021-09-22T08:12:23.720Z</time>
      </trkpt>
      <trkpt lat="44.84459" lon="5.39585">
        <ele>1596.25</ele>
        <time>2021-09-22T08:12:32.723Z</time>
      </trkpt>
      <trkpt lat="44.84465" lon="5.3958">
        <ele>1598.9</ele>
        <time>2021-09-22T08:12:41.751Z</time>
      </trkpt>
      <trkpt lat="44.84467" lon="5.39573">
        <ele>1600.37</ele>
        <time>2021-09-22T08:12:51.744Z</time>
      </trkpt>
      <trkpt lat="44.84472" lon="5.3957">
        <ele>1602.21</ele>
        <time>2021-09-22T08:13:01.727Z</time>
      </trkpt>
      <trkpt lat="44.84476" lon="5.39565">
        <ele>1604.25</ele>
        <time>2021-09-22T08:13:10.734Z</time>
      </trkpt>
      <trkpt lat="44.84477" lon="5.39567">
        <ele>1604.24</ele>
        <time>2021-09-22T08:13:20.000Z</time>
      </trkpt>
      <trkpt lat="44.84476" lon="5.39566">
        <ele>1604.23</ele>
        <time>2021-09-22T08:13:34.000Z</time>
      </trkpt>
      <trkpt lat="44.84478" lon="5.39565">
        <ele>1604.83</ele>
        <time>2021-09-22T08:13:51.000Z</time>
      </trkpt>
      <trkpt lat="44.84484" lon="5.39559">
        <ele>1607.29</ele>
        <time>2021-09-22T08:14:00.456Z</time>
      </trkpt>
      <trkpt lat="44.84489" lon="5.39551">
        <ele>1609.94</ele>
        <time>2021-09-22T08:14:09.694Z</time>
      </trkpt>
      <trkpt lat="44.84495" lon="5.39547">
        <ele>1612.26</ele>
        <time>2021-09-22T08:14:19.583Z</time>
      </trkpt>
      <trkpt lat="44.84498" lon="5.39539">
        <ele>1614.02</ele>
        <time>2021-09-22T08:14:28.758Z</time>
      </trkpt>
      <trkpt lat="44.84499" lon="5.39535">
        <ele>1614.78</ele>
        <time>2021-09-22T08:14:37.770Z</time>
      </trkpt>
      <trkpt lat="44.84504" lon="5.3953">
        <ele>1616.5</ele>
        <time>2021-09-22T08:14:47.752Z</time>
      </trkpt>
      <trkpt lat="44.8451" lon="5.39523">
        <ele>1618.6</ele>
        <time>2021-09-22T08:14:56.754Z</time>
      </trkpt>
      <trkpt lat="44.84516" lon="5.39518">
        <ele>1620.34</ele>
        <time>2021-09-22T08:15:05.766Z</time>
      </trkpt>
      <trkpt lat="44.84519" lon="5.39513">
        <ele>1621.45</ele>
        <time>2021-09-22T08:15:14.769Z</time>
      </trkpt>
      <trkpt lat="44.84519" lon="5.39509">
        <ele>1621.5</ele>
        <time>2021-09-22T08:15:24.751Z</time>
      </trkpt>
      <trkpt lat="44.84522" lon="5.39508">
        <ele>1622.33</ele>
        <time>2021-09-22T08:15:34.741Z</time>
      </trkpt>
      <trkpt lat="44.84529" lon="5.39504">
        <ele>1624</ele>
        <time>2021-09-22T08:15:43.765Z</time>
      </trkpt>
      <trkpt lat="44.84535" lon="5.39497">
        <ele>1625.7</ele>
        <time>2021-09-22T08:15:53.760Z</time>
      </trkpt>
      <trkpt lat="44.84537" lon="5.3949">
        <ele>1625.92</ele>
        <time>2021-09-22T08:16:02.767Z</time>
      </trkpt>
      <trkpt lat="44.84536" lon="5.39492">
        <ele>1625.83</ele>
        <time>2021-09-22T08:16:12.000Z</time>
      </trkpt>
      <trkpt lat="44.84537" lon="5.39492">
        <ele>1626.06</ele>
        <time>2021-09-22T08:16:29.000Z</time>
      </trkpt>
      <trkpt lat="44.8454" lon="5.39489">
        <ele>1626.77</ele>
        <time>2021-09-22T08:16:39.758Z</time>
      </trkpt>
      <trkpt lat="44.84548" lon="5.3948">
        <ele>1628.79</ele>
        <time>2021-09-22T08:16:49.767Z</time>
      </trkpt>
      <trkpt lat="44.84553" lon="5.39474">
        <ele>1630.32</ele>
        <time>2021-09-22T08:16:58.771Z</time>
      </trkpt>
      <trkpt lat="44.84556" lon="5.39468">
        <ele>1631.36</ele>
        <time>2021-09-22T08:17:08.747Z</time>
      </trkpt>
      <trkpt lat="44.84557" lon="5.3946">
        <ele>1631.73</ele>
        <time>2021-09-22T08:17:17.766Z</time>
      </trkpt>
      <trkpt lat="44.84564" lon="5.39454">
        <ele>1634.42</ele>
        <time>2021-09-22T08:17:27.572Z</time>
      </trkpt>
      <trkpt lat="44.8457" lon="5.39448">
        <ele>1637.4</ele>
        <time>2021-09-22T08:17:36.773Z</time>
      </trkpt>
      <trkpt lat="44.84576" lon="5.39441">
        <ele>1640.02</ele>
        <time>2021-09-22T08:17:46.766Z</time>
      </trkpt>
      <trkpt lat="44.84582" lon="5.39433">
        <ele>1642.33</ele>
        <time>2021-09-22T08:17:56.779Z</time>
      </trkpt>
      <trkpt lat="44.84588" lon="5.39429">
        <ele>1644.46</ele>
        <time>2021-09-22T08:18:05.784Z</time>
      </trkpt>
      <trkpt lat="44.84587" lon="5.39429">
        <ele>1643.94</ele>
        <time>2021-09-22T08:18:15.756Z</time>
      </trkpt>
      <trkpt lat="44.84586" lon="5.3943">
        <ele>1643.76</ele>
        <time>2021-09-22T08:18:29.000Z</time>
      </trkpt>
      <trkpt lat="44.84587" lon="5.3943">
        <ele>1644.06</ele>
        <time>2021-09-22T08:19:58.000Z</time>
      </trkpt>
      <trkpt lat="44.84587" lon="5.39431">
        <ele>1644.22</ele>
        <time>2021-09-22T08:20:25.000Z</time>
      </trkpt>
      <trkpt lat="44.84588" lon="5.3943">
        <ele>1644.34</ele>
        <time>2021-09-22T08:21:02.000Z</time>
      </trkpt>
      <trkpt lat="44.84587" lon="5.3943">
        <ele>1644.01</ele>
        <time>2021-09-22T08:22:00.000Z</time>
      </trkpt>
      <trkpt lat="44.84588" lon="5.39429">
        <ele>1644.3</ele>
        <time>2021-09-22T08:22:59.000Z</time>
      </trkpt>
      <trkpt lat="44.84587" lon="5.39429">
        <ele>1644.06</ele>
        <time>2021-09-22T08:23:16.000Z</time>
      </trkpt>
      <trkpt lat="44.84588" lon="5.39428">
        <ele>1644.25</ele>
        <time>2021-09-22T08:23:33.000Z</time>
      </trkpt>
      <trkpt lat="44.8459" lon="5.39428">
        <ele>1645.01</ele>
        <time>2021-09-22T08:23:42.747Z</time>
      </trkpt>
      <trkpt lat="44.84594" lon="5.39426">
        <ele>1645.99</ele>
        <time>2021-09-22T08:23:53.751Z</time>
      </trkpt>
      <trkpt lat="44.84598" lon="5.39428">
        <ele>1646.84</ele>
        <time>2021-09-22T08:24:03.000Z</time>
      </trkpt>
      <trkpt lat="44.84599" lon="5.39428">
        <ele>1647.16</ele>
        <time>2021-09-22T08:24:13.000Z</time>
      </trkpt>
      <trkpt lat="44.846" lon="5.39427">
        <ele>1647.35</ele>
        <time>2021-09-22T08:24:26.575Z</time>
      </trkpt>
      <trkpt lat="44.84604" lon="5.39427">
        <ele>1648.01</ele>
        <time>2021-09-22T08:24:36.000Z</time>
      </trkpt>
      <trkpt lat="44.84603" lon="5.39427">
        <ele>1647.87</ele>
        <time>2021-09-22T08:24:54.000Z</time>
      </trkpt>
      <trkpt lat="44.84604" lon="5.39426">
        <ele>1648.01</ele>
        <time>2021-09-22T08:25:08.000Z</time>
      </trkpt>
      <trkpt lat="44.84605" lon="5.39426">
        <ele>1648.15</ele>
        <time>2021-09-22T08:25:17.295Z</time>
      </trkpt>
      <trkpt lat="44.84607" lon="5.39427">
        <ele>1648.31</ele>
        <time>2021-09-22T08:25:27.000Z</time>
      </trkpt>
      <trkpt lat="44.84608" lon="5.39427">
        <ele>1648.41</ele>
        <time>2021-09-22T08:25:36.850Z</time>
      </trkpt>
      <trkpt lat="44.8461" lon="5.39427">
        <ele>1648.66</ele>
        <time>2021-09-22T08:25:46.000Z</time>
      </trkpt>
      <trkpt lat="44.84611" lon="5.39427">
        <ele>1648.75</ele>
        <time>2021-09-22T08:25:57.000Z</time>
      </trkpt>
      <trkpt lat="44.84614" lon="5.39427">
        <ele>1649</ele>
        <time>2021-09-22T08:26:07.000Z</time>
      </trkpt>
      <trkpt lat="44.84618" lon="5.39433">
        <ele>1648.99</ele>
        <time>2021-09-22T08:26:16.737Z</time>
      </trkpt>
      <trkpt lat="44.84631" lon="5.39427">
        <ele>1649.44</ele>
        <time>2021-09-22T08:26:25.775Z</time>
      </trkpt>
      <trkpt lat="44.84641" lon="5.39425">
        <ele>1649.33</ele>
        <time>2021-09-22T08:26:35.812Z</time>
      </trkpt>
      <trkpt lat="44.84647" lon="5.39426">
        <ele>1649.18</ele>
        <time>2021-09-22T08:26:45.000Z</time>
      </trkpt>
      <trkpt lat="44.84654" lon="5.39427">
        <ele>1649.07</ele>
        <time>2021-09-22T08:26:54.776Z</time>
      </trkpt>
      <trkpt lat="44.84665" lon="5.39425">
        <ele>1649.24</ele>
        <time>2021-09-22T08:27:03.949Z</time>
      </trkpt>
      <trkpt lat="44.84677" lon="5.39421">
        <ele>1649.75</ele>
        <time>2021-09-22T08:27:13.766Z</time>
      </trkpt>
      <trkpt lat="44.84689" lon="5.39422">
        <ele>1650.28</ele>
        <time>2021-09-22T08:27:23.770Z</time>
      </trkpt>
      <trkpt lat="44.847" lon="5.39419">
        <ele>1650.51</ele>
        <time>2021-09-22T08:27:33.769Z</time>
      </trkpt>
      <trkpt lat="44.84713" lon="5.39422">
        <ele>1650.91</ele>
        <time>2021-09-22T08:27:44.765Z</time>
      </trkpt>
      <trkpt lat="44.84729" lon="5.3942">
        <ele>1650.89</ele>
        <time>2021-09-22T08:27:54.775Z</time>
      </trkpt>
      <trkpt lat="44.84737" lon="5.39422">
        <ele>1650.78</ele>
        <time>2021-09-22T08:28:05.774Z</time>
      </trkpt>
      <trkpt lat="44.84732" lon="5.39426">
        <ele>1650.81</ele>
        <time>2021-09-22T08:28:15.000Z</time>
      </trkpt>
      <trkpt lat="44.84732" lon="5.39426">
        <ele>1650.81</ele>
        <time>2021-09-22T08:28:28.000Z</time>
      </trkpt>
      <trkpt lat="44.84732" lon="5.39428">
        <ele>1650.74</ele>
        <time>2021-09-22T08:28:37.757Z</time>
      </trkpt>
      <trkpt lat="44.84748" lon="5.39418">
        <ele>1650.21</ele>
        <time>2021-09-22T08:28:47.164Z</time>
      </trkpt>
      <trkpt lat="44.84757" lon="5.39416">
        <ele>1649.46</ele>
        <time>2021-09-22T08:28:56.754Z</time>
      </trkpt>
      <trkpt lat="44.84765" lon="5.39412">
        <ele>1648.43</ele>
        <time>2021-09-22T08:29:05.787Z</time>
      </trkpt>
      <trkpt lat="44.84772" lon="5.39407">
        <ele>1646.78</ele>
        <time>2021-09-22T08:29:15.757Z</time>
      </trkpt>
      <trkpt lat="44.84776" lon="5.39403">
        <ele>1645.28</ele>
        <time>2021-09-22T08:29:24.779Z</time>
      </trkpt>
      <trkpt lat="44.84779" lon="5.39395">
        <ele>1642.56</ele>
        <time>2021-09-22T08:29:34.760Z</time>
      </trkpt>
      <trkpt lat="44.84784" lon="5.3939">
        <ele>1640.36</ele>
        <time>2021-09-22T08:29:44.755Z</time>
      </trkpt>
      <trkpt lat="44.84781" lon="5.39381">
        <ele>1636.83</ele>
        <time>2021-09-22T08:29:54.751Z</time>
      </trkpt>
      <trkpt lat="44.84776" lon="5.39378">
        <ele>1636.01</ele>
        <time>2021-09-22T08:30:03.762Z</time>
      </trkpt>
      <trkpt lat="44.84772" lon="5.39372">
        <ele>1633.1</ele>
        <time>2021-09-22T08:30:13.739Z</time>
      </trkpt>
      <trkpt lat="44.84766" lon="5.39368">
        <ele>1631.16</ele>
        <time>2021-09-22T08:30:22.752Z</time>
      </trkpt>
      <trkpt lat="44.84762" lon="5.39361">
        <ele>1628.03</ele>
        <time>2021-09-22T08:30:32.000Z</time>
      </trkpt>
      <trkpt lat="44.84755" lon="5.39357">
        <ele>1625.7</ele>
        <time>2021-09-22T08:30:41.907Z</time>
      </trkpt>
      <trkpt lat="44.84749" lon="5.39354">
        <ele>1624.18</ele>
        <time>2021-09-22T08:30:51.772Z</time>
      </trkpt>
      <trkpt lat="44.84743" lon="5.3935">
        <ele>1622.39</ele>
        <time>2021-09-22T08:31:01.755Z</time>
      </trkpt>
      <trkpt lat="44.84737" lon="5.39347">
        <ele>1620.94</ele>
        <time>2021-09-22T08:31:10.764Z</time>
      </trkpt>
      <trkpt lat="44.84737" lon="5.39344">
        <ele>1619.15</ele>
        <time>2021-09-22T08:31:19.869Z</time>
      </trkpt>
      <trkpt lat="44.84731" lon="5.39337">
        <ele>1616.05</ele>
        <time>2021-09-22T08:31:29.766Z</time>
      </trkpt>
      <trkpt lat="44.84728" lon="5.39332">
        <ele>1613.79</ele>
        <time>2021-09-22T08:31:39.248Z</time>
      </trkpt>
      <trkpt lat="44.84725" lon="5.39329">
        <ele>1612.44</ele>
        <time>2021-09-22T08:31:48.754Z</time>
      </trkpt>
      <trkpt lat="44.84727" lon="5.39323">
        <ele>1609.79</ele>
        <time>2021-09-22T08:31:57.764Z</time>
      </trkpt>
      <trkpt lat="44.84723" lon="5.3932">
        <ele>1608.58</ele>
        <time>2021-09-22T08:32:06.780Z</time>
      </trkpt>
      <trkpt lat="44.84715" lon="5.39319">
        <ele>1608.2</ele>
        <time>2021-09-22T08:32:16.757Z</time>
      </trkpt>
      <trkpt lat="44.8471" lon="5.3932">
        <ele>1608.84</ele>
        <time>2021-09-22T08:32:25.778Z</time>
      </trkpt>
      <trkpt lat="44.84699" lon="5.39317">
        <ele>1607.88</ele>
        <time>2021-09-22T08:32:35.760Z</time>
      </trkpt>
      <trkpt lat="44.84691" lon="5.39314">
        <ele>1606.9</ele>
        <time>2021-09-22T08:32:44.761Z</time>
      </trkpt>
      <trkpt lat="44.84684" lon="5.39309">
        <ele>1605.12</ele>
        <time>2021-09-22T08:32:53.763Z</time>
      </trkpt>
      <trkpt lat="44.84678" lon="5.39306">
        <ele>1603.84</ele>
        <time>2021-09-22T08:33:02.800Z</time>
      </trkpt>
      <trkpt lat="44.84672" lon="5.39299">
        <ele>1601.35</ele>
        <time>2021-09-22T08:33:12.760Z</time>
      </trkpt>
      <trkpt lat="44.8467" lon="5.39291">
        <ele>1598.13</ele>
        <time>2021-09-22T08:33:22.741Z</time>
      </trkpt>
      <trkpt lat="44.84663" lon="5.39285">
        <ele>1596.06</ele>
        <time>2021-09-22T08:33:32.029Z</time>
      </trkpt>
      <trkpt lat="44.84656" lon="5.39278">
        <ele>1593.85</ele>
        <time>2021-09-22T08:33:41.770Z</time>
      </trkpt>
      <trkpt lat="44.84648" lon="5.39273">
        <ele>1592.55</ele>
        <time>2021-09-22T08:33:51.589Z</time>
      </trkpt>
      <trkpt lat="44.84641" lon="5.39265">
        <ele>1590.35</ele>
        <time>2021-09-22T08:34:00.746Z</time>
      </trkpt>
      <trkpt lat="44.84636" lon="5.39258">
        <ele>1588.32</ele>
        <time>2021-09-22T08:34:09.750Z</time>
      </trkpt>
      <trkpt lat="44.8463" lon="5.39255">
        <ele>1587.38</ele>
        <time>2021-09-22T08:34:18.805Z</time>
      </trkpt>
      <trkpt lat="44.84629" lon="5.39252">
        <ele>1586.63</ele>
        <time>2021-09-22T08:34:28.000Z</time>
      </trkpt>
      <trkpt lat="44.84625" lon="5.3925">
        <ele>1585.74</ele>
        <time>2021-09-22T08:34:37.747Z</time>
      </trkpt>
      <trkpt lat="44.84618" lon="5.39243">
        <ele>1583.22</ele>
        <time>2021-09-22T08:34:47.508Z</time>
      </trkpt>
      <trkpt lat="44.84614" lon="5.39236">
        <ele>1580.16</ele>
        <time>2021-09-22T08:34:57.346Z</time>
      </trkpt>
      <trkpt lat="44.84606" lon="5.39233">
        <ele>1578.99</ele>
        <time>2021-09-22T08:35:07.351Z</time>
      </trkpt>
      <trkpt lat="44.84597" lon="5.39229">
        <ele>1576.76</ele>
        <time>2021-09-22T08:35:17.548Z</time>
      </trkpt>
      <trkpt lat="44.84589" lon="5.39225">
        <ele>1573.82</ele>
        <time>2021-09-22T08:35:26.743Z</time>
      </trkpt>
      <trkpt lat="44.84582" lon="5.39221">
        <ele>1570.84</ele>
        <time>2021-09-22T08:35:35.758Z</time>
      </trkpt>
      <trkpt lat="44.84573" lon="5.39216">
        <ele>1566.93</ele>
        <time>2021-09-22T08:35:45.746Z</time>
      </trkpt>
      <trkpt lat="44.84571" lon="5.39214">
        <ele>1565.48</ele>
        <time>2021-09-22T08:35:55.747Z</time>
      </trkpt>
      <trkpt lat="44.84563" lon="5.3921">
        <ele>1561.81</ele>
        <time>2021-09-22T08:36:04.767Z</time>
      </trkpt>
      <trkpt lat="44.84556" lon="5.39206">
        <ele>1558.72</ele>
        <time>2021-09-22T08:36:13.769Z</time>
      </trkpt>
      <trkpt lat="44.8455" lon="5.39203">
        <ele>1556.16</ele>
        <time>2021-09-22T08:36:22.772Z</time>
      </trkpt>
      <trkpt lat="44.84544" lon="5.39202">
        <ele>1554.47</ele>
        <time>2021-09-22T08:36:32.759Z</time>
      </trkpt>
      <trkpt lat="44.84545" lon="5.39199">
        <ele>1553.69</ele>
        <time>2021-09-22T08:36:42.736Z</time>
      </trkpt>
      <trkpt lat="44.84542" lon="5.39193">
        <ele>1550.98</ele>
        <time>2021-09-22T08:36:51.776Z</time>
      </trkpt>
      <trkpt lat="44.8454" lon="5.39183">
        <ele>1547.92</ele>
        <time>2021-09-22T08:37:01.746Z</time>
      </trkpt>
      <trkpt lat="44.84538" lon="5.39183">
        <ele>1547.44</ele>
        <time>2021-09-22T08:37:10.760Z</time>
      </trkpt>
      <trkpt lat="44.8454" lon="5.39179">
        <ele>1546.76</ele>
        <time>2021-09-22T08:37:20.761Z</time>
      </trkpt>
      <trkpt lat="44.84533" lon="5.39175">
        <ele>1544.5</ele>
        <time>2021-09-22T08:37:30.546Z</time>
      </trkpt>
      <trkpt lat="44.84526" lon="5.39173">
        <ele>1542.62</ele>
        <time>2021-09-22T08:37:39.762Z</time>
      </trkpt>
      <trkpt lat="44.84524" lon="5.39172">
        <ele>1542.08</ele>
        <time>2021-09-22T08:37:52.845Z</time>
      </trkpt>
      <trkpt lat="44.84519" lon="5.39164">
        <ele>1539.6</ele>
        <time>2021-09-22T08:38:02.755Z</time>
      </trkpt>
      <trkpt lat="44.84518" lon="5.39158">
        <ele>1537.86</ele>
        <time>2021-09-22T08:38:12.748Z</time>
      </trkpt>
      <trkpt lat="44.8451" lon="5.39161">
        <ele>1536.88</ele>
        <time>2021-09-22T08:38:21.764Z</time>
      </trkpt>
      <trkpt lat="44.84501" lon="5.3916">
        <ele>1534.33</ele>
        <time>2021-09-22T08:38:31.179Z</time>
      </trkpt>
      <trkpt lat="44.84501" lon="5.39158">
        <ele>1534.09</ele>
        <time>2021-09-22T08:38:43.000Z</time>
      </trkpt>
      <trkpt lat="44.845" lon="5.39159">
        <ele>1533.85</ele>
        <time>2021-09-22T08:38:56.000Z</time>
      </trkpt>
      <trkpt lat="44.84499" lon="5.39159">
        <ele>1533.48</ele>
        <time>2021-09-22T08:39:14.000Z</time>
      </trkpt>
      <trkpt lat="44.84491" lon="5.39164">
        <ele>1531.18</ele>
        <time>2021-09-22T08:39:24.757Z</time>
      </trkpt>
      <trkpt lat="44.84479" lon="5.39169">
        <ele>1526.24</ele>
        <time>2021-09-22T08:39:34.755Z</time>
      </trkpt>
      <trkpt lat="44.84472" lon="5.39176">
        <ele>1522.85</ele>
        <time>2021-09-22T08:39:44.743Z</time>
      </trkpt>
      <trkpt lat="44.84473" lon="5.39173">
        <ele>1523.1</ele>
        <time>2021-09-22T08:39:54.000Z</time>
      </trkpt>
      <trkpt lat="44.84468" lon="5.39158">
        <ele>1520.62</ele>
        <time>2021-09-22T08:40:03.774Z</time>
      </trkpt>
      <trkpt lat="44.84465" lon="5.39158">
        <ele>1518.85</ele>
        <time>2021-09-22T08:40:13.000Z</time>
      </trkpt>
      <trkpt lat="44.84464" lon="5.39158">
        <ele>1518.37</ele>
        <time>2021-09-22T08:40:32.000Z</time>
      </trkpt>
      <trkpt lat="44.84463" lon="5.39159">
        <ele>1517.6</ele>
        <time>2021-09-22T08:40:42.730Z</time>
      </trkpt>
      <trkpt lat="44.84459" lon="5.39139">
        <ele>1516.56</ele>
        <time>2021-09-22T08:40:51.763Z</time>
      </trkpt>
      <trkpt lat="44.8445" lon="5.39136">
        <ele>1512.96</ele>
        <time>2021-09-22T08:41:01.742Z</time>
      </trkpt>
      <trkpt lat="44.84445" lon="5.39129">
        <ele>1511.35</ele>
        <time>2021-09-22T08:41:10.765Z</time>
      </trkpt>
      <trkpt lat="44.84446" lon="5.39131">
        <ele>1511.64</ele>
        <time>2021-09-22T08:41:20.000Z</time>
      </trkpt>
      <trkpt lat="44.84441" lon="5.39128">
        <ele>1509.94</ele>
        <time>2021-09-22T08:41:29.739Z</time>
      </trkpt>
      <trkpt lat="44.84437" lon="5.39117">
        <ele>1509.61</ele>
        <time>2021-09-22T08:41:38.763Z</time>
      </trkpt>
      <trkpt lat="44.84429" lon="5.39108">
        <ele>1507.94</ele>
        <time>2021-09-22T08:41:48.765Z</time>
      </trkpt>
      <trkpt lat="44.84421" lon="5.39109">
        <ele>1504.68</ele>
        <time>2021-09-22T08:41:58.000Z</time>
      </trkpt>
      <trkpt lat="44.84422" lon="5.39097">
        <ele>1506.42</ele>
        <time>2021-09-22T08:42:07.767Z</time>
      </trkpt>
      <trkpt lat="44.84416" lon="5.39084">
        <ele>1504.69</ele>
        <time>2021-09-22T08:42:17.825Z</time>
      </trkpt>
      <trkpt lat="44.84409" lon="5.39075">
        <ele>1501.61</ele>
        <time>2021-09-22T08:42:26.911Z</time>
      </trkpt>
      <trkpt lat="44.844" lon="5.39068">
        <ele>1497.07</ele>
        <time>2021-09-22T08:42:36.769Z</time>
      </trkpt>
      <trkpt lat="44.84392" lon="5.39066">
        <ele>1493.05</ele>
        <time>2021-09-22T08:42:47.000Z</time>
      </trkpt>
      <trkpt lat="44.84394" lon="5.39067">
        <ele>1494.01</ele>
        <time>2021-09-22T08:42:57.000Z</time>
      </trkpt>
      <trkpt lat="44.84392" lon="5.39067">
        <ele>1493.1</ele>
        <time>2021-09-22T08:43:07.752Z</time>
      </trkpt>
      <trkpt lat="44.84384" lon="5.39052">
        <ele>1489.11</ele>
        <time>2021-09-22T08:43:17.741Z</time>
      </trkpt>
      <trkpt lat="44.84384" lon="5.39051">
        <ele>1489.34</ele>
        <time>2021-09-22T08:43:27.752Z</time>
      </trkpt>
      <trkpt lat="44.84382" lon="5.39041">
        <ele>1488.49</ele>
        <time>2021-09-22T08:43:37.000Z</time>
      </trkpt>
      <trkpt lat="44.84383" lon="5.39033">
        <ele>1488.38</ele>
        <time>2021-09-22T08:43:46.798Z</time>
      </trkpt>
      <trkpt lat="44.84388" lon="5.39021">
        <ele>1487.95</ele>
        <time>2021-09-22T08:43:56.869Z</time>
      </trkpt>
      <trkpt lat="44.84388" lon="5.39012">
        <ele>1486.67</ele>
        <time>2021-09-22T08:44:06.766Z</time>
      </trkpt>
      <trkpt lat="44.84382" lon="5.3901">
        <ele>1486.11</ele>
        <time>2021-09-22T08:44:16.000Z</time>
      </trkpt>
      <trkpt lat="44.84383" lon="5.39011">
        <ele>1486.27</ele>
        <time>2021-09-22T08:44:33.000Z</time>
      </trkpt>
      <trkpt lat="44.84384" lon="5.3901">
        <ele>1486.25</ele>
        <time>2021-09-22T08:45:07.000Z</time>
      </trkpt>
      <trkpt lat="44.84385" lon="5.39005">
        <ele>1485.5</ele>
        <time>2021-09-22T08:45:16.755Z</time>
      </trkpt>
      <trkpt lat="44.84388" lon="5.38998">
        <ele>1484.35</ele>
        <time>2021-09-22T08:45:25.756Z</time>
      </trkpt>
      <trkpt lat="44.84393" lon="5.38994">
        <ele>1483.47</ele>
        <time>2021-09-22T08:45:34.764Z</time>
      </trkpt>
      <trkpt lat="44.84392" lon="5.38994">
        <ele>1483.42</ele>
        <time>2021-09-22T08:45:44.000Z</time>
      </trkpt>
      <trkpt lat="44.84391" lon="5.38995">
        <ele>1483.71</ele>
        <time>2021-09-22T08:45:54.000Z</time>
      </trkpt>
      <trkpt lat="44.8439" lon="5.38995">
        <ele>1483.68</ele>
        <time>2021-09-22T08:46:11.000Z</time>
      </trkpt>
      <trkpt lat="44.84388" lon="5.38993">
        <ele>1483.29</ele>
        <time>2021-09-22T08:46:20.752Z</time>
      </trkpt>
      <trkpt lat="44.84388" lon="5.38979">
        <ele>1480</ele>
        <time>2021-09-22T08:46:30.753Z</time>
      </trkpt>
      <trkpt lat="44.84392" lon="5.38969">
        <ele>1476.99</ele>
        <time>2021-09-22T08:46:39.759Z</time>
      </trkpt>
      <trkpt lat="44.84393" lon="5.38957">
        <ele>1473.42</ele>
        <time>2021-09-22T08:46:49.751Z</time>
      </trkpt>
      <trkpt lat="44.84386" lon="5.38951">
        <ele>1471.68</ele>
        <time>2021-09-22T08:46:58.765Z</time>
      </trkpt>
      <trkpt lat="44.84382" lon="5.38942">
        <ele>1468.71</ele>
        <time>2021-09-22T08:47:08.761Z</time>
      </trkpt>
      <trkpt lat="44.84378" lon="5.38939">
        <ele>1467.49</ele>
        <time>2021-09-22T08:47:18.748Z</time>
      </trkpt>
      <trkpt lat="44.84375" lon="5.38929">
        <ele>1463.83</ele>
        <time>2021-09-22T08:47:28.760Z</time>
      </trkpt>
      <trkpt lat="44.84368" lon="5.38925">
        <ele>1462.1</ele>
        <time>2021-09-22T08:47:38.749Z</time>
      </trkpt>
      <trkpt lat="44.8436" lon="5.3892">
        <ele>1459.79</ele>
        <time>2021-09-22T08:47:48.743Z</time>
      </trkpt>
      <trkpt lat="44.84355" lon="5.38913">
        <ele>1457.35</ele>
        <time>2021-09-22T08:47:57.769Z</time>
      </trkpt>
      <trkpt lat="44.84362" lon="5.38904">
        <ele>1455.26</ele>
        <time>2021-09-22T08:48:06.779Z</time>
      </trkpt>
      <trkpt lat="44.84362" lon="5.38902">
        <ele>1454.51</ele>
        <time>2021-09-22T08:48:16.000Z</time>
      </trkpt>
      <trkpt lat="44.8436" lon="5.38896">
        <ele>1452.43</ele>
        <time>2021-09-22T08:48:25.801Z</time>
      </trkpt>
      <trkpt lat="44.84358" lon="5.38889">
        <ele>1450.31</ele>
        <time>2021-09-22T08:48:35.750Z</time>
      </trkpt>
      <trkpt lat="44.84349" lon="5.38886">
        <ele>1448.53</ele>
        <time>2021-09-22T08:48:44.755Z</time>
      </trkpt>
      <trkpt lat="44.8434" lon="5.38885">
        <ele>1447.66</ele>
        <time>2021-09-22T08:48:54.248Z</time>
      </trkpt>
      <trkpt lat="44.84337" lon="5.38881">
        <ele>1446.23</ele>
        <time>2021-09-22T08:49:03.785Z</time>
      </trkpt>
      <trkpt lat="44.84326" lon="5.38872">
        <ele>1442.55</ele>
        <time>2021-09-22T08:49:13.780Z</time>
      </trkpt>
      <trkpt lat="44.84329" lon="5.38855">
        <ele>1438.05</ele>
        <time>2021-09-22T08:49:23.760Z</time>
      </trkpt>
      <trkpt lat="44.8433" lon="5.38842">
        <ele>1434.66</ele>
        <time>2021-09-22T08:49:33.756Z</time>
      </trkpt>
      <trkpt lat="44.84325" lon="5.38831">
        <ele>1431.73</ele>
        <time>2021-09-22T08:49:42.760Z</time>
      </trkpt>
      <trkpt lat="44.84321" lon="5.38815">
        <ele>1428.39</ele>
        <time>2021-09-22T08:49:52.750Z</time>
      </trkpt>
      <trkpt lat="44.84315" lon="5.38805">
        <ele>1426.22</ele>
        <time>2021-09-22T08:50:01.777Z</time>
      </trkpt>
      <trkpt lat="44.84313" lon="5.38796">
        <ele>1424.7</ele>
        <time>2021-09-22T08:50:11.746Z</time>
      </trkpt>
      <trkpt lat="44.84306" lon="5.38789">
        <ele>1423.25</ele>
        <time>2021-09-22T08:50:20.749Z</time>
      </trkpt>
      <trkpt lat="44.84296" lon="5.38787">
        <ele>1421.82</ele>
        <time>2021-09-22T08:50:30.779Z</time>
      </trkpt>
      <trkpt lat="44.84287" lon="5.38774">
        <ele>1419.58</ele>
        <time>2021-09-22T08:50:40.760Z</time>
      </trkpt>
      <trkpt lat="44.84278" lon="5.38764">
        <ele>1417.69</ele>
        <time>2021-09-22T08:50:50.780Z</time>
      </trkpt>
      <trkpt lat="44.84269" lon="5.38753">
        <ele>1415.98</ele>
        <time>2021-09-22T08:51:00.746Z</time>
      </trkpt>
      <trkpt lat="44.8426" lon="5.38745">
        <ele>1414.63</ele>
        <time>2021-09-22T08:51:09.783Z</time>
      </trkpt>
      <trkpt lat="44.84249" lon="5.38737">
        <ele>1413.51</ele>
        <time>2021-09-22T08:51:19.771Z</time>
      </trkpt>
      <trkpt lat="44.8424" lon="5.38727">
        <ele>1413.03</ele>
        <time>2021-09-22T08:51:29.742Z</time>
      </trkpt>
      <trkpt lat="44.84234" lon="5.3872">
        <ele>1413.07</ele>
        <time>2021-09-22T08:51:39.031Z</time>
      </trkpt>
      <trkpt lat="44.84231" lon="5.3872">
        <ele>1412.98</ele>
        <time>2021-09-22T08:51:49.000Z</time>
      </trkpt>
      <trkpt lat="44.84231" lon="5.38719">
        <ele>1413.07</ele>
        <time>2021-09-22T08:51:58.762Z</time>
      </trkpt>
      <trkpt lat="44.84233" lon="5.38721">
        <ele>1413</ele>
        <time>2021-09-22T08:52:08.000Z</time>
      </trkpt>
      <trkpt lat="44.84233" lon="5.3872">
        <ele>1413.08</ele>
        <time>2021-09-22T08:53:14.000Z</time>
      </trkpt>
      <trkpt lat="44.84234" lon="5.38719">
        <ele>1413.14</ele>
        <time>2021-09-22T08:53:35.000Z</time>
      </trkpt>
      <trkpt lat="44.84235" lon="5.38717">
        <ele>1413.24</ele>
        <time>2021-09-22T08:54:00.000Z</time>
      </trkpt>
      <trkpt lat="44.84238" lon="5.38715">
        <ele>1413.4</ele>
        <time>2021-09-22T08:54:10.000Z</time>
      </trkpt>
      <trkpt lat="44.84238" lon="5.38714">
        <ele>1413.46</ele>
        <time>2021-09-22T08:54:20.000Z</time>
      </trkpt>
      <trkpt lat="44.84236" lon="5.38717">
        <ele>1413.3</ele>
        <time>2021-09-22T08:54:30.000Z</time>
      </trkpt>
      <trkpt lat="44.84235" lon="5.38717">
        <ele>1413.26</ele>
        <time>2021-09-22T08:55:22.000Z</time>
      </trkpt>
      <trkpt lat="44.84234" lon="5.38717">
        <ele>1413.27</ele>
        <time>2021-09-22T08:56:39.000Z</time>
      </trkpt>
      <trkpt lat="44.84235" lon="5.38715">
        <ele>1413.34</ele>
        <time>2021-09-22T08:58:20.000Z</time>
      </trkpt>
      <trkpt lat="44.84237" lon="5.38713">
        <ele>1413.53</ele>
        <time>2021-09-22T08:58:29.509Z</time>
      </trkpt>
      <trkpt lat="44.8423" lon="5.3871">
        <ele>1413.69</ele>
        <time>2021-09-22T08:58:39.000Z</time>
      </trkpt>
      <trkpt lat="44.84237" lon="5.38702">
        <ele>1414.15</ele>
        <time>2021-09-22T08:58:48.773Z</time>
      </trkpt>
      <trkpt lat="44.84245" lon="5.38698">
        <ele>1414.16</ele>
        <time>2021-09-22T08:58:58.287Z</time>
      </trkpt>
      <trkpt lat="44.84253" lon="5.38694">
        <ele>1414.08</ele>
        <time>2021-09-22T08:59:07.759Z</time>
      </trkpt>
      <trkpt lat="44.84261" lon="5.38688">
        <ele>1413.87</ele>
        <time>2021-09-22T08:59:16.762Z</time>
      </trkpt>
      <trkpt lat="44.84268" lon="5.3868">
        <ele>1413.46</ele>
        <time>2021-09-22T08:59:25.764Z</time>
      </trkpt>
      <trkpt lat="44.84276" lon="5.38671">
        <ele>1412.72</ele>
        <time>2021-09-22T08:59:35.769Z</time>
      </trkpt>
      <trkpt lat="44.84285" lon="5.38665">
        <ele>1411.75</ele>
        <time>2021-09-22T08:59:45.751Z</time>
      </trkpt>
      <trkpt lat="44.84295" lon="5.3866">
        <ele>1410.54</ele>
        <time>2021-09-22T08:59:55.778Z</time>
      </trkpt>
      <trkpt lat="44.84308" lon="5.38651">
        <ele>1408.84</ele>
        <time>2021-09-22T09:00:05.756Z</time>
      </trkpt>
      <trkpt lat="44.84312" lon="5.38644">
        <ele>1408.09</ele>
        <time>2021-09-22T09:00:14.783Z</time>
      </trkpt>
      <trkpt lat="44.84324" lon="5.38644">
        <ele>1406.71</ele>
        <time>2021-09-22T09:00:24.773Z</time>
      </trkpt>
      <trkpt lat="44.84335" lon="5.38642">
        <ele>1405.39</ele>
        <time>2021-09-22T09:00:34.468Z</time>
      </trkpt>
      <trkpt lat="44.84345" lon="5.38638">
        <ele>1404.05</ele>
        <time>2021-09-22T09:00:43.773Z</time>
      </trkpt>
      <trkpt lat="44.84356" lon="5.38632">
        <ele>1402.51</ele>
        <time>2021-09-22T09:00:53.760Z</time>
      </trkpt>
      <trkpt lat="44.84364" lon="5.38625">
        <ele>1401.17</ele>
        <time>2021-09-22T09:01:02.774Z</time>
      </trkpt>
      <trkpt lat="44.84374" lon="5.38617">
        <ele>1399.58</ele>
        <time>2021-09-22T09:01:12.754Z</time>
      </trkpt>
      <trkpt lat="44.84382" lon="5.38611">
        <ele>1398.23</ele>
        <time>2021-09-22T09:01:21.768Z</time>
      </trkpt>
      <trkpt lat="44.84391" lon="5.386">
        <ele>1396.72</ele>
        <time>2021-09-22T09:01:31.765Z</time>
      </trkpt>
      <trkpt lat="44.84401" lon="5.3859">
        <ele>1395.16</ele>
        <time>2021-09-22T09:01:41.774Z</time>
      </trkpt>
      <trkpt lat="44.84411" lon="5.38579">
        <ele>1393.9</ele>
        <time>2021-09-22T09:01:51.777Z</time>
      </trkpt>
      <trkpt lat="44.84419" lon="5.3857">
        <ele>1393.09</ele>
        <time>2021-09-22T09:02:00.789Z</time>
      </trkpt>
      <trkpt lat="44.8443" lon="5.3856">
        <ele>1392.4</ele>
        <time>2021-09-22T09:02:10.764Z</time>
      </trkpt>
      <trkpt lat="44.84437" lon="5.38548">
        <ele>1392.49</ele>
        <time>2021-09-22T09:02:19.770Z</time>
      </trkpt>
      <trkpt lat="44.84444" lon="5.38536">
        <ele>1392.96</ele>
        <time>2021-09-22T09:02:29.766Z</time>
      </trkpt>
      <trkpt lat="44.84451" lon="5.38525">
        <ele>1393.19</ele>
        <time>2021-09-22T09:02:39.821Z</time>
      </trkpt>
      <trkpt lat="44.84458" lon="5.38514">
        <ele>1393.52</ele>
        <time>2021-09-22T09:02:48.919Z</time>
      </trkpt>
      <trkpt lat="44.84464" lon="5.38499">
        <ele>1393.91</ele>
        <time>2021-09-22T09:02:58.786Z</time>
      </trkpt>
      <trkpt lat="44.84471" lon="5.38487">
        <ele>1393.7</ele>
        <time>2021-09-22T09:03:08.766Z</time>
      </trkpt>
      <trkpt lat="44.84478" lon="5.38474">
        <ele>1393.83</ele>
        <time>2021-09-22T09:03:17.781Z</time>
      </trkpt>
      <trkpt lat="44.84484" lon="5.38459">
        <ele>1394.15</ele>
        <time>2021-09-22T09:03:27.761Z</time>
      </trkpt>
      <trkpt lat="44.84488" lon="5.38445">
        <ele>1394.6</ele>
        <time>2021-09-22T09:03:36.769Z</time>
      </trkpt>
      <trkpt lat="44.84493" lon="5.38431">
        <ele>1394.67</ele>
        <time>2021-09-22T09:03:46.772Z</time>
      </trkpt>
      <trkpt lat="44.84496" lon="5.38415">
        <ele>1394.66</ele>
        <time>2021-09-22T09:03:56.759Z</time>
      </trkpt>
      <trkpt lat="44.84493" lon="5.384">
        <ele>1395.25</ele>
        <time>2021-09-22T09:04:06.748Z</time>
      </trkpt>
      <trkpt lat="44.8449" lon="5.38386">
        <ele>1395.25</ele>
        <time>2021-09-22T09:04:16.225Z</time>
      </trkpt>
      <trkpt lat="44.84487" lon="5.38371">
        <ele>1395.07</ele>
        <time>2021-09-22T09:04:25.767Z</time>
      </trkpt>
      <trkpt lat="44.84484" lon="5.38358">
        <ele>1394.79</ele>
        <time>2021-09-22T09:04:35.524Z</time>
      </trkpt>
      <trkpt lat="44.84477" lon="5.38346">
        <ele>1395.09</ele>
        <time>2021-09-22T09:04:44.775Z</time>
      </trkpt>
      <trkpt lat="44.84471" lon="5.38336">
        <ele>1395.37</ele>
        <time>2021-09-22T09:04:53.778Z</time>
      </trkpt>
      <trkpt lat="44.84466" lon="5.38322">
        <ele>1395.29</ele>
        <time>2021-09-22T09:05:03.463Z</time>
      </trkpt>
      <trkpt lat="44.84459" lon="5.38311">
        <ele>1395.4</ele>
        <time>2021-09-22T09:05:12.877Z</time>
      </trkpt>
      <trkpt lat="44.8445" lon="5.38299">
        <ele>1395.9</ele>
        <time>2021-09-22T09:05:22.764Z</time>
      </trkpt>
      <trkpt lat="44.84441" lon="5.38287">
        <ele>1396.26</ele>
        <time>2021-09-22T09:05:32.704Z</time>
      </trkpt>
      <trkpt lat="44.84433" lon="5.38278">
        <ele>1396.89</ele>
        <time>2021-09-22T09:05:41.766Z</time>
      </trkpt>
      <trkpt lat="44.84423" lon="5.3827">
        <ele>1397.79</ele>
        <time>2021-09-22T09:05:51.224Z</time>
      </trkpt>
      <trkpt lat="44.84413" lon="5.3826">
        <ele>1398.81</ele>
        <time>2021-09-22T09:06:00.763Z</time>
      </trkpt>
      <trkpt lat="44.84405" lon="5.38247">
        <ele>1399.41</ele>
        <time>2021-09-22T09:06:10.284Z</time>
      </trkpt>
      <trkpt lat="44.844" lon="5.38232">
        <ele>1400.02</ele>
        <time>2021-09-22T09:06:19.771Z</time>
      </trkpt>
      <trkpt lat="44.84397" lon="5.38216">
        <ele>1400.65</ele>
        <time>2021-09-22T09:06:29.341Z</time>
      </trkpt>
      <trkpt lat="44.84402" lon="5.382">
        <ele>1400.43</ele>
        <time>2021-09-22T09:06:38.758Z</time>
      </trkpt>
      <trkpt lat="44.84412" lon="5.3819">
        <ele>1399.36</ele>
        <time>2021-09-22T09:06:47.764Z</time>
      </trkpt>
      <trkpt lat="44.84419" lon="5.38178">
        <ele>1398.73</ele>
        <time>2021-09-22T09:06:56.770Z</time>
      </trkpt>
      <trkpt lat="44.84428" lon="5.3817">
        <ele>1397.6</ele>
        <time>2021-09-22T09:07:05.807Z</time>
      </trkpt>
      <trkpt lat="44.84437" lon="5.38158">
        <ele>1396.87</ele>
        <time>2021-09-22T09:07:15.775Z</time>
      </trkpt>
      <trkpt lat="44.84441" lon="5.38144">
        <ele>1397.84</ele>
        <time>2021-09-22T09:07:24.778Z</time>
      </trkpt>
      <trkpt lat="44.8445" lon="5.38133">
        <ele>1398.11</ele>
        <time>2021-09-22T09:07:34.924Z</time>
      </trkpt>
      <trkpt lat="44.84459" lon="5.38124">
        <ele>1398.03</ele>
        <time>2021-09-22T09:07:44.324Z</time>
      </trkpt>
      <trkpt lat="44.84467" lon="5.38117">
        <ele>1397.85</ele>
        <time>2021-09-22T09:07:53.870Z</time>
      </trkpt>
      <trkpt lat="44.84474" lon="5.38103">
        <ele>1399.61</ele>
        <time>2021-09-22T09:08:03.764Z</time>
      </trkpt>
      <trkpt lat="44.84483" lon="5.38095">
        <ele>1399.8</ele>
        <time>2021-09-22T09:08:12.772Z</time>
      </trkpt>
      <trkpt lat="44.84493" lon="5.38088">
        <ele>1399.88</ele>
        <time>2021-09-22T09:08:22.810Z</time>
      </trkpt>
      <trkpt lat="44.84504" lon="5.38083">
        <ele>1399.63</ele>
        <time>2021-09-22T09:08:32.751Z</time>
      </trkpt>
      <trkpt lat="44.84514" lon="5.38078">
        <ele>1399.79</ele>
        <time>2021-09-22T09:08:42.744Z</time>
      </trkpt>
      <trkpt lat="44.84525" lon="5.38073">
        <ele>1399.95</ele>
        <time>2021-09-22T09:08:51.788Z</time>
      </trkpt>
      <trkpt lat="44.84537" lon="5.38069">
        <ele>1400.18</ele>
        <time>2021-09-22T09:09:01.602Z</time>
      </trkpt>
      <trkpt lat="44.84549" lon="5.38072">
        <ele>1399.38</ele>
        <time>2021-09-22T09:09:10.765Z</time>
      </trkpt>
      <trkpt lat="44.84561" lon="5.38069">
        <ele>1399.71</ele>
        <time>2021-09-22T09:09:19.802Z</time>
      </trkpt>
      <trkpt lat="44.84569" lon="5.38063">
        <ele>1400.66</ele>
        <time>2021-09-22T09:09:29.184Z</time>
      </trkpt>
      <trkpt lat="44.84574" lon="5.38052">
        <ele>1402.76</ele>
        <time>2021-09-22T09:09:38.422Z</time>
      </trkpt>
      <trkpt lat="44.84574" lon="5.38037">
        <ele>1405.64</ele>
        <time>2021-09-22T09:09:47.979Z</time>
      </trkpt>
      <trkpt lat="44.84574" lon="5.38012">
        <ele>1409.29</ele>
        <time>2021-09-22T09:09:57.782Z</time>
      </trkpt>
      <trkpt lat="44.84572" lon="5.37997">
        <ele>1410.37</ele>
        <time>2021-09-22T09:10:07.775Z</time>
      </trkpt>
      <trkpt lat="44.8456" lon="5.37992">
        <ele>1410.76</ele>
        <time>2021-09-22T09:10:17.767Z</time>
      </trkpt>
      <trkpt lat="44.84548" lon="5.37988">
        <ele>1411.07</ele>
        <time>2021-09-22T09:10:27.224Z</time>
      </trkpt>
      <trkpt lat="44.84538" lon="5.37981">
        <ele>1411.47</ele>
        <time>2021-09-22T09:10:36.774Z</time>
      </trkpt>
      <trkpt lat="44.84528" lon="5.37977">
        <ele>1411.86</ele>
        <time>2021-09-22T09:10:46.787Z</time>
      </trkpt>
      <trkpt lat="44.84514" lon="5.37982">
        <ele>1412.29</ele>
        <time>2021-09-22T09:10:56.763Z</time>
      </trkpt>
      <trkpt lat="44.84489" lon="5.37978">
        <ele>1414.18</ele>
        <time>2021-09-22T09:11:06.812Z</time>
      </trkpt>
      <trkpt lat="44.84487" lon="5.37971">
        <ele>1414.65</ele>
        <time>2021-09-22T09:11:16.766Z</time>
      </trkpt>
      <trkpt lat="44.84485" lon="5.37958">
        <ele>1415.12</ele>
        <time>2021-09-22T09:11:26.676Z</time>
      </trkpt>
      <trkpt lat="44.84482" lon="5.37946">
        <ele>1415.37</ele>
        <time>2021-09-22T09:11:36.043Z</time>
      </trkpt>
      <trkpt lat="44.84478" lon="5.37932">
        <ele>1415.37</ele>
        <time>2021-09-22T09:11:45.418Z</time>
      </trkpt>
      <trkpt lat="44.84468" lon="5.37922">
        <ele>1415.71</ele>
        <time>2021-09-22T09:11:54.758Z</time>
      </trkpt>
      <trkpt lat="44.8446" lon="5.37914">
        <ele>1415.77</ele>
        <time>2021-09-22T09:12:04.241Z</time>
      </trkpt>
      <trkpt lat="44.84452" lon="5.379">
        <ele>1414.87</ele>
        <time>2021-09-22T09:12:13.766Z</time>
      </trkpt>
      <trkpt lat="44.84446" lon="5.37888">
        <ele>1413.71</ele>
        <time>2021-09-22T09:12:22.783Z</time>
      </trkpt>
      <trkpt lat="44.84438" lon="5.37876">
        <ele>1412.68</ele>
        <time>2021-09-22T09:12:32.769Z</time>
      </trkpt>
      <trkpt lat="44.84432" lon="5.37864">
        <ele>1411.43</ele>
        <time>2021-09-22T09:12:41.788Z</time>
      </trkpt>
      <trkpt lat="44.84423" lon="5.37852">
        <ele>1410.51</ele>
        <time>2021-09-22T09:12:51.752Z</time>
      </trkpt>
      <trkpt lat="44.84416" lon="5.37841">
        <ele>1409.56</ele>
        <time>2021-09-22T09:13:00.768Z</time>
      </trkpt>
      <trkpt lat="44.84407" lon="5.37832">
        <ele>1409.16</ele>
        <time>2021-09-22T09:13:09.770Z</time>
      </trkpt>
      <trkpt lat="44.84404" lon="5.37819">
        <ele>1407.19</ele>
        <time>2021-09-22T09:13:19.773Z</time>
      </trkpt>
      <trkpt lat="44.84396" lon="5.37811">
        <ele>1406.75</ele>
        <time>2021-09-22T09:13:28.789Z</time>
      </trkpt>
      <trkpt lat="44.84384" lon="5.37804">
        <ele>1407.2</ele>
        <time>2021-09-22T09:13:38.747Z</time>
      </trkpt>
      <trkpt lat="44.84375" lon="5.37796">
        <ele>1406.9</ele>
        <time>2021-09-22T09:13:48.181Z</time>
      </trkpt>
      <trkpt lat="44.84364" lon="5.37787">
        <ele>1406.76</ele>
        <time>2021-09-22T09:13:57.781Z</time>
      </trkpt>
      <trkpt lat="44.84354" lon="5.37776">
        <ele>1406.09</ele>
        <time>2021-09-22T09:14:07.765Z</time>
      </trkpt>
      <trkpt lat="44.84344" lon="5.37769">
        <ele>1406.3</ele>
        <time>2021-09-22T09:14:18.000Z</time>
      </trkpt>
      <trkpt lat="44.84346" lon="5.37765">
        <ele>1405.15</ele>
        <time>2021-09-22T09:14:27.752Z</time>
      </trkpt>
      <trkpt lat="44.84334" lon="5.37755">
        <ele>1405.23</ele>
        <time>2021-09-22T09:14:37.744Z</time>
      </trkpt>
      <trkpt lat="44.84324" lon="5.37753">
        <ele>1406.55</ele>
        <time>2021-09-22T09:14:46.764Z</time>
      </trkpt>
      <trkpt lat="44.84312" lon="5.37745">
        <ele>1406.98</ele>
        <time>2021-09-22T09:14:56.762Z</time>
      </trkpt>
      <trkpt lat="44.84306" lon="5.37736">
        <ele>1406.15</ele>
        <time>2021-09-22T09:15:05.777Z</time>
      </trkpt>
      <trkpt lat="44.84294" lon="5.37729">
        <ele>1406.79</ele>
        <time>2021-09-22T09:15:15.220Z</time>
      </trkpt>
      <trkpt lat="44.84283" lon="5.3772">
        <ele>1406.6</ele>
        <time>2021-09-22T09:15:24.777Z</time>
      </trkpt>
      <trkpt lat="44.84271" lon="5.3771">
        <ele>1405.8</ele>
        <time>2021-09-22T09:15:34.303Z</time>
      </trkpt>
      <trkpt lat="44.84259" lon="5.37701">
        <ele>1405.38</ele>
        <time>2021-09-22T09:15:43.770Z</time>
      </trkpt>
      <trkpt lat="44.84249" lon="5.37694">
        <ele>1404.72</ele>
        <time>2021-09-22T09:15:52.777Z</time>
      </trkpt>
      <trkpt lat="44.84239" lon="5.37684">
        <ele>1403.12</ele>
        <time>2021-09-22T09:16:02.758Z</time>
      </trkpt>
      <trkpt lat="44.84228" lon="5.37679">
        <ele>1403.46</ele>
        <time>2021-09-22T09:16:11.810Z</time>
      </trkpt>
      <trkpt lat="44.84215" lon="5.37677">
        <ele>1404.76</ele>
        <time>2021-09-22T09:16:21.760Z</time>
      </trkpt>
      <trkpt lat="44.84203" lon="5.37669">
        <ele>1404.21</ele>
        <time>2021-09-22T09:16:31.759Z</time>
      </trkpt>
      <trkpt lat="44.84192" lon="5.37661">
        <ele>1403.2</ele>
        <time>2021-09-22T09:16:40.776Z</time>
      </trkpt>
      <trkpt lat="44.84181" lon="5.37654">
        <ele>1402.85</ele>
        <time>2021-09-22T09:16:50.760Z</time>
      </trkpt>
      <trkpt lat="44.84168" lon="5.3765">
        <ele>1403.26</ele>
        <time>2021-09-22T09:17:00.347Z</time>
      </trkpt>
      <trkpt lat="44.84156" lon="5.37648">
        <ele>1404.49</ele>
        <time>2021-09-22T09:17:09.756Z</time>
      </trkpt>
      <trkpt lat="44.84144" lon="5.37648">
        <ele>1406.27</ele>
        <time>2021-09-22T09:17:18.776Z</time>
      </trkpt>
      <trkpt lat="44.84133" lon="5.37642">
        <ele>1405.86</ele>
        <time>2021-09-22T09:17:28.790Z</time>
      </trkpt>
      <trkpt lat="44.84121" lon="5.37636">
        <ele>1405.22</ele>
        <time>2021-09-22T09:17:38.777Z</time>
      </trkpt>
      <trkpt lat="44.84108" lon="5.37636">
        <ele>1407.14</ele>
        <time>2021-09-22T09:17:48.620Z</time>
      </trkpt>
      <trkpt lat="44.84096" lon="5.37633">
        <ele>1407.99</ele>
        <time>2021-09-22T09:17:57.754Z</time>
      </trkpt>
      <trkpt lat="44.84084" lon="5.37627">
        <ele>1407.72</ele>
        <time>2021-09-22T09:18:06.775Z</time>
      </trkpt>
      <trkpt lat="44.84073" lon="5.37621">
        <ele>1407.36</ele>
        <time>2021-09-22T09:18:16.328Z</time>
      </trkpt>
      <trkpt lat="44.84061" lon="5.37613">
        <ele>1406.43</ele>
        <time>2021-09-22T09:18:25.760Z</time>
      </trkpt>
      <trkpt lat="44.84049" lon="5.37606">
        <ele>1405.92</ele>
        <time>2021-09-22T09:18:35.764Z</time>
      </trkpt>
      <trkpt lat="44.84038" lon="5.376">
        <ele>1405.31</ele>
        <time>2021-09-22T09:18:45.795Z</time>
      </trkpt>
      <trkpt lat="44.84027" lon="5.37593">
        <ele>1404.7</ele>
        <time>2021-09-22T09:18:55.771Z</time>
      </trkpt>
      <trkpt lat="44.84015" lon="5.37588">
        <ele>1405.1</ele>
        <time>2021-09-22T09:19:05.760Z</time>
      </trkpt>
      <trkpt lat="44.84004" lon="5.37583">
        <ele>1405.22</ele>
        <time>2021-09-22T09:19:14.772Z</time>
      </trkpt>
      <trkpt lat="44.83993" lon="5.37575">
        <ele>1404.31</ele>
        <time>2021-09-22T09:19:24.762Z</time>
      </trkpt>
      <trkpt lat="44.83983" lon="5.3757">
        <ele>1404.39</ele>
        <time>2021-09-22T09:19:33.766Z</time>
      </trkpt>
      <trkpt lat="44.83971" lon="5.37565">
        <ele>1405.12</ele>
        <time>2021-09-22T09:19:42.780Z</time>
      </trkpt>
      <trkpt lat="44.8396" lon="5.3756">
        <ele>1405.43</ele>
        <time>2021-09-22T09:19:52.758Z</time>
      </trkpt>
      <trkpt lat="44.83949" lon="5.37553">
        <ele>1405.04</ele>
        <time>2021-09-22T09:20:01.760Z</time>
      </trkpt>
      <trkpt lat="44.83938" lon="5.37547">
        <ele>1404.42</ele>
        <time>2021-09-22T09:20:11.801Z</time>
      </trkpt>
      <trkpt lat="44.83926" lon="5.37541">
        <ele>1403.82</ele>
        <time>2021-09-22T09:20:21.748Z</time>
      </trkpt>
      <trkpt lat="44.83915" lon="5.37536">
        <ele>1403.88</ele>
        <time>2021-09-22T09:20:30.768Z</time>
      </trkpt>
      <trkpt lat="44.83902" lon="5.37533">
        <ele>1404.32</ele>
        <time>2021-09-22T09:20:40.784Z</time>
      </trkpt>
      <trkpt lat="44.83887" lon="5.37528">
        <ele>1404.19</ele>
        <time>2021-09-22T09:20:50.757Z</time>
      </trkpt>
      <trkpt lat="44.83877" lon="5.37521">
        <ele>1402.64</ele>
        <time>2021-09-22T09:21:00.774Z</time>
      </trkpt>
      <trkpt lat="44.83865" lon="5.37515">
        <ele>1401.76</ele>
        <time>2021-09-22T09:21:09.775Z</time>
      </trkpt>
      <trkpt lat="44.83852" lon="5.37509">
        <ele>1401.2</ele>
        <time>2021-09-22T09:21:19.767Z</time>
      </trkpt>
      <trkpt lat="44.83841" lon="5.37503">
        <ele>1400.86</ele>
        <time>2021-09-22T09:21:29.773Z</time>
      </trkpt>
      <trkpt lat="44.83829" lon="5.37498">
        <ele>1401.06</ele>
        <time>2021-09-22T09:21:38.776Z</time>
      </trkpt>
      <trkpt lat="44.83818" lon="5.37491">
        <ele>1400.85</ele>
        <time>2021-09-22T09:21:48.518Z</time>
      </trkpt>
      <trkpt lat="44.83805" lon="5.37485">
        <ele>1401.59</ele>
        <time>2021-09-22T09:21:57.764Z</time>
      </trkpt>
      <trkpt lat="44.83794" lon="5.3748">
        <ele>1402.23</ele>
        <time>2021-09-22T09:22:06.769Z</time>
      </trkpt>
      <trkpt lat="44.83782" lon="5.37474">
        <ele>1402.72</ele>
        <time>2021-09-22T09:22:16.759Z</time>
      </trkpt>
      <trkpt lat="44.83772" lon="5.37469">
        <ele>1403.03</ele>
        <time>2021-09-22T09:22:25.777Z</time>
      </trkpt>
      <trkpt lat="44.8376" lon="5.37463">
        <ele>1403</ele>
        <time>2021-09-22T09:22:35.803Z</time>
      </trkpt>
      <trkpt lat="44.83748" lon="5.37457">
        <ele>1402.94</ele>
        <time>2021-09-22T09:22:45.778Z</time>
      </trkpt>
      <trkpt lat="44.83737" lon="5.3745">
        <ele>1402</ele>
        <time>2021-09-22T09:22:54.779Z</time>
      </trkpt>
      <trkpt lat="44.83725" lon="5.37445">
        <ele>1402.02</ele>
        <time>2021-09-22T09:23:04.769Z</time>
      </trkpt>
      <trkpt lat="44.83713" lon="5.37439">
        <ele>1401.91</ele>
        <time>2021-09-22T09:23:14.768Z</time>
      </trkpt>
      <trkpt lat="44.83701" lon="5.37434">
        <ele>1401.93</ele>
        <time>2021-09-22T09:23:24.772Z</time>
      </trkpt>
      <trkpt lat="44.83689" lon="5.3743">
        <ele>1402.55</ele>
        <time>2021-09-22T09:23:33.777Z</time>
      </trkpt>
      <trkpt lat="44.83679" lon="5.37426">
        <ele>1402.57</ele>
        <time>2021-09-22T09:23:42.813Z</time>
      </trkpt>
      <trkpt lat="44.83666" lon="5.37416">
        <ele>1400.91</ele>
        <time>2021-09-22T09:23:52.763Z</time>
      </trkpt>
      <trkpt lat="44.83653" lon="5.37409">
        <ele>1400.39</ele>
        <time>2021-09-22T09:24:02.763Z</time>
      </trkpt>
      <trkpt lat="44.83642" lon="5.37402">
        <ele>1399.33</ele>
        <time>2021-09-22T09:24:11.766Z</time>
      </trkpt>
      <trkpt lat="44.83628" lon="5.37397">
        <ele>1399.54</ele>
        <time>2021-09-22T09:24:21.767Z</time>
      </trkpt>
      <trkpt lat="44.83617" lon="5.37394">
        <ele>1400.12</ele>
        <time>2021-09-22T09:24:30.770Z</time>
      </trkpt>
      <trkpt lat="44.83605" lon="5.3739">
        <ele>1400.06</ele>
        <time>2021-09-22T09:24:40.771Z</time>
      </trkpt>
      <trkpt lat="44.83593" lon="5.37384">
        <ele>1399.51</ele>
        <time>2021-09-22T09:24:50.775Z</time>
      </trkpt>
      <trkpt lat="44.8358" lon="5.37379">
        <ele>1399.09</ele>
        <time>2021-09-22T09:25:00.776Z</time>
      </trkpt>
      <trkpt lat="44.83568" lon="5.37374">
        <ele>1398.79</ele>
        <time>2021-09-22T09:25:10.769Z</time>
      </trkpt>
      <trkpt lat="44.83556" lon="5.37373">
        <ele>1399.57</ele>
        <time>2021-09-22T09:25:20.765Z</time>
      </trkpt>
      <trkpt lat="44.83543" lon="5.37374">
        <ele>1401.49</ele>
        <time>2021-09-22T09:25:30.519Z</time>
      </trkpt>
      <trkpt lat="44.83532" lon="5.3737">
        <ele>1401.38</ele>
        <time>2021-09-22T09:25:39.769Z</time>
      </trkpt>
      <trkpt lat="44.83522" lon="5.37367">
        <ele>1401.44</ele>
        <time>2021-09-22T09:25:49.197Z</time>
      </trkpt>
      <trkpt lat="44.8351" lon="5.37361">
        <ele>1400.83</ele>
        <time>2021-09-22T09:25:58.760Z</time>
      </trkpt>
      <trkpt lat="44.83499" lon="5.37357">
        <ele>1400.89</ele>
        <time>2021-09-22T09:26:07.775Z</time>
      </trkpt>
      <trkpt lat="44.83487" lon="5.37352">
        <ele>1401.15</ele>
        <time>2021-09-22T09:26:17.764Z</time>
      </trkpt>
      <trkpt lat="44.83476" lon="5.37349">
        <ele>1401.97</ele>
        <time>2021-09-22T09:26:26.769Z</time>
      </trkpt>
      <trkpt lat="44.83464" lon="5.37344">
        <ele>1402.49</ele>
        <time>2021-09-22T09:26:36.759Z</time>
      </trkpt>
      <trkpt lat="44.83455" lon="5.37337">
        <ele>1401.48</ele>
        <time>2021-09-22T09:26:45.769Z</time>
      </trkpt>
      <trkpt lat="44.83443" lon="5.37329">
        <ele>1401.01</ele>
        <time>2021-09-22T09:26:55.765Z</time>
      </trkpt>
      <trkpt lat="44.83432" lon="5.37326">
        <ele>1401.77</ele>
        <time>2021-09-22T09:27:05.425Z</time>
      </trkpt>
      <trkpt lat="44.83421" lon="5.3732">
        <ele>1401.61</ele>
        <time>2021-09-22T09:27:14.769Z</time>
      </trkpt>
      <trkpt lat="44.83409" lon="5.37314">
        <ele>1400.88</ele>
        <time>2021-09-22T09:27:24.763Z</time>
      </trkpt>
      <trkpt lat="44.83397" lon="5.37307">
        <ele>1399.79</ele>
        <time>2021-09-22T09:27:34.760Z</time>
      </trkpt>
      <trkpt lat="44.83384" lon="5.37303">
        <ele>1399.33</ele>
        <time>2021-09-22T09:27:44.262Z</time>
      </trkpt>
      <trkpt lat="44.83373" lon="5.37298">
        <ele>1398.5</ele>
        <time>2021-09-22T09:27:53.768Z</time>
      </trkpt>
      <trkpt lat="44.83361" lon="5.3729">
        <ele>1396.58</ele>
        <time>2021-09-22T09:28:03.771Z</time>
      </trkpt>
      <trkpt lat="44.8335" lon="5.37282">
        <ele>1394.82</ele>
        <time>2021-09-22T09:28:13.759Z</time>
      </trkpt>
      <trkpt lat="44.83339" lon="5.37274">
        <ele>1393.16</ele>
        <time>2021-09-22T09:28:22.769Z</time>
      </trkpt>
      <trkpt lat="44.83329" lon="5.37264">
        <ele>1391.29</ele>
        <time>2021-09-22T09:28:32.771Z</time>
      </trkpt>
      <trkpt lat="44.83321" lon="5.37254">
        <ele>1389.87</ele>
        <time>2021-09-22T09:28:41.775Z</time>
      </trkpt>
      <trkpt lat="44.83312" lon="5.37244">
        <ele>1388.79</ele>
        <time>2021-09-22T09:28:50.778Z</time>
      </trkpt>
      <trkpt lat="44.83306" lon="5.37234">
        <ele>1387.62</ele>
        <time>2021-09-22T09:29:00.182Z</time>
      </trkpt>
      <trkpt lat="44.833" lon="5.37221">
        <ele>1385.54</ele>
        <time>2021-09-22T09:29:09.597Z</time>
      </trkpt>
      <trkpt lat="44.83298" lon="5.37209">
        <ele>1382.95</ele>
        <time>2021-09-22T09:29:18.772Z</time>
      </trkpt>
      <trkpt lat="44.83293" lon="5.37197">
        <ele>1381.03</ele>
        <time>2021-09-22T09:29:28.753Z</time>
      </trkpt>
      <trkpt lat="44.83284" lon="5.37188">
        <ele>1380.95</ele>
        <time>2021-09-22T09:29:37.762Z</time>
      </trkpt>
      <trkpt lat="44.83278" lon="5.37175">
        <ele>1378.81</ele>
        <time>2021-09-22T09:29:48.226Z</time>
      </trkpt>
      <trkpt lat="44.83273" lon="5.37161">
        <ele>1376.31</ele>
        <time>2021-09-22T09:29:57.444Z</time>
      </trkpt>
      <trkpt lat="44.83268" lon="5.37147">
        <ele>1374.39</ele>
        <time>2021-09-22T09:30:06.759Z</time>
      </trkpt>
      <trkpt lat="44.83261" lon="5.37136">
        <ele>1373.47</ele>
        <time>2021-09-22T09:30:15.767Z</time>
      </trkpt>
      <trkpt lat="44.83252" lon="5.37122">
        <ele>1372.47</ele>
        <time>2021-09-22T09:30:25.768Z</time>
      </trkpt>
      <trkpt lat="44.83243" lon="5.37111">
        <ele>1372.15</ele>
        <time>2021-09-22T09:30:34.787Z</time>
      </trkpt>
      <trkpt lat="44.83234" lon="5.371">
        <ele>1371.49</ele>
        <time>2021-09-22T09:30:44.766Z</time>
      </trkpt>
      <trkpt lat="44.83228" lon="5.37087">
        <ele>1369.56</ele>
        <time>2021-09-22T09:30:54.782Z</time>
      </trkpt>
      <trkpt lat="44.83221" lon="5.37073">
        <ele>1367.43</ele>
        <time>2021-09-22T09:31:04.771Z</time>
      </trkpt>
      <trkpt lat="44.83211" lon="5.37061">
        <ele>1366.14</ele>
        <time>2021-09-22T09:31:14.761Z</time>
      </trkpt>
      <trkpt lat="44.83202" lon="5.37053">
        <ele>1365.59</ele>
        <time>2021-09-22T09:31:23.780Z</time>
      </trkpt>
      <trkpt lat="44.83196" lon="5.37041">
        <ele>1363.46</ele>
        <time>2021-09-22T09:31:32.793Z</time>
      </trkpt>
      <trkpt lat="44.83186" lon="5.37028">
        <ele>1361.55</ele>
        <time>2021-09-22T09:31:42.776Z</time>
      </trkpt>
      <trkpt lat="44.83179" lon="5.37016">
        <ele>1359.81</ele>
        <time>2021-09-22T09:31:51.778Z</time>
      </trkpt>
      <trkpt lat="44.8317" lon="5.37004">
        <ele>1358.21</ele>
        <time>2021-09-22T09:32:01.788Z</time>
      </trkpt>
      <trkpt lat="44.83162" lon="5.36991">
        <ele>1356.47</ele>
        <time>2021-09-22T09:32:11.762Z</time>
      </trkpt>
      <trkpt lat="44.83155" lon="5.36979">
        <ele>1354.59</ele>
        <time>2021-09-22T09:32:20.771Z</time>
      </trkpt>
      <trkpt lat="44.83146" lon="5.36969">
        <ele>1353.8</ele>
        <time>2021-09-22T09:32:29.805Z</time>
      </trkpt>
      <trkpt lat="44.83137" lon="5.36958">
        <ele>1352.55</ele>
        <time>2021-09-22T09:32:39.822Z</time>
      </trkpt>
      <trkpt lat="44.83142" lon="5.36956">
        <ele>1351.1</ele>
        <time>2021-09-22T09:32:49.000Z</time>
      </trkpt>
      <trkpt lat="44.83143" lon="5.36957">
        <ele>1351.32</ele>
        <time>2021-09-22T09:32:58.758Z</time>
      </trkpt>
      <trkpt lat="44.83143" lon="5.36962">
        <ele>1352.48</ele>
        <time>2021-09-22T09:33:07.761Z</time>
      </trkpt>
      <trkpt lat="44.83144" lon="5.36963">
        <ele>1352.65</ele>
        <time>2021-09-22T09:33:17.000Z</time>
      </trkpt>
      <trkpt lat="44.83144" lon="5.36965">
        <ele>1353.01</ele>
        <time>2021-09-22T09:33:26.185Z</time>
      </trkpt>
      <trkpt lat="44.83143" lon="5.36965">
        <ele>1353.35</ele>
        <time>2021-09-22T09:33:35.761Z</time>
      </trkpt>
      <trkpt lat="44.83138" lon="5.36953">
        <ele>1351.11</ele>
        <time>2021-09-22T09:33:44.768Z</time>
      </trkpt>
      <trkpt lat="44.83136" lon="5.3695">
        <ele>1350.79</ele>
        <time>2021-09-22T09:33:54.777Z</time>
      </trkpt>
      <trkpt lat="44.83126" lon="5.36938">
        <ele>1349.7</ele>
        <time>2021-09-22T09:34:04.765Z</time>
      </trkpt>
      <trkpt lat="44.83118" lon="5.36929">
        <ele>1348.87</ele>
        <time>2021-09-22T09:34:13.772Z</time>
      </trkpt>
      <trkpt lat="44.8311" lon="5.36921">
        <ele>1348.32</ele>
        <time>2021-09-22T09:34:23.763Z</time>
      </trkpt>
      <trkpt lat="44.83106" lon="5.3692">
        <ele>1348.78</ele>
        <time>2021-09-22T09:34:32.767Z</time>
      </trkpt>
      <trkpt lat="44.83103" lon="5.36902">
        <ele>1344.49</ele>
        <time>2021-09-22T09:34:41.787Z</time>
      </trkpt>
      <trkpt lat="44.83095" lon="5.36894">
        <ele>1344</ele>
        <time>2021-09-22T09:34:51.147Z</time>
      </trkpt>
      <trkpt lat="44.83088" lon="5.36882">
        <ele>1341.72</ele>
        <time>2021-09-22T09:35:00.758Z</time>
      </trkpt>
      <trkpt lat="44.83078" lon="5.36873">
        <ele>1340.68</ele>
        <time>2021-09-22T09:35:09.764Z</time>
      </trkpt>
      <trkpt lat="44.83073" lon="5.36856">
        <ele>1336.74</ele>
        <time>2021-09-22T09:35:19.750Z</time>
      </trkpt>
      <trkpt lat="44.83066" lon="5.3684">
        <ele>1333.65</ele>
        <time>2021-09-22T09:35:28.752Z</time>
      </trkpt>
      <trkpt lat="44.83062" lon="5.36825">
        <ele>1330.03</ele>
        <time>2021-09-22T09:35:37.767Z</time>
      </trkpt>
      <trkpt lat="44.83051" lon="5.36812">
        <ele>1328.21</ele>
        <time>2021-09-22T09:35:47.760Z</time>
      </trkpt>
      <trkpt lat="44.83041" lon="5.36803">
        <ele>1327.47</ele>
        <time>2021-09-22T09:35:56.762Z</time>
      </trkpt>
      <trkpt lat="44.83036" lon="5.36789">
        <ele>1324.65</ele>
        <time>2021-09-22T09:36:05.775Z</time>
      </trkpt>
      <trkpt lat="44.83031" lon="5.36771">
        <ele>1321.74</ele>
        <time>2021-09-22T09:36:15.772Z</time>
      </trkpt>
      <trkpt lat="44.83022" lon="5.36761">
        <ele>1322.42</ele>
        <time>2021-09-22T09:36:25.601Z</time>
      </trkpt>
      <trkpt lat="44.83013" lon="5.36749">
        <ele>1323.87</ele>
        <time>2021-09-22T09:36:35.580Z</time>
      </trkpt>
      <trkpt lat="44.83012" lon="5.36733">
        <ele>1325.29</ele>
        <time>2021-09-22T09:36:44.584Z</time>
      </trkpt>
      <trkpt lat="44.83017" lon="5.36721">
        <ele>1326.26</ele>
        <time>2021-09-22T09:36:54.000Z</time>
      </trkpt>
      <trkpt lat="44.83016" lon="5.36722">
        <ele>1326.23</ele>
        <time>2021-09-22T09:37:04.000Z</time>
      </trkpt>
      <trkpt lat="44.83015" lon="5.36722">
        <ele>1326.44</ele>
        <time>2021-09-22T09:38:22.000Z</time>
      </trkpt>
      <trkpt lat="44.83014" lon="5.36721">
        <ele>1326.87</ele>
        <time>2021-09-22T09:38:58.000Z</time>
      </trkpt>
      <trkpt lat="44.83013" lon="5.3672">
        <ele>1327.23</ele>
        <time>2021-09-22T09:39:07.707Z</time>
      </trkpt>
      <trkpt lat="44.83015" lon="5.36708">
        <ele>1329.45</ele>
        <time>2021-09-22T09:39:16.774Z</time>
      </trkpt>
      <trkpt lat="44.8302" lon="5.36698">
        <ele>1330.71</ele>
        <time>2021-09-22T09:39:26.757Z</time>
      </trkpt>
      <trkpt lat="44.83025" lon="5.36692">
        <ele>1331.24</ele>
        <time>2021-09-22T09:39:35.765Z</time>
      </trkpt>
      <trkpt lat="44.83029" lon="5.36683">
        <ele>1332.61</ele>
        <time>2021-09-22T09:39:44.775Z</time>
      </trkpt>
      <trkpt lat="44.83032" lon="5.36672">
        <ele>1334.48</ele>
        <time>2021-09-22T09:39:54.782Z</time>
      </trkpt>
      <trkpt lat="44.83034" lon="5.36661">
        <ele>1335.95</ele>
        <time>2021-09-22T09:40:04.769Z</time>
      </trkpt>
      <trkpt lat="44.83037" lon="5.36649">
        <ele>1337.72</ele>
        <time>2021-09-22T09:40:14.774Z</time>
      </trkpt>
      <trkpt lat="44.8304" lon="5.36638">
        <ele>1339</ele>
        <time>2021-09-22T09:40:23.784Z</time>
      </trkpt>
      <trkpt lat="44.83042" lon="5.36626">
        <ele>1341.06</ele>
        <time>2021-09-22T09:40:33.769Z</time>
      </trkpt>
      <trkpt lat="44.83046" lon="5.36616">
        <ele>1342.28</ele>
        <time>2021-09-22T09:40:43.764Z</time>
      </trkpt>
      <trkpt lat="44.83048" lon="5.36604">
        <ele>1344.19</ele>
        <time>2021-09-22T09:40:52.780Z</time>
      </trkpt>
      <trkpt lat="44.83047" lon="5.36592">
        <ele>1346.85</ele>
        <time>2021-09-22T09:41:02.340Z</time>
      </trkpt>
      <trkpt lat="44.83046" lon="5.36578">
        <ele>1349.65</ele>
        <time>2021-09-22T09:41:11.756Z</time>
      </trkpt>
      <trkpt lat="44.83048" lon="5.36568">
        <ele>1350.89</ele>
        <time>2021-09-22T09:41:20.924Z</time>
      </trkpt>
      <trkpt lat="44.83048" lon="5.36558">
        <ele>1352.58</ele>
        <time>2021-09-22T09:41:30.773Z</time>
      </trkpt>
      <trkpt lat="44.8305" lon="5.36552">
        <ele>1353.25</ele>
        <time>2021-09-22T09:41:40.795Z</time>
      </trkpt>
      <trkpt lat="44.83052" lon="5.36542">
        <ele>1354.49</ele>
        <time>2021-09-22T09:41:50.528Z</time>
      </trkpt>
      <trkpt lat="44.83054" lon="5.36528">
        <ele>1356.34</ele>
        <time>2021-09-22T09:42:00.139Z</time>
      </trkpt>
      <trkpt lat="44.83055" lon="5.36515">
        <ele>1358.26</ele>
        <time>2021-09-22T09:42:09.226Z</time>
      </trkpt>
      <trkpt lat="44.83061" lon="5.36502">
        <ele>1359.22</ele>
        <time>2021-09-22T09:42:19.000Z</time>
      </trkpt>
      <trkpt lat="44.83066" lon="5.36491">
        <ele>1359.82</ele>
        <time>2021-09-22T09:42:28.322Z</time>
      </trkpt>
      <trkpt lat="44.8307" lon="5.36476">
        <ele>1360.97</ele>
        <time>2021-09-22T09:42:37.905Z</time>
      </trkpt>
      <trkpt lat="44.83071" lon="5.36461">
        <ele>1362.13</ele>
        <time>2021-09-22T09:42:47.211Z</time>
      </trkpt>
      <trkpt lat="44.83073" lon="5.3645">
        <ele>1362.79</ele>
        <time>2021-09-22T09:42:56.776Z</time>
      </trkpt>
      <trkpt lat="44.83073" lon="5.36438">
        <ele>1363.65</ele>
        <time>2021-09-22T09:43:06.771Z</time>
      </trkpt>
      <trkpt lat="44.83073" lon="5.3642">
        <ele>1364.44</ele>
        <time>2021-09-22T09:43:16.766Z</time>
      </trkpt>
      <trkpt lat="44.8308" lon="5.36406">
        <ele>1363.79</ele>
        <time>2021-09-22T09:43:26.223Z</time>
      </trkpt>
      <trkpt lat="44.83083" lon="5.36394">
        <ele>1363.45</ele>
        <time>2021-09-22T09:43:35.600Z</time>
      </trkpt>
      <trkpt lat="44.83082" lon="5.36379">
        <ele>1363.42</ele>
        <time>2021-09-22T09:43:44.739Z</time>
      </trkpt>
      <trkpt lat="44.83082" lon="5.36365">
        <ele>1362.96</ele>
        <time>2021-09-22T09:43:53.750Z</time>
      </trkpt>
      <trkpt lat="44.83082" lon="5.36351">
        <ele>1362.4</ele>
        <time>2021-09-22T09:44:02.761Z</time>
      </trkpt>
      <trkpt lat="44.8308" lon="5.3634">
        <ele>1362.05</ele>
        <time>2021-09-22T09:44:12.099Z</time>
      </trkpt>
      <trkpt lat="44.83074" lon="5.36329">
        <ele>1362.19</ele>
        <time>2021-09-22T09:44:21.769Z</time>
      </trkpt>
      <trkpt lat="44.83071" lon="5.36318">
        <ele>1361.68</ele>
        <time>2021-09-22T09:44:31.769Z</time>
      </trkpt>
      <trkpt lat="44.83065" lon="5.3631">
        <ele>1361.68</ele>
        <time>2021-09-22T09:44:40.948Z</time>
      </trkpt>
      <trkpt lat="44.83058" lon="5.363">
        <ele>1361.4</ele>
        <time>2021-09-22T09:44:50.772Z</time>
      </trkpt>
      <trkpt lat="44.83053" lon="5.36289">
        <ele>1360.79</ele>
        <time>2021-09-22T09:45:00.018Z</time>
      </trkpt>
      <trkpt lat="44.83046" lon="5.36275">
        <ele>1360.18</ele>
        <time>2021-09-22T09:45:09.767Z</time>
      </trkpt>
      <trkpt lat="44.83038" lon="5.36263">
        <ele>1359.9</ele>
        <time>2021-09-22T09:45:19.947Z</time>
      </trkpt>
      <trkpt lat="44.8303" lon="5.3625">
        <ele>1359.72</ele>
        <time>2021-09-22T09:45:29.760Z</time>
      </trkpt>
      <trkpt lat="44.83022" lon="5.3624">
        <ele>1360.18</ele>
        <time>2021-09-22T09:45:39.439Z</time>
      </trkpt>
      <trkpt lat="44.83015" lon="5.36231">
        <ele>1360.6</ele>
        <time>2021-09-22T09:45:48.743Z</time>
      </trkpt>
      <trkpt lat="44.83009" lon="5.36218">
        <ele>1360.38</ele>
        <time>2021-09-22T09:45:58.783Z</time>
      </trkpt>
      <trkpt lat="44.83006" lon="5.36202">
        <ele>1359.32</ele>
        <time>2021-09-22T09:46:08.544Z</time>
      </trkpt>
      <trkpt lat="44.82997" lon="5.3619">
        <ele>1359.91</ele>
        <time>2021-09-22T09:46:18.766Z</time>
      </trkpt>
      <trkpt lat="44.82992" lon="5.36177">
        <ele>1359.56</ele>
        <time>2021-09-22T09:46:27.770Z</time>
      </trkpt>
      <trkpt lat="44.82993" lon="5.36173">
        <ele>1359.03</ele>
        <time>2021-09-22T09:46:37.000Z</time>
      </trkpt>
      <trkpt lat="44.82992" lon="5.36171">
        <ele>1358.93</ele>
        <time>2021-09-22T09:46:48.000Z</time>
      </trkpt>
      <trkpt lat="44.8299" lon="5.36164">
        <ele>1358.74</ele>
        <time>2021-09-22T09:46:58.000Z</time>
      </trkpt>
      <trkpt lat="44.82985" lon="5.36153">
        <ele>1358.67</ele>
        <time>2021-09-22T09:47:07.139Z</time>
      </trkpt>
      <trkpt lat="44.82981" lon="5.36144">
        <ele>1358.79</ele>
        <time>2021-09-22T09:47:16.480Z</time>
      </trkpt>
      <trkpt lat="44.82974" lon="5.36135">
        <ele>1359.03</ele>
        <time>2021-09-22T09:47:26.238Z</time>
      </trkpt>
      <trkpt lat="44.82965" lon="5.36124">
        <ele>1359.6</ele>
        <time>2021-09-22T09:47:35.588Z</time>
      </trkpt>
      <trkpt lat="44.82958" lon="5.36115">
        <ele>1359.34</ele>
        <time>2021-09-22T09:47:44.665Z</time>
      </trkpt>
      <trkpt lat="44.82951" lon="5.36106">
        <ele>1358.74</ele>
        <time>2021-09-22T09:47:55.021Z</time>
      </trkpt>
      <trkpt lat="44.82943" lon="5.36098">
        <ele>1358.03</ele>
        <time>2021-09-22T09:48:04.282Z</time>
      </trkpt>
      <trkpt lat="44.82935" lon="5.3609">
        <ele>1357.01</ele>
        <time>2021-09-22T09:48:14.282Z</time>
      </trkpt>
      <trkpt lat="44.82926" lon="5.3608">
        <ele>1355.2</ele>
        <time>2021-09-22T09:48:24.364Z</time>
      </trkpt>
      <trkpt lat="44.82916" lon="5.36075">
        <ele>1354.22</ele>
        <time>2021-09-22T09:48:33.762Z</time>
      </trkpt>
      <trkpt lat="44.82906" lon="5.36073">
        <ele>1353.24</ele>
        <time>2021-09-22T09:48:43.770Z</time>
      </trkpt>
      <trkpt lat="44.82906" lon="5.36076">
        <ele>1353.86</ele>
        <time>2021-09-22T09:48:53.000Z</time>
      </trkpt>
      <trkpt lat="44.82905" lon="5.36077">
        <ele>1353.96</ele>
        <time>2021-09-22T09:49:02.769Z</time>
      </trkpt>
      <trkpt lat="44.82898" lon="5.36078">
        <ele>1353.47</ele>
        <time>2021-09-22T09:49:12.776Z</time>
      </trkpt>
      <trkpt lat="44.82887" lon="5.36081">
        <ele>1352.55</ele>
        <time>2021-09-22T09:49:21.778Z</time>
      </trkpt>
      <trkpt lat="44.82876" lon="5.36083">
        <ele>1351.05</ele>
        <time>2021-09-22T09:49:31.803Z</time>
      </trkpt>
      <trkpt lat="44.82866" lon="5.36088">
        <ele>1349.89</ele>
        <time>2021-09-22T09:49:41.805Z</time>
      </trkpt>
      <trkpt lat="44.82854" lon="5.36089">
        <ele>1348.22</ele>
        <time>2021-09-22T09:49:51.763Z</time>
      </trkpt>
      <trkpt lat="44.82844" lon="5.36084">
        <ele>1346.54</ele>
        <time>2021-09-22T09:50:00.776Z</time>
      </trkpt>
      <trkpt lat="44.82834" lon="5.36076">
        <ele>1345.35</ele>
        <time>2021-09-22T09:50:10.780Z</time>
      </trkpt>
      <trkpt lat="44.82827" lon="5.36068">
        <ele>1344.91</ele>
        <time>2021-09-22T09:50:20.106Z</time>
      </trkpt>
      <trkpt lat="44.82822" lon="5.36051">
        <ele>1344.08</ele>
        <time>2021-09-22T09:50:29.784Z</time>
      </trkpt>
      <trkpt lat="44.82821" lon="5.36033">
        <ele>1342.92</ele>
        <time>2021-09-22T09:50:39.773Z</time>
      </trkpt>
      <trkpt lat="44.82821" lon="5.36018">
        <ele>1341.9</ele>
        <time>2021-09-22T09:50:49.690Z</time>
      </trkpt>
      <trkpt lat="44.82819" lon="5.36002">
        <ele>1340.59</ele>
        <time>2021-09-22T09:50:58.764Z</time>
      </trkpt>
      <trkpt lat="44.82817" lon="5.35986">
        <ele>1339.06</ele>
        <time>2021-09-22T09:51:08.752Z</time>
      </trkpt>
      <trkpt lat="44.82818" lon="5.35981">
        <ele>1338.81</ele>
        <time>2021-09-22T09:51:18.000Z</time>
      </trkpt>
      <trkpt lat="44.82817" lon="5.35971">
        <ele>1337.8</ele>
        <time>2021-09-22T09:51:27.776Z</time>
      </trkpt>
      <trkpt lat="44.82815" lon="5.35965">
        <ele>1336.83</ele>
        <time>2021-09-22T09:51:37.000Z</time>
      </trkpt>
      <trkpt lat="44.82814" lon="5.35966">
        <ele>1336.74</ele>
        <time>2021-09-22T09:51:48.751Z</time>
      </trkpt>
      <trkpt lat="44.82813" lon="5.3597">
        <ele>1336.96</ele>
        <time>2021-09-22T09:51:58.000Z</time>
      </trkpt>
      <trkpt lat="44.82812" lon="5.3597">
        <ele>1336.81</ele>
        <time>2021-09-22T09:52:30.000Z</time>
      </trkpt>
      <trkpt lat="44.82809" lon="5.35976">
        <ele>1336.85</ele>
        <time>2021-09-22T09:52:39.753Z</time>
      </trkpt>
      <trkpt lat="44.82805" lon="5.35992">
        <ele>1338.55</ele>
        <time>2021-09-22T09:52:48.804Z</time>
      </trkpt>
      <trkpt lat="44.82803" lon="5.36007">
        <ele>1340.78</ele>
        <time>2021-09-22T09:52:58.757Z</time>
      </trkpt>
      <trkpt lat="44.82797" lon="5.36017">
        <ele>1342.34</ele>
        <time>2021-09-22T09:53:07.759Z</time>
      </trkpt>
      <trkpt lat="44.8279" lon="5.36032">
        <ele>1345.28</ele>
        <time>2021-09-22T09:53:17.388Z</time>
      </trkpt>
      <trkpt lat="44.82785" lon="5.36042">
        <ele>1347.6</ele>
        <time>2021-09-22T09:53:26.785Z</time>
      </trkpt>
      <trkpt lat="44.82776" lon="5.36055">
        <ele>1350.94</ele>
        <time>2021-09-22T09:53:36.768Z</time>
      </trkpt>
      <trkpt lat="44.82769" lon="5.36071">
        <ele>1354.58</ele>
        <time>2021-09-22T09:53:46.761Z</time>
      </trkpt>
      <trkpt lat="44.82764" lon="5.36078">
        <ele>1356</ele>
        <time>2021-09-22T09:53:56.800Z</time>
      </trkpt>
      <trkpt lat="44.82757" lon="5.36089">
        <ele>1357.75</ele>
        <time>2021-09-22T09:54:06.794Z</time>
      </trkpt>
      <trkpt lat="44.8275" lon="5.36098">
        <ele>1357.98</ele>
        <time>2021-09-22T09:54:16.774Z</time>
      </trkpt>
      <trkpt lat="44.82743" lon="5.36109">
        <ele>1357.71</ele>
        <time>2021-09-22T09:54:26.776Z</time>
      </trkpt>
      <trkpt lat="44.82739" lon="5.36117">
        <ele>1357.49</ele>
        <time>2021-09-22T09:54:36.777Z</time>
      </trkpt>
      <trkpt lat="44.82735" lon="5.36126">
        <ele>1357.44</ele>
        <time>2021-09-22T09:54:46.423Z</time>
      </trkpt>
      <trkpt lat="44.82726" lon="5.36137">
        <ele>1357.05</ele>
        <time>2021-09-22T09:54:55.781Z</time>
      </trkpt>
      <trkpt lat="44.82718" lon="5.36149">
        <ele>1357.79</ele>
        <time>2021-09-22T09:55:05.776Z</time>
      </trkpt>
      <trkpt lat="44.8271" lon="5.3616">
        <ele>1359.3</ele>
        <time>2021-09-22T09:55:15.777Z</time>
      </trkpt>
      <trkpt lat="44.82701" lon="5.36168">
        <ele>1360.82</ele>
        <time>2021-09-22T09:55:24.780Z</time>
      </trkpt>
      <trkpt lat="44.82696" lon="5.36178">
        <ele>1363.09</ele>
        <time>2021-09-22T09:55:34.768Z</time>
      </trkpt>
      <trkpt lat="44.82689" lon="5.36187">
        <ele>1364.71</ele>
        <time>2021-09-22T09:55:44.755Z</time>
      </trkpt>
      <trkpt lat="44.82688" lon="5.36199">
        <ele>1368.08</ele>
        <time>2021-09-22T09:55:54.773Z</time>
      </trkpt>
      <trkpt lat="44.82686" lon="5.36216">
        <ele>1372.12</ele>
        <time>2021-09-22T09:56:03.777Z</time>
      </trkpt>
      <trkpt lat="44.82681" lon="5.36228">
        <ele>1374.61</ele>
        <time>2021-09-22T09:56:13.744Z</time>
      </trkpt>
      <trkpt lat="44.8268" lon="5.36238">
        <ele>1376.62</ele>
        <time>2021-09-22T09:56:22.770Z</time>
      </trkpt>
      <trkpt lat="44.82678" lon="5.36248">
        <ele>1378.74</ele>
        <time>2021-09-22T09:56:32.773Z</time>
      </trkpt>
      <trkpt lat="44.82677" lon="5.36257">
        <ele>1380.59</ele>
        <time>2021-09-22T09:56:42.770Z</time>
      </trkpt>
      <trkpt lat="44.82676" lon="5.36265">
        <ele>1381.91</ele>
        <time>2021-09-22T09:56:52.767Z</time>
      </trkpt>
      <trkpt lat="44.82679" lon="5.36273">
        <ele>1384.37</ele>
        <time>2021-09-22T09:57:02.761Z</time>
      </trkpt>
      <trkpt lat="44.82676" lon="5.36284">
        <ele>1385.95</ele>
        <time>2021-09-22T09:57:11.764Z</time>
      </trkpt>
      <trkpt lat="44.82673" lon="5.36295">
        <ele>1386.9</ele>
        <time>2021-09-22T09:57:21.759Z</time>
      </trkpt>
      <trkpt lat="44.82678" lon="5.36303">
        <ele>1389.6</ele>
        <time>2021-09-22T09:57:31.220Z</time>
      </trkpt>
      <trkpt lat="44.8268" lon="5.36313">
        <ele>1391.83</ele>
        <time>2021-09-22T09:57:40.856Z</time>
      </trkpt>
      <trkpt lat="44.8268" lon="5.36322">
        <ele>1393.23</ele>
        <time>2021-09-22T09:57:50.350Z</time>
      </trkpt>
      <trkpt lat="44.82682" lon="5.36325">
        <ele>1394.26</ele>
        <time>2021-09-22T09:57:59.782Z</time>
      </trkpt>
      <trkpt lat="44.82684" lon="5.36331">
        <ele>1395.51</ele>
        <time>2021-09-22T09:58:09.768Z</time>
      </trkpt>
      <trkpt lat="44.82689" lon="5.36338">
        <ele>1397.45</ele>
        <time>2021-09-22T09:58:18.784Z</time>
      </trkpt>
      <trkpt lat="44.82693" lon="5.36347">
        <ele>1399.21</ele>
        <time>2021-09-22T09:58:28.423Z</time>
      </trkpt>
      <trkpt lat="44.82695" lon="5.36357">
        <ele>1400.56</ele>
        <time>2021-09-22T09:58:37.750Z</time>
      </trkpt>
      <trkpt lat="44.82697" lon="5.36365">
        <ele>1401.43</ele>
        <time>2021-09-22T09:58:47.221Z</time>
      </trkpt>
      <trkpt lat="44.82698" lon="5.36376">
        <ele>1402.5</ele>
        <time>2021-09-22T09:58:56.780Z</time>
      </trkpt>
      <trkpt lat="44.82694" lon="5.36387">
        <ele>1402.98</ele>
        <time>2021-09-22T09:59:06.786Z</time>
      </trkpt>
      <trkpt lat="44.82695" lon="5.36395">
        <ele>1403.59</ele>
        <time>2021-09-22T09:59:16.779Z</time>
      </trkpt>
      <trkpt lat="44.82696" lon="5.36402">
        <ele>1404.18</ele>
        <time>2021-09-22T09:59:26.774Z</time>
      </trkpt>
      <trkpt lat="44.82695" lon="5.3641">
        <ele>1404.66</ele>
        <time>2021-09-22T09:59:36.784Z</time>
      </trkpt>
      <trkpt lat="44.82689" lon="5.36412">
        <ele>1404.56</ele>
        <time>2021-09-22T09:59:46.000Z</time>
      </trkpt>
      <trkpt lat="44.8269" lon="5.36413">
        <ele>1404.68</ele>
        <time>2021-09-22T10:00:06.000Z</time>
      </trkpt>
      <trkpt lat="44.82691" lon="5.36414">
        <ele>1404.78</ele>
        <time>2021-09-22T10:00:23.000Z</time>
      </trkpt>
      <trkpt lat="44.82692" lon="5.36416">
        <ele>1405.03</ele>
        <time>2021-09-22T10:00:34.000Z</time>
      </trkpt>
      <trkpt lat="44.82691" lon="5.36418">
        <ele>1405.11</ele>
        <time>2021-09-22T10:00:45.000Z</time>
      </trkpt>
      <trkpt lat="44.82692" lon="5.36419">
        <ele>1405.24</ele>
        <time>2021-09-22T10:01:21.000Z</time>
      </trkpt>
      <trkpt lat="44.82692" lon="5.3642">
        <ele>1405.38</ele>
        <time>2021-09-22T10:03:00.000Z</time>
      </trkpt>
      <trkpt lat="44.82691" lon="5.36426">
        <ele>1405.84</ele>
        <time>2021-09-22T10:03:10.000Z</time>
      </trkpt>
      <trkpt lat="44.8269" lon="5.36425">
        <ele>1405.72</ele>
        <time>2021-09-22T10:03:25.000Z</time>
      </trkpt>
      <trkpt lat="44.82689" lon="5.36427">
        <ele>1405.88</ele>
        <time>2021-09-22T10:03:36.000Z</time>
      </trkpt>
      <trkpt lat="44.82688" lon="5.36432">
        <ele>1406.36</ele>
        <time>2021-09-22T10:03:45.755Z</time>
      </trkpt>
      <trkpt lat="44.82686" lon="5.3644">
        <ele>1407.07</ele>
        <time>2021-09-22T10:03:55.000Z</time>
      </trkpt>
      <trkpt lat="44.82683" lon="5.36451">
        <ele>1408.2</ele>
        <time>2021-09-22T10:04:04.778Z</time>
      </trkpt>
      <trkpt lat="44.82679" lon="5.36462">
        <ele>1409.47</ele>
        <time>2021-09-22T10:04:14.750Z</time>
      </trkpt>
      <trkpt lat="44.82676" lon="5.36465">
        <ele>1409.78</ele>
        <time>2021-09-22T10:04:23.764Z</time>
      </trkpt>
      <trkpt lat="44.82667" lon="5.36479">
        <ele>1411.15</ele>
        <time>2021-09-22T10:04:33.767Z</time>
      </trkpt>
      <trkpt lat="44.8266" lon="5.36491">
        <ele>1412.12</ele>
        <time>2021-09-22T10:04:43.790Z</time>
      </trkpt>
      <trkpt lat="44.82649" lon="5.36497">
        <ele>1411.7</ele>
        <time>2021-09-22T10:04:53.768Z</time>
      </trkpt>
      <trkpt lat="44.82638" lon="5.36495">
        <ele>1409.82</ele>
        <time>2021-09-22T10:05:03.790Z</time>
      </trkpt>
      <trkpt lat="44.8263" lon="5.36498">
        <ele>1408.92</ele>
        <time>2021-09-22T10:05:13.625Z</time>
      </trkpt>
      <trkpt lat="44.82631" lon="5.36507">
        <ele>1410.77</ele>
        <time>2021-09-22T10:05:22.774Z</time>
      </trkpt>
      <trkpt lat="44.82633" lon="5.36518">
        <ele>1412.38</ele>
        <time>2021-09-22T10:05:31.803Z</time>
      </trkpt>
      <trkpt lat="44.82631" lon="5.36528">
        <ele>1413.32</ele>
        <time>2021-09-22T10:05:41.797Z</time>
      </trkpt>
      <trkpt lat="44.82626" lon="5.36539">
        <ele>1414.49</ele>
        <time>2021-09-22T10:05:51.777Z</time>
      </trkpt>
      <trkpt lat="44.82618" lon="5.36547">
        <ele>1415.59</ele>
        <time>2021-09-22T10:06:01.762Z</time>
      </trkpt>
      <trkpt lat="44.82612" lon="5.36554">
        <ele>1416.69</ele>
        <time>2021-09-22T10:06:10.763Z</time>
      </trkpt>
      <trkpt lat="44.82606" lon="5.36559">
        <ele>1418.06</ele>
        <time>2021-09-22T10:06:19.766Z</time>
      </trkpt>
      <trkpt lat="44.82598" lon="5.36567">
        <ele>1420.08</ele>
        <time>2021-09-22T10:06:29.220Z</time>
      </trkpt>
      <trkpt lat="44.8259" lon="5.36574">
        <ele>1422.38</ele>
        <time>2021-09-22T10:06:38.755Z</time>
      </trkpt>
      <trkpt lat="44.8258" lon="5.36579">
        <ele>1424.77</ele>
        <time>2021-09-22T10:06:47.943Z</time>
      </trkpt>
      <trkpt lat="44.82569" lon="5.36581">
        <ele>1427.23</ele>
        <time>2021-09-22T10:06:57.224Z</time>
      </trkpt>
      <trkpt lat="44.82563" lon="5.36585">
        <ele>1429.59</ele>
        <time>2021-09-22T10:07:06.766Z</time>
      </trkpt>
      <trkpt lat="44.82555" lon="5.36589">
        <ele>1432.1</ele>
        <time>2021-09-22T10:07:15.790Z</time>
      </trkpt>
      <trkpt lat="44.82545" lon="5.36591">
        <ele>1434.64</ele>
        <time>2021-09-22T10:07:25.764Z</time>
      </trkpt>
      <trkpt lat="44.82536" lon="5.36596">
        <ele>1437.08</ele>
        <time>2021-09-22T10:07:35.581Z</time>
      </trkpt>
      <trkpt lat="44.82527" lon="5.36602">
        <ele>1439.36</ele>
        <time>2021-09-22T10:07:44.780Z</time>
      </trkpt>
      <trkpt lat="44.8252" lon="5.36606">
        <ele>1440.61</ele>
        <time>2021-09-22T10:07:53.781Z</time>
      </trkpt>
      <trkpt lat="44.82514" lon="5.36609">
        <ele>1441.49</ele>
        <time>2021-09-22T10:08:03.758Z</time>
      </trkpt>
      <trkpt lat="44.82509" lon="5.36615">
        <ele>1442.25</ele>
        <time>2021-09-22T10:08:12.776Z</time>
      </trkpt>
      <trkpt lat="44.82504" lon="5.36623">
        <ele>1442.96</ele>
        <time>2021-09-22T10:08:22.778Z</time>
      </trkpt>
      <trkpt lat="44.82498" lon="5.36628">
        <ele>1443.49</ele>
        <time>2021-09-22T10:08:31.825Z</time>
      </trkpt>
      <trkpt lat="44.82489" lon="5.36631">
        <ele>1443.87</ele>
        <time>2021-09-22T10:08:41.752Z</time>
      </trkpt>
      <trkpt lat="44.82482" lon="5.36637">
        <ele>1444.49</ele>
        <time>2021-09-22T10:08:50.766Z</time>
      </trkpt>
      <trkpt lat="44.82476" lon="5.36645">
        <ele>1445.82</ele>
        <time>2021-09-22T10:08:59.790Z</time>
      </trkpt>
      <trkpt lat="44.82471" lon="5.36654">
        <ele>1447.67</ele>
        <time>2021-09-22T10:09:09.760Z</time>
      </trkpt>
      <trkpt lat="44.82467" lon="5.36662">
        <ele>1449.66</ele>
        <time>2021-09-22T10:09:18.772Z</time>
      </trkpt>
      <trkpt lat="44.82461" lon="5.36667">
        <ele>1451.6</ele>
        <time>2021-09-22T10:09:28.781Z</time>
      </trkpt>
      <trkpt lat="44.82456" lon="5.36671">
        <ele>1453.07</ele>
        <time>2021-09-22T10:09:37.787Z</time>
      </trkpt>
      <trkpt lat="44.82449" lon="5.36677">
        <ele>1455.5</ele>
        <time>2021-09-22T10:09:47.765Z</time>
      </trkpt>
      <trkpt lat="44.82441" lon="5.36684">
        <ele>1458.05</ele>
        <time>2021-09-22T10:09:57.774Z</time>
      </trkpt>
      <trkpt lat="44.82434" lon="5.36689">
        <ele>1460.34</ele>
        <time>2021-09-22T10:10:07.774Z</time>
      </trkpt>
      <trkpt lat="44.82429" lon="5.36693">
        <ele>1461.77</ele>
        <time>2021-09-22T10:10:16.778Z</time>
      </trkpt>
      <trkpt lat="44.82423" lon="5.36697">
        <ele>1463.21</ele>
        <time>2021-09-22T10:10:26.751Z</time>
      </trkpt>
      <trkpt lat="44.82418" lon="5.36703">
        <ele>1464.87</ele>
        <time>2021-09-22T10:10:35.766Z</time>
      </trkpt>
      <trkpt lat="44.82412" lon="5.36705">
        <ele>1465.35</ele>
        <time>2021-09-22T10:10:45.768Z</time>
      </trkpt>
      <trkpt lat="44.82407" lon="5.36708">
        <ele>1466.25</ele>
        <time>2021-09-22T10:10:55.740Z</time>
      </trkpt>
      <trkpt lat="44.82402" lon="5.36716">
        <ele>1468.39</ele>
        <time>2021-09-22T10:11:04.766Z</time>
      </trkpt>
      <trkpt lat="44.82396" lon="5.36721">
        <ele>1469.64</ele>
        <time>2021-09-22T10:11:13.788Z</time>
      </trkpt>
      <trkpt lat="44.82391" lon="5.36729">
        <ele>1471.94</ele>
        <time>2021-09-22T10:11:23.778Z</time>
      </trkpt>
      <trkpt lat="44.82385" lon="5.36734">
        <ele>1473.2</ele>
        <time>2021-09-22T10:11:32.781Z</time>
      </trkpt>
      <trkpt lat="44.8238" lon="5.36739">
        <ele>1474.52</ele>
        <time>2021-09-22T10:11:42.759Z</time>
      </trkpt>
      <trkpt lat="44.82376" lon="5.36743">
        <ele>1475.78</ele>
        <time>2021-09-22T10:11:51.786Z</time>
      </trkpt>
      <trkpt lat="44.82369" lon="5.36749">
        <ele>1477.43</ele>
        <time>2021-09-22T10:12:01.762Z</time>
      </trkpt>
      <trkpt lat="44.82362" lon="5.36754">
        <ele>1478.87</ele>
        <time>2021-09-22T10:12:11.767Z</time>
      </trkpt>
      <trkpt lat="44.82357" lon="5.36761">
        <ele>1480.56</ele>
        <time>2021-09-22T10:12:20.771Z</time>
      </trkpt>
      <trkpt lat="44.82357" lon="5.36768">
        <ele>1483.25</ele>
        <time>2021-09-22T10:12:29.794Z</time>
      </trkpt>
      <trkpt lat="44.82354" lon="5.36768">
        <ele>1483.07</ele>
        <time>2021-09-22T10:12:40.761Z</time>
      </trkpt>
      <trkpt lat="44.82352" lon="5.36775">
        <ele>1485.39</ele>
        <time>2021-09-22T10:12:49.766Z</time>
      </trkpt>
      <trkpt lat="44.82352" lon="5.36782">
        <ele>1487.6</ele>
        <time>2021-09-22T10:12:58.776Z</time>
      </trkpt>
      <trkpt lat="44.82351" lon="5.3679">
        <ele>1490.32</ele>
        <time>2021-09-22T10:13:08.460Z</time>
      </trkpt>
      <trkpt lat="44.8235" lon="5.36797">
        <ele>1492.61</ele>
        <time>2021-09-22T10:13:17.782Z</time>
      </trkpt>
      <trkpt lat="44.82351" lon="5.36807">
        <ele>1495.79</ele>
        <time>2021-09-22T10:13:27.783Z</time>
      </trkpt>
      <trkpt lat="44.82351" lon="5.36816">
        <ele>1498.58</ele>
        <time>2021-09-22T10:13:37.354Z</time>
      </trkpt>
      <trkpt lat="44.82349" lon="5.36823">
        <ele>1500.7</ele>
        <time>2021-09-22T10:13:46.759Z</time>
      </trkpt>
      <trkpt lat="44.82345" lon="5.3683">
        <ele>1502.67</ele>
        <time>2021-09-22T10:13:55.788Z</time>
      </trkpt>
      <trkpt lat="44.8234" lon="5.36837">
        <ele>1504.59</ele>
        <time>2021-09-22T10:14:05.773Z</time>
      </trkpt>
      <trkpt lat="44.82334" lon="5.3684">
        <ele>1505.16</ele>
        <time>2021-09-22T10:14:14.775Z</time>
      </trkpt>
      <trkpt lat="44.8233" lon="5.36848">
        <ele>1506.92</ele>
        <time>2021-09-22T10:14:23.784Z</time>
      </trkpt>
      <trkpt lat="44.82326" lon="5.36855">
        <ele>1508.24</ele>
        <time>2021-09-22T10:14:32.789Z</time>
      </trkpt>
      <trkpt lat="44.82321" lon="5.36862">
        <ele>1508.87</ele>
        <time>2021-09-22T10:14:42.463Z</time>
      </trkpt>
      <trkpt lat="44.82314" lon="5.36871">
        <ele>1509.1</ele>
        <time>2021-09-22T10:14:51.768Z</time>
      </trkpt>
      <trkpt lat="44.82309" lon="5.3688">
        <ele>1509.47</ele>
        <time>2021-09-22T10:15:01.775Z</time>
      </trkpt>
      <trkpt lat="44.82304" lon="5.36884">
        <ele>1507.85</ele>
        <time>2021-09-22T10:15:10.817Z</time>
      </trkpt>
      <trkpt lat="44.82301" lon="5.36888">
        <ele>1507.12</ele>
        <time>2021-09-22T10:15:20.353Z</time>
      </trkpt>
      <trkpt lat="44.82296" lon="5.36892">
        <ele>1504.8</ele>
        <time>2021-09-22T10:15:29.769Z</time>
      </trkpt>
      <trkpt lat="44.8229" lon="5.36894">
        <ele>1501.58</ele>
        <time>2021-09-22T10:15:39.771Z</time>
      </trkpt>
      <trkpt lat="44.8229" lon="5.36905">
        <ele>1501.19</ele>
        <time>2021-09-22T10:15:49.781Z</time>
      </trkpt>
      <trkpt lat="44.82287" lon="5.36907">
        <ele>1499.66</ele>
        <time>2021-09-22T10:15:59.000Z</time>
      </trkpt>
      <trkpt lat="44.82288" lon="5.36908">
        <ele>1499.69</ele>
        <time>2021-09-22T10:16:23.000Z</time>
      </trkpt>
      <trkpt lat="44.82288" lon="5.36908">
        <ele>1500.26</ele>
        <time>2021-09-22T10:18:25.000Z</time>
      </trkpt>
      <trkpt lat="44.82287" lon="5.36907">
        <ele>1499.73</ele>
        <time>2021-09-22T10:18:35.000Z</time>
      </trkpt>
      <trkpt lat="44.82288" lon="5.36906">
        <ele>1500.13</ele>
        <time>2021-09-22T10:22:29.000Z</time>
      </trkpt>
      <trkpt lat="44.82287" lon="5.36907">
        <ele>1499.44</ele>
        <time>2021-09-22T10:24:43.000Z</time>
      </trkpt>
      <trkpt lat="44.82288" lon="5.36907">
        <ele>1500.09</ele>
        <time>2021-09-22T10:25:08.686Z</time>
      </trkpt>
      <trkpt lat="44.82287" lon="5.36906">
        <ele>1499.4</ele>
        <time>2021-09-22T10:25:45.000Z</time>
      </trkpt>
      <trkpt lat="44.82287" lon="5.36905">
        <ele>1499.84</ele>
        <time>2021-09-22T10:26:01.443Z</time>
      </trkpt>
      <trkpt lat="44.82287" lon="5.36907">
        <ele>1499.61</ele>
        <time>2021-09-22T10:28:50.000Z</time>
      </trkpt>
      <trkpt lat="44.82287" lon="5.36905">
        <ele>1499.8</ele>
        <time>2021-09-22T10:29:00.000Z</time>
      </trkpt>
      <trkpt lat="44.82287" lon="5.36906">
        <ele>1499.73</ele>
        <time>2021-09-22T10:29:40.745Z</time>
      </trkpt>
      <trkpt lat="44.82288" lon="5.36906">
        <ele>1500.36</ele>
        <time>2021-09-22T10:59:46.800Z</time>
      </trkpt>
      <trkpt lat="44.82288" lon="5.36907">
        <ele>1500.18</ele>
        <time>2021-09-22T10:59:58.000Z</time>
      </trkpt>
      <trkpt lat="44.8229" lon="5.36905">
        <ele>1501.23</ele>
        <time>2021-09-22T11:00:07.791Z</time>
      </trkpt>
      <trkpt lat="44.82292" lon="5.36908">
        <ele>1502.47</ele>
        <time>2021-09-22T11:00:17.215Z</time>
      </trkpt>
      <trkpt lat="44.82295" lon="5.36912">
        <ele>1504.04</ele>
        <time>2021-09-22T11:00:26.969Z</time>
      </trkpt>
      <trkpt lat="44.82296" lon="5.36912">
        <ele>1504.6</ele>
        <time>2021-09-22T11:00:36.000Z</time>
      </trkpt>
      <trkpt lat="44.82297" lon="5.3691">
        <ele>1505.03</ele>
        <time>2021-09-22T11:00:48.768Z</time>
      </trkpt>
      <trkpt lat="44.82301" lon="5.36914">
        <ele>1507.29</ele>
        <time>2021-09-22T11:00:58.775Z</time>
      </trkpt>
      <trkpt lat="44.82303" lon="5.36914">
        <ele>1508.25</ele>
        <time>2021-09-22T11:01:08.000Z</time>
      </trkpt>
      <trkpt lat="44.82305" lon="5.36914">
        <ele>1509.06</ele>
        <time>2021-09-22T11:01:17.761Z</time>
      </trkpt>
      <trkpt lat="44.82312" lon="5.36914">
        <ele>1512.69</ele>
        <time>2021-09-22T11:01:26.780Z</time>
      </trkpt>
      <trkpt lat="44.8232" lon="5.36918">
        <ele>1515.39</ele>
        <time>2021-09-22T11:01:36.788Z</time>
      </trkpt>
      <trkpt lat="44.82323" lon="5.36921">
        <ele>1515.9</ele>
        <time>2021-09-22T11:01:47.000Z</time>
      </trkpt>
      <trkpt lat="44.82329" lon="5.36927">
        <ele>1516.58</ele>
        <time>2021-09-22T11:01:56.364Z</time>
      </trkpt>
      <trkpt lat="44.82335" lon="5.36934">
        <ele>1516.46</ele>
        <time>2021-09-22T11:02:05.779Z</time>
      </trkpt>
      <trkpt lat="44.8234" lon="5.36941">
        <ele>1515.46</ele>
        <time>2021-09-22T11:02:15.777Z</time>
      </trkpt>
      <trkpt lat="44.82346" lon="5.36945">
        <ele>1515.22</ele>
        <time>2021-09-22T11:02:24.785Z</time>
      </trkpt>
      <trkpt lat="44.82352" lon="5.36945">
        <ele>1515.59</ele>
        <time>2021-09-22T11:02:34.000Z</time>
      </trkpt>
      <trkpt lat="44.82352" lon="5.36946">
        <ele>1515.32</ele>
        <time>2021-09-22T11:02:44.777Z</time>
      </trkpt>
      <trkpt lat="44.82361" lon="5.36953">
        <ele>1514.26</ele>
        <time>2021-09-22T11:02:54.777Z</time>
      </trkpt>
      <trkpt lat="44.82371" lon="5.36956">
        <ele>1513.91</ele>
        <time>2021-09-22T11:03:04.781Z</time>
      </trkpt>
      <trkpt lat="44.82378" lon="5.36957">
        <ele>1513.68</ele>
        <time>2021-09-22T11:03:13.788Z</time>
      </trkpt>
      <trkpt lat="44.82386" lon="5.36956">
        <ele>1513.12</ele>
        <time>2021-09-22T11:03:23.764Z</time>
      </trkpt>
      <trkpt lat="44.82389" lon="5.36966">
        <ele>1513.82</ele>
        <time>2021-09-22T11:03:32.792Z</time>
      </trkpt>
      <trkpt lat="44.82396" lon="5.36975">
        <ele>1514.73</ele>
        <time>2021-09-22T11:03:42.778Z</time>
      </trkpt>
      <trkpt lat="44.824" lon="5.36979">
        <ele>1515.4</ele>
        <time>2021-09-22T11:03:51.779Z</time>
      </trkpt>
      <trkpt lat="44.82405" lon="5.36976">
        <ele>1515.26</ele>
        <time>2021-09-22T11:04:00.782Z</time>
      </trkpt>
      <trkpt lat="44.82411" lon="5.36969">
        <ele>1513.7</ele>
        <time>2021-09-22T11:04:10.797Z</time>
      </trkpt>
      <trkpt lat="44.82415" lon="5.3696">
        <ele>1511.08</ele>
        <time>2021-09-22T11:04:20.803Z</time>
      </trkpt>
      <trkpt lat="44.82421" lon="5.36959">
        <ele>1510.27</ele>
        <time>2021-09-22T11:04:30.771Z</time>
      </trkpt>
      <trkpt lat="44.82426" lon="5.36969">
        <ele>1512.52</ele>
        <time>2021-09-22T11:04:39.785Z</time>
      </trkpt>
      <trkpt lat="44.82426" lon="5.36976">
        <ele>1514.31</ele>
        <time>2021-09-22T11:04:49.764Z</time>
      </trkpt>
      <trkpt lat="44.82429" lon="5.36982">
        <ele>1515.47</ele>
        <time>2021-09-22T11:04:58.772Z</time>
      </trkpt>
      <trkpt lat="44.82427" lon="5.3699">
        <ele>1517.05</ele>
        <time>2021-09-22T11:05:07.785Z</time>
      </trkpt>
      <trkpt lat="44.8243" lon="5.36998">
        <ele>1517.6</ele>
        <time>2021-09-22T11:05:16.788Z</time>
      </trkpt>
      <trkpt lat="44.82436" lon="5.37005">
        <ele>1517.28</ele>
        <time>2021-09-22T11:05:26.773Z</time>
      </trkpt>
      <trkpt lat="44.82442" lon="5.37013">
        <ele>1516.88</ele>
        <time>2021-09-22T11:05:36.471Z</time>
      </trkpt>
      <trkpt lat="44.82453" lon="5.37028">
        <ele>1516.22</ele>
        <time>2021-09-22T11:05:45.775Z</time>
      </trkpt>
      <trkpt lat="44.82455" lon="5.37035">
        <ele>1516.53</ele>
        <time>2021-09-22T11:05:54.782Z</time>
      </trkpt>
      <trkpt lat="44.82458" lon="5.37041">
        <ele>1516.68</ele>
        <time>2021-09-22T11:06:03.794Z</time>
      </trkpt>
      <trkpt lat="44.8246" lon="5.37049">
        <ele>1517.07</ele>
        <time>2021-09-22T11:06:13.797Z</time>
      </trkpt>
      <trkpt lat="44.82467" lon="5.37055">
        <ele>1517.5</ele>
        <time>2021-09-22T11:06:23.772Z</time>
      </trkpt>
      <trkpt lat="44.82471" lon="5.37061">
        <ele>1518.02</ele>
        <time>2021-09-22T11:06:32.785Z</time>
      </trkpt>
      <trkpt lat="44.82474" lon="5.37068">
        <ele>1518.34</ele>
        <time>2021-09-22T11:06:41.786Z</time>
      </trkpt>
      <trkpt lat="44.8248" lon="5.37075">
        <ele>1518.93</ele>
        <time>2021-09-22T11:06:51.765Z</time>
      </trkpt>
      <trkpt lat="44.82485" lon="5.37082">
        <ele>1518.91</ele>
        <time>2021-09-22T11:07:00.768Z</time>
      </trkpt>
      <trkpt lat="44.82491" lon="5.37092">
        <ele>1518.3</ele>
        <time>2021-09-22T11:07:09.771Z</time>
      </trkpt>
      <trkpt lat="44.82494" lon="5.37098">
        <ele>1517.43</ele>
        <time>2021-09-22T11:07:18.775Z</time>
      </trkpt>
      <trkpt lat="44.82499" lon="5.37104">
        <ele>1516.45</ele>
        <time>2021-09-22T11:07:27.779Z</time>
      </trkpt>
      <trkpt lat="44.82504" lon="5.37109">
        <ele>1515.64</ele>
        <time>2021-09-22T11:07:36.801Z</time>
      </trkpt>
      <trkpt lat="44.82509" lon="5.37115">
        <ele>1514.82</ele>
        <time>2021-09-22T11:07:46.768Z</time>
      </trkpt>
      <trkpt lat="44.82517" lon="5.37115">
        <ele>1515.3</ele>
        <time>2021-09-22T11:07:55.792Z</time>
      </trkpt>
      <trkpt lat="44.82524" lon="5.37116">
        <ele>1515.59</ele>
        <time>2021-09-22T11:08:05.112Z</time>
      </trkpt>
      <trkpt lat="44.82532" lon="5.37121">
        <ele>1515.08</ele>
        <time>2021-09-22T11:08:14.504Z</time>
      </trkpt>
      <trkpt lat="44.82539" lon="5.37126">
        <ele>1514.81</ele>
        <time>2021-09-22T11:08:23.786Z</time>
      </trkpt>
      <trkpt lat="44.82547" lon="5.3713">
        <ele>1515.08</ele>
        <time>2021-09-22T11:08:32.788Z</time>
      </trkpt>
      <trkpt lat="44.82551" lon="5.37138">
        <ele>1515.38</ele>
        <time>2021-09-22T11:08:42.781Z</time>
      </trkpt>
      <trkpt lat="44.82558" lon="5.37147">
        <ele>1516.43</ele>
        <time>2021-09-22T11:08:52.764Z</time>
      </trkpt>
      <trkpt lat="44.82564" lon="5.3715">
        <ele>1517.45</ele>
        <time>2021-09-22T11:09:01.778Z</time>
      </trkpt>
      <trkpt lat="44.82569" lon="5.37156">
        <ele>1518.58</ele>
        <time>2021-09-22T11:09:10.779Z</time>
      </trkpt>
      <trkpt lat="44.82576" lon="5.37163">
        <ele>1519.88</ele>
        <time>2021-09-22T11:09:20.777Z</time>
      </trkpt>
      <trkpt lat="44.82582" lon="5.3717">
        <ele>1520.94</ele>
        <time>2021-09-22T11:09:29.791Z</time>
      </trkpt>
      <trkpt lat="44.82591" lon="5.37182">
        <ele>1521.94</ele>
        <time>2021-09-22T11:09:38.796Z</time>
      </trkpt>
      <trkpt lat="44.82594" lon="5.37179">
        <ele>1522.18</ele>
        <time>2021-09-22T11:09:48.000Z</time>
      </trkpt>
      <trkpt lat="44.82605" lon="5.37182">
        <ele>1522.48</ele>
        <time>2021-09-22T11:09:57.764Z</time>
      </trkpt>
      <trkpt lat="44.82615" lon="5.3719">
        <ele>1522.82</ele>
        <time>2021-09-22T11:10:06.774Z</time>
      </trkpt>
      <trkpt lat="44.82621" lon="5.37198">
        <ele>1523.41</ele>
        <time>2021-09-22T11:10:15.775Z</time>
      </trkpt>
      <trkpt lat="44.82626" lon="5.37204">
        <ele>1524.15</ele>
        <time>2021-09-22T11:10:24.787Z</time>
      </trkpt>
      <trkpt lat="44.8263" lon="5.37212">
        <ele>1525.27</ele>
        <time>2021-09-22T11:10:34.766Z</time>
      </trkpt>
      <trkpt lat="44.82632" lon="5.3722">
        <ele>1526.43</ele>
        <time>2021-09-22T11:10:43.768Z</time>
      </trkpt>
      <trkpt lat="44.82636" lon="5.37231">
        <ele>1528.27</ele>
        <time>2021-09-22T11:10:54.785Z</time>
      </trkpt>
      <trkpt lat="44.82642" lon="5.37238">
        <ele>1530.16</ele>
        <time>2021-09-22T11:11:04.804Z</time>
      </trkpt>
      <trkpt lat="44.82646" lon="5.37245">
        <ele>1531.79</ele>
        <time>2021-09-22T11:11:14.768Z</time>
      </trkpt>
      <trkpt lat="44.82649" lon="5.37252">
        <ele>1533.24</ele>
        <time>2021-09-22T11:11:24.775Z</time>
      </trkpt>
      <trkpt lat="44.82652" lon="5.37256">
        <ele>1534.25</ele>
        <time>2021-09-22T11:11:34.763Z</time>
      </trkpt>
      <trkpt lat="44.82656" lon="5.37262">
        <ele>1536.09</ele>
        <time>2021-09-22T11:11:43.774Z</time>
      </trkpt>
      <trkpt lat="44.8266" lon="5.37269">
        <ele>1538.08</ele>
        <time>2021-09-22T11:11:53.758Z</time>
      </trkpt>
      <trkpt lat="44.82665" lon="5.37276">
        <ele>1540.41</ele>
        <time>2021-09-22T11:12:02.787Z</time>
      </trkpt>
      <trkpt lat="44.82675" lon="5.37284">
        <ele>1543.37</ele>
        <time>2021-09-22T11:12:12.757Z</time>
      </trkpt>
      <trkpt lat="44.82677" lon="5.37291">
        <ele>1545.06</ele>
        <time>2021-09-22T11:12:21.774Z</time>
      </trkpt>
      <trkpt lat="44.82679" lon="5.37295">
        <ele>1546.05</ele>
        <time>2021-09-22T11:12:32.000Z</time>
      </trkpt>
      <trkpt lat="44.82681" lon="5.37293">
        <ele>1545.93</ele>
        <time>2021-09-22T11:12:41.782Z</time>
      </trkpt>
      <trkpt lat="44.82683" lon="5.373">
        <ele>1547.62</ele>
        <time>2021-09-22T11:12:51.742Z</time>
      </trkpt>
      <trkpt lat="44.82688" lon="5.37305">
        <ele>1548.9</ele>
        <time>2021-09-22T11:13:00.764Z</time>
      </trkpt>
      <trkpt lat="44.82694" lon="5.37312">
        <ele>1550.53</ele>
        <time>2021-09-22T11:13:10.756Z</time>
      </trkpt>
      <trkpt lat="44.827" lon="5.37317">
        <ele>1551.41</ele>
        <time>2021-09-22T11:13:19.764Z</time>
      </trkpt>
      <trkpt lat="44.82705" lon="5.37319">
        <ele>1551.76</ele>
        <time>2021-09-22T11:13:28.774Z</time>
      </trkpt>
      <trkpt lat="44.82705" lon="5.37326">
        <ele>1552.44</ele>
        <time>2021-09-22T11:13:39.766Z</time>
      </trkpt>
      <trkpt lat="44.82702" lon="5.37329">
        <ele>1552.4</ele>
        <time>2021-09-22T11:13:49.000Z</time>
      </trkpt>
      <trkpt lat="44.82702" lon="5.37327">
        <ele>1552.39</ele>
        <time>2021-09-22T11:14:04.775Z</time>
      </trkpt>
      <trkpt lat="44.827" lon="5.37322">
        <ele>1552.03</ele>
        <time>2021-09-22T11:14:14.763Z</time>
      </trkpt>
      <trkpt lat="44.827" lon="5.37312">
        <ele>1550.61</ele>
        <time>2021-09-22T11:14:24.761Z</time>
      </trkpt>
      <trkpt lat="44.82705" lon="5.37308">
        <ele>1549.73</ele>
        <time>2021-09-22T11:14:33.776Z</time>
      </trkpt>
      <trkpt lat="44.8271" lon="5.3731">
        <ele>1549.93</ele>
        <time>2021-09-22T11:14:42.808Z</time>
      </trkpt>
      <trkpt lat="44.82716" lon="5.37311">
        <ele>1549.66</ele>
        <time>2021-09-22T11:14:52.758Z</time>
      </trkpt>
      <trkpt lat="44.82722" lon="5.37309">
        <ele>1548.32</ele>
        <time>2021-09-22T11:15:01.771Z</time>
      </trkpt>
      <trkpt lat="44.82722" lon="5.3731">
        <ele>1548.87</ele>
        <time>2021-09-22T11:15:11.780Z</time>
      </trkpt>
      <trkpt lat="44.82723" lon="5.37312">
        <ele>1549.13</ele>
        <time>2021-09-22T11:15:22.000Z</time>
      </trkpt>
      <trkpt lat="44.82727" lon="5.37314">
        <ele>1549.34</ele>
        <time>2021-09-22T11:15:31.766Z</time>
      </trkpt>
      <trkpt lat="44.82729" lon="5.37315">
        <ele>1549.43</ele>
        <time>2021-09-22T11:15:41.000Z</time>
      </trkpt>
      <trkpt lat="44.82731" lon="5.37315">
        <ele>1549.23</ele>
        <time>2021-09-22T11:15:50.766Z</time>
      </trkpt>
      <trkpt lat="44.82738" lon="5.37316">
        <ele>1548.76</ele>
        <time>2021-09-22T11:15:59.773Z</time>
      </trkpt>
      <trkpt lat="44.82745" lon="5.37316">
        <ele>1548.02</ele>
        <time>2021-09-22T11:16:08.785Z</time>
      </trkpt>
      <trkpt lat="44.82748" lon="5.3732">
        <ele>1548.74</ele>
        <time>2021-09-22T11:16:18.000Z</time>
      </trkpt>
      <trkpt lat="44.8275" lon="5.37325">
        <ele>1549.78</ele>
        <time>2021-09-22T11:16:27.766Z</time>
      </trkpt>
      <trkpt lat="44.82755" lon="5.3733">
        <ele>1550.15</ele>
        <time>2021-09-22T11:16:36.772Z</time>
      </trkpt>
      <trkpt lat="44.82761" lon="5.37336">
        <ele>1550.25</ele>
        <time>2021-09-22T11:16:46.779Z</time>
      </trkpt>
      <trkpt lat="44.82767" lon="5.37342">
        <ele>1549.71</ele>
        <time>2021-09-22T11:16:56.753Z</time>
      </trkpt>
      <trkpt lat="44.82773" lon="5.37347">
        <ele>1548.91</ele>
        <time>2021-09-22T11:17:05.763Z</time>
      </trkpt>
      <trkpt lat="44.82781" lon="5.37349">
        <ele>1547.68</ele>
        <time>2021-09-22T11:17:15.752Z</time>
      </trkpt>
      <trkpt lat="44.82788" lon="5.37347">
        <ele>1546.16</ele>
        <time>2021-09-22T11:17:24.766Z</time>
      </trkpt>
      <trkpt lat="44.82794" lon="5.37353">
        <ele>1545.29</ele>
        <time>2021-09-22T11:17:33.767Z</time>
      </trkpt>
      <trkpt lat="44.82801" lon="5.37362">
        <ele>1544.43</ele>
        <time>2021-09-22T11:17:43.762Z</time>
      </trkpt>
      <trkpt lat="44.8281" lon="5.37364">
        <ele>1542.99</ele>
        <time>2021-09-22T11:17:52.790Z</time>
      </trkpt>
      <trkpt lat="44.82818" lon="5.37373">
        <ele>1542.3</ele>
        <time>2021-09-22T11:18:02.787Z</time>
      </trkpt>
      <trkpt lat="44.82829" lon="5.37381">
        <ele>1541.56</ele>
        <time>2021-09-22T11:18:12.789Z</time>
      </trkpt>
      <trkpt lat="44.82839" lon="5.37383">
        <ele>1540.97</ele>
        <time>2021-09-22T11:18:22.744Z</time>
      </trkpt>
      <trkpt lat="44.82848" lon="5.3739">
        <ele>1541.02</ele>
        <time>2021-09-22T11:18:31.773Z</time>
      </trkpt>
      <trkpt lat="44.82849" lon="5.37398">
        <ele>1541.45</ele>
        <time>2021-09-22T11:18:41.769Z</time>
      </trkpt>
      <trkpt lat="44.82856" lon="5.37405">
        <ele>1541.44</ele>
        <time>2021-09-22T11:18:52.508Z</time>
      </trkpt>
      <trkpt lat="44.82866" lon="5.37407">
        <ele>1541.35</ele>
        <time>2021-09-22T11:19:01.767Z</time>
      </trkpt>
      <trkpt lat="44.82875" lon="5.37407">
        <ele>1541.13</ele>
        <time>2021-09-22T11:19:11.760Z</time>
      </trkpt>
      <trkpt lat="44.82882" lon="5.37411">
        <ele>1541.12</ele>
        <time>2021-09-22T11:19:20.765Z</time>
      </trkpt>
      <trkpt lat="44.82891" lon="5.3742">
        <ele>1541</ele>
        <time>2021-09-22T11:19:30.789Z</time>
      </trkpt>
      <trkpt lat="44.82899" lon="5.37429">
        <ele>1540.7</ele>
        <time>2021-09-22T11:19:40.766Z</time>
      </trkpt>
      <trkpt lat="44.82908" lon="5.37436">
        <ele>1540.32</ele>
        <time>2021-09-22T11:19:49.770Z</time>
      </trkpt>
      <trkpt lat="44.8292" lon="5.37442">
        <ele>1539.85</ele>
        <time>2021-09-22T11:19:59.768Z</time>
      </trkpt>
      <trkpt lat="44.82926" lon="5.37447">
        <ele>1539.56</ele>
        <time>2021-09-22T11:20:08.777Z</time>
      </trkpt>
      <trkpt lat="44.82934" lon="5.37452">
        <ele>1539.23</ele>
        <time>2021-09-22T11:20:18.000Z</time>
      </trkpt>
      <trkpt lat="44.82941" lon="5.3746">
        <ele>1539.2</ele>
        <time>2021-09-22T11:20:28.000Z</time>
      </trkpt>
      <trkpt lat="44.82944" lon="5.37468">
        <ele>1539.41</ele>
        <time>2021-09-22T11:20:37.110Z</time>
      </trkpt>
      <trkpt lat="44.8295" lon="5.37475">
        <ele>1539.77</ele>
        <time>2021-09-22T11:20:46.528Z</time>
      </trkpt>
      <trkpt lat="44.82956" lon="5.37483">
        <ele>1540.38</ele>
        <time>2021-09-22T11:20:55.773Z</time>
      </trkpt>
      <trkpt lat="44.82962" lon="5.3749">
        <ele>1541.16</ele>
        <time>2021-09-22T11:21:04.810Z</time>
      </trkpt>
      <trkpt lat="44.82967" lon="5.37499">
        <ele>1542</ele>
        <time>2021-09-22T11:21:15.000Z</time>
      </trkpt>
      <trkpt lat="44.82968" lon="5.375">
        <ele>1542.12</ele>
        <time>2021-09-22T11:21:24.771Z</time>
      </trkpt>
      <trkpt lat="44.82973" lon="5.37511">
        <ele>1543.4</ele>
        <time>2021-09-22T11:21:33.778Z</time>
      </trkpt>
      <trkpt lat="44.82975" lon="5.37522">
        <ele>1544.2</ele>
        <time>2021-09-22T11:21:43.769Z</time>
      </trkpt>
      <trkpt lat="44.82973" lon="5.37529">
        <ele>1544.07</ele>
        <time>2021-09-22T11:21:53.789Z</time>
      </trkpt>
      <trkpt lat="44.82977" lon="5.37537">
        <ele>1545.2</ele>
        <time>2021-09-22T11:22:03.769Z</time>
      </trkpt>
      <trkpt lat="44.82978" lon="5.37546">
        <ele>1545.43</ele>
        <time>2021-09-22T11:22:13.769Z</time>
      </trkpt>
      <trkpt lat="44.82984" lon="5.37559">
        <ele>1547.39</ele>
        <time>2021-09-22T11:22:22.774Z</time>
      </trkpt>
      <trkpt lat="44.82992" lon="5.37568">
        <ele>1549.33</ele>
        <time>2021-09-22T11:22:31.775Z</time>
      </trkpt>
      <trkpt lat="44.82996" lon="5.37579">
        <ele>1549.71</ele>
        <time>2021-09-22T11:22:41.763Z</time>
      </trkpt>
      <trkpt lat="44.82994" lon="5.37588">
        <ele>1547.58</ele>
        <time>2021-09-22T11:22:50.781Z</time>
      </trkpt>
      <trkpt lat="44.83001" lon="5.37599">
        <ele>1547.09</ele>
        <time>2021-09-22T11:23:01.000Z</time>
      </trkpt>
      <trkpt lat="44.83004" lon="5.37598">
        <ele>1548.01</ele>
        <time>2021-09-22T11:23:11.000Z</time>
      </trkpt>
      <trkpt lat="44.83006" lon="5.376">
        <ele>1547.6</ele>
        <time>2021-09-22T11:23:26.000Z</time>
      </trkpt>
      <trkpt lat="44.83013" lon="5.37611">
        <ele>1545.69</ele>
        <time>2021-09-22T11:23:35.776Z</time>
      </trkpt>
      <trkpt lat="44.83021" lon="5.37615">
        <ele>1545.24</ele>
        <time>2021-09-22T11:23:44.781Z</time>
      </trkpt>
      <trkpt lat="44.83024" lon="5.37621">
        <ele>1543.71</ele>
        <time>2021-09-22T11:23:54.000Z</time>
      </trkpt>
      <trkpt lat="44.83022" lon="5.37625">
        <ele>1542.32</ele>
        <time>2021-09-22T11:24:03.760Z</time>
      </trkpt>
      <trkpt lat="44.8303" lon="5.37631">
        <ele>1541.16</ele>
        <time>2021-09-22T11:24:12.774Z</time>
      </trkpt>
      <trkpt lat="44.83034" lon="5.37636">
        <ele>1540.18</ele>
        <time>2021-09-22T11:24:22.877Z</time>
      </trkpt>
      <trkpt lat="44.83035" lon="5.37636">
        <ele>1540.2</ele>
        <time>2021-09-22T11:24:33.796Z</time>
      </trkpt>
      <trkpt lat="44.83036" lon="5.37635">
        <ele>1540.57</ele>
        <time>2021-09-22T11:24:46.000Z</time>
      </trkpt>
      <trkpt lat="44.8304" lon="5.37638">
        <ele>1540.24</ele>
        <time>2021-09-22T11:24:55.781Z</time>
      </trkpt>
      <trkpt lat="44.83049" lon="5.37644">
        <ele>1539.65</ele>
        <time>2021-09-22T11:25:05.000Z</time>
      </trkpt>
      <trkpt lat="44.83048" lon="5.37645">
        <ele>1539.18</ele>
        <time>2021-09-22T11:25:15.000Z</time>
      </trkpt>
      <trkpt lat="44.83052" lon="5.37645">
        <ele>1539.48</ele>
        <time>2021-09-22T11:25:25.781Z</time>
      </trkpt>
      <trkpt lat="44.8306" lon="5.37644">
        <ele>1540.41</ele>
        <time>2021-09-22T11:25:35.000Z</time>
      </trkpt>
      <trkpt lat="44.83063" lon="5.37643">
        <ele>1540.7</ele>
        <time>2021-09-22T11:25:44.765Z</time>
      </trkpt>
      <trkpt lat="44.8307" lon="5.37644">
        <ele>1540.92</ele>
        <time>2021-09-22T11:25:54.090Z</time>
      </trkpt>
      <trkpt lat="44.8308" lon="5.3765">
        <ele>1540.81</ele>
        <time>2021-09-22T11:26:03.786Z</time>
      </trkpt>
      <trkpt lat="44.83088" lon="5.37655">
        <ele>1540.84</ele>
        <time>2021-09-22T11:26:12.793Z</time>
      </trkpt>
      <trkpt lat="44.83097" lon="5.37663">
        <ele>1540.38</ele>
        <time>2021-09-22T11:26:22.785Z</time>
      </trkpt>
      <trkpt lat="44.83104" lon="5.3767">
        <ele>1539.6</ele>
        <time>2021-09-22T11:26:32.778Z</time>
      </trkpt>
      <trkpt lat="44.83104" lon="5.37673">
        <ele>1539.12</ele>
        <time>2021-09-22T11:26:42.000Z</time>
      </trkpt>
      <trkpt lat="44.83105" lon="5.37675">
        <ele>1538.82</ele>
        <time>2021-09-22T11:26:52.000Z</time>
      </trkpt>
      <trkpt lat="44.83105" lon="5.37673">
        <ele>1539.19</ele>
        <time>2021-09-22T11:27:02.000Z</time>
      </trkpt>
      <trkpt lat="44.83105" lon="5.37672">
        <ele>1539.35</ele>
        <time>2021-09-22T11:27:17.724Z</time>
      </trkpt>
      <trkpt lat="44.83104" lon="5.37672">
        <ele>1539.31</ele>
        <time>2021-09-22T11:27:27.000Z</time>
      </trkpt>
      <trkpt lat="44.83104" lon="5.37675">
        <ele>1538.72</ele>
        <time>2021-09-22T11:27:37.000Z</time>
      </trkpt>
      <trkpt lat="44.83104" lon="5.37677">
        <ele>1538.47</ele>
        <time>2021-09-22T11:27:52.000Z</time>
      </trkpt>
      <trkpt lat="44.83104" lon="5.37678">
        <ele>1538.2</ele>
        <time>2021-09-22T11:28:02.000Z</time>
      </trkpt>
      <trkpt lat="44.83105" lon="5.37677">
        <ele>1538.42</ele>
        <time>2021-09-22T11:28:18.734Z</time>
      </trkpt>
      <trkpt lat="44.83104" lon="5.37677">
        <ele>1538.37</ele>
        <time>2021-09-22T11:28:45.000Z</time>
      </trkpt>
      <trkpt lat="44.83104" lon="5.37678">
        <ele>1538.11</ele>
        <time>2021-09-22T11:28:57.227Z</time>
      </trkpt>
      <trkpt lat="44.83105" lon="5.37682">
        <ele>1537.33</ele>
        <time>2021-09-22T11:29:07.000Z</time>
      </trkpt>
      <trkpt lat="44.83106" lon="5.37683">
        <ele>1537.06</ele>
        <time>2021-09-22T11:29:20.000Z</time>
      </trkpt>
      <trkpt lat="44.83106" lon="5.37687">
        <ele>1536.25</ele>
        <time>2021-09-22T11:29:30.000Z</time>
      </trkpt>
      <trkpt lat="44.83106" lon="5.37688">
        <ele>1535.94</ele>
        <time>2021-09-22T11:29:46.000Z</time>
      </trkpt>
      <trkpt lat="44.83107" lon="5.37689">
        <ele>1535.63</ele>
        <time>2021-09-22T11:30:04.000Z</time>
      </trkpt>
      <trkpt lat="44.83109" lon="5.37697">
        <ele>1533.59</ele>
        <time>2021-09-22T11:30:14.785Z</time>
      </trkpt>
      <trkpt lat="44.83112" lon="5.37706">
        <ele>1530.98</ele>
        <time>2021-09-22T11:30:24.789Z</time>
      </trkpt>
      <trkpt lat="44.83119" lon="5.37711">
        <ele>1529.79</ele>
        <time>2021-09-22T11:30:33.812Z</time>
      </trkpt>
      <trkpt lat="44.83119" lon="5.37721">
        <ele>1526.57</ele>
        <time>2021-09-22T11:30:44.000Z</time>
      </trkpt>
      <trkpt lat="44.8312" lon="5.37733">
        <ele>1523.01</ele>
        <time>2021-09-22T11:30:53.793Z</time>
      </trkpt>
      <trkpt lat="44.83121" lon="5.37744">
        <ele>1519.96</ele>
        <time>2021-09-22T11:31:03.000Z</time>
      </trkpt>
      <trkpt lat="44.83118" lon="5.3774">
        <ele>1520.76</ele>
        <time>2021-09-22T11:31:13.000Z</time>
      </trkpt>
      <trkpt lat="44.83117" lon="5.37739">
        <ele>1520.85</ele>
        <time>2021-09-22T11:31:22.739Z</time>
      </trkpt>
      <trkpt lat="44.83122" lon="5.37744">
        <ele>1519.94</ele>
        <time>2021-09-22T11:31:31.765Z</time>
      </trkpt>
      <trkpt lat="44.83126" lon="5.37751">
        <ele>1518.59</ele>
        <time>2021-09-22T11:31:41.156Z</time>
      </trkpt>
      <trkpt lat="44.8313" lon="5.37767">
        <ele>1515.2</ele>
        <time>2021-09-22T11:31:50.779Z</time>
      </trkpt>
      <trkpt lat="44.83131" lon="5.37782">
        <ele>1511.2</ele>
        <time>2021-09-22T11:32:01.373Z</time>
      </trkpt>
      <trkpt lat="44.83131" lon="5.37796">
        <ele>1507.35</ele>
        <time>2021-09-22T11:32:10.774Z</time>
      </trkpt>
      <trkpt lat="44.83133" lon="5.37809">
        <ele>1504.5</ele>
        <time>2021-09-22T11:32:20.017Z</time>
      </trkpt>
      <trkpt lat="44.83134" lon="5.37823">
        <ele>1501.89</ele>
        <time>2021-09-22T11:32:29.475Z</time>
      </trkpt>
      <trkpt lat="44.83137" lon="5.37836">
        <ele>1500.92</ele>
        <time>2021-09-22T11:32:38.839Z</time>
      </trkpt>
      <trkpt lat="44.83138" lon="5.37851">
        <ele>1499.97</ele>
        <time>2021-09-22T11:32:48.238Z</time>
      </trkpt>
      <trkpt lat="44.83133" lon="5.37862">
        <ele>1498.89</ele>
        <time>2021-09-22T11:32:58.000Z</time>
      </trkpt>
      <trkpt lat="44.8313" lon="5.37874">
        <ele>1498.79</ele>
        <time>2021-09-22T11:33:07.194Z</time>
      </trkpt>
      <trkpt lat="44.83137" lon="5.37882">
        <ele>1499.82</ele>
        <time>2021-09-22T11:33:16.797Z</time>
      </trkpt>
      <trkpt lat="44.83139" lon="5.379">
        <ele>1500.08</ele>
        <time>2021-09-22T11:33:26.793Z</time>
      </trkpt>
      <trkpt lat="44.83132" lon="5.37908">
        <ele>1500.11</ele>
        <time>2021-09-22T11:33:35.819Z</time>
      </trkpt>
      <trkpt lat="44.83129" lon="5.37908">
        <ele>1500.16</ele>
        <time>2021-09-22T11:33:46.000Z</time>
      </trkpt>
      <trkpt lat="44.83126" lon="5.3792">
        <ele>1500.12</ele>
        <time>2021-09-22T11:33:55.770Z</time>
      </trkpt>
      <trkpt lat="44.83125" lon="5.37921">
        <ele>1500.16</ele>
        <time>2021-09-22T11:34:05.753Z</time>
      </trkpt>
      <trkpt lat="44.83124" lon="5.37916">
        <ele>1500.32</ele>
        <time>2021-09-22T11:34:15.775Z</time>
      </trkpt>
      <trkpt lat="44.83121" lon="5.3792">
        <ele>1500.37</ele>
        <time>2021-09-22T11:34:25.420Z</time>
      </trkpt>
      <trkpt lat="44.83112" lon="5.37925">
        <ele>1500.92</ele>
        <time>2021-09-22T11:34:34.780Z</time>
      </trkpt>
      <trkpt lat="44.83114" lon="5.37941">
        <ele>1500.46</ele>
        <time>2021-09-22T11:34:43.794Z</time>
      </trkpt>
      <trkpt lat="44.83113" lon="5.37957">
        <ele>1500</ele>
        <time>2021-09-22T11:34:54.788Z</time>
      </trkpt>
      <trkpt lat="44.83107" lon="5.37964">
        <ele>1500.37</ele>
        <time>2021-09-22T11:35:04.000Z</time>
      </trkpt>
      <trkpt lat="44.83106" lon="5.37963">
        <ele>1500.51</ele>
        <time>2021-09-22T11:35:14.770Z</time>
      </trkpt>
      <trkpt lat="44.83099" lon="5.37977">
        <ele>1500.47</ele>
        <time>2021-09-22T11:35:25.778Z</time>
      </trkpt>
      <trkpt lat="44.83097" lon="5.37992">
        <ele>1499.59</ele>
        <time>2021-09-22T11:35:36.118Z</time>
      </trkpt>
      <trkpt lat="44.83094" lon="5.38006">
        <ele>1498.48</ele>
        <time>2021-09-22T11:35:45.791Z</time>
      </trkpt>
      <trkpt lat="44.83092" lon="5.38018">
        <ele>1497.12</ele>
        <time>2021-09-22T11:35:55.764Z</time>
      </trkpt>
      <trkpt lat="44.83089" lon="5.38033">
        <ele>1495.06</ele>
        <time>2021-09-22T11:36:05.762Z</time>
      </trkpt>
      <trkpt lat="44.83084" lon="5.38044">
        <ele>1493.09</ele>
        <time>2021-09-22T11:36:14.785Z</time>
      </trkpt>
      <trkpt lat="44.8308" lon="5.38056">
        <ele>1490.7</ele>
        <time>2021-09-22T11:36:24.766Z</time>
      </trkpt>
      <trkpt lat="44.83076" lon="5.38068">
        <ele>1488.32</ele>
        <time>2021-09-22T11:36:33.769Z</time>
      </trkpt>
      <trkpt lat="44.83071" lon="5.38079">
        <ele>1486.13</ele>
        <time>2021-09-22T11:36:42.785Z</time>
      </trkpt>
      <trkpt lat="44.83065" lon="5.38091">
        <ele>1483.71</ele>
        <time>2021-09-22T11:36:52.773Z</time>
      </trkpt>
      <trkpt lat="44.83064" lon="5.38106">
        <ele>1482.21</ele>
        <time>2021-09-22T11:37:02.772Z</time>
      </trkpt>
      <trkpt lat="44.8306" lon="5.38119">
        <ele>1480.59</ele>
        <time>2021-09-22T11:37:11.787Z</time>
      </trkpt>
      <trkpt lat="44.83059" lon="5.3813">
        <ele>1479.84</ele>
        <time>2021-09-22T11:37:21.779Z</time>
      </trkpt>
      <trkpt lat="44.83053" lon="5.38143">
        <ele>1478.51</ele>
        <time>2021-09-22T11:37:31.656Z</time>
      </trkpt>
      <trkpt lat="44.83049" lon="5.38157">
        <ele>1477.78</ele>
        <time>2021-09-22T11:37:40.781Z</time>
      </trkpt>
      <trkpt lat="44.83045" lon="5.38172">
        <ele>1477.28</ele>
        <time>2021-09-22T11:37:50.788Z</time>
      </trkpt>
      <trkpt lat="44.83041" lon="5.38188">
        <ele>1477.45</ele>
        <time>2021-09-22T11:38:01.416Z</time>
      </trkpt>
      <trkpt lat="44.83037" lon="5.38203">
        <ele>1478.43</ele>
        <time>2021-09-22T11:38:10.784Z</time>
      </trkpt>
      <trkpt lat="44.83033" lon="5.38215">
        <ele>1479.48</ele>
        <time>2021-09-22T11:38:20.613Z</time>
      </trkpt>
      <trkpt lat="44.8303" lon="5.38227">
        <ele>1480.57</ele>
        <time>2021-09-22T11:38:30.437Z</time>
      </trkpt>
      <trkpt lat="44.83025" lon="5.38239">
        <ele>1481.37</ele>
        <time>2021-09-22T11:38:39.767Z</time>
      </trkpt>
      <trkpt lat="44.8302" lon="5.38249">
        <ele>1481.53</ele>
        <time>2021-09-22T11:38:49.772Z</time>
      </trkpt>
      <trkpt lat="44.83014" lon="5.38259">
        <ele>1481</ele>
        <time>2021-09-22T11:38:58.777Z</time>
      </trkpt>
      <trkpt lat="44.83013" lon="5.38259">
        <ele>1480.91</ele>
        <time>2021-09-22T11:39:09.000Z</time>
      </trkpt>
      <trkpt lat="44.83011" lon="5.3826">
        <ele>1480.8</ele>
        <time>2021-09-22T11:39:26.000Z</time>
      </trkpt>
      <trkpt lat="44.83002" lon="5.38267">
        <ele>1479.27</ele>
        <time>2021-09-22T11:39:35.299Z</time>
      </trkpt>
      <trkpt lat="44.82993" lon="5.38279">
        <ele>1476.94</ele>
        <time>2021-09-22T11:39:45.000Z</time>
      </trkpt>
      <trkpt lat="44.82985" lon="5.38286">
        <ele>1475.62</ele>
        <time>2021-09-22T11:39:54.434Z</time>
      </trkpt>
      <trkpt lat="44.82976" lon="5.38293">
        <ele>1475</ele>
        <time>2021-09-22T11:40:03.777Z</time>
      </trkpt>
      <trkpt lat="44.82976" lon="5.38291">
        <ele>1474.86</ele>
        <time>2021-09-22T11:40:13.774Z</time>
      </trkpt>
      <trkpt lat="44.82966" lon="5.38294">
        <ele>1474.43</ele>
        <time>2021-09-22T11:40:22.791Z</time>
      </trkpt>
      <trkpt lat="44.82952" lon="5.38292">
        <ele>1471.47</ele>
        <time>2021-09-22T11:40:32.768Z</time>
      </trkpt>
      <trkpt lat="44.82941" lon="5.38288">
        <ele>1465.79</ele>
        <time>2021-09-22T11:40:41.997Z</time>
      </trkpt>
      <trkpt lat="44.82928" lon="5.38284">
        <ele>1456.35</ele>
        <time>2021-09-22T11:40:52.784Z</time>
      </trkpt>
      <trkpt lat="44.82925" lon="5.38282">
        <ele>1454.05</ele>
        <time>2021-09-22T11:41:02.747Z</time>
      </trkpt>
      <trkpt lat="44.82926" lon="5.38286">
        <ele>1457.04</ele>
        <time>2021-09-22T11:41:11.760Z</time>
      </trkpt>
      <trkpt lat="44.82927" lon="5.3829">
        <ele>1460.53</ele>
        <time>2021-09-22T11:41:20.912Z</time>
      </trkpt>
      <trkpt lat="44.82926" lon="5.38296">
        <ele>1463.02</ele>
        <time>2021-09-22T11:41:30.765Z</time>
      </trkpt>
      <trkpt lat="44.82932" lon="5.38308">
        <ele>1473.16</ele>
        <time>2021-09-22T11:41:40.786Z</time>
      </trkpt>
      <trkpt lat="44.82935" lon="5.38319">
        <ele>1479.1</ele>
        <time>2021-09-22T11:41:50.920Z</time>
      </trkpt>
      <trkpt lat="44.82929" lon="5.38317">
        <ele>1476.35</ele>
        <time>2021-09-22T11:42:00.000Z</time>
      </trkpt>
      <trkpt lat="44.8293" lon="5.38317">
        <ele>1476.75</ele>
        <time>2021-09-22T11:42:16.000Z</time>
      </trkpt>
      <trkpt lat="44.8293" lon="5.38317">
        <ele>1477.16</ele>
        <time>2021-09-22T11:42:35.967Z</time>
      </trkpt>
      <trkpt lat="44.82929" lon="5.38328">
        <ele>1480.45</ele>
        <time>2021-09-22T11:42:46.402Z</time>
      </trkpt>
      <trkpt lat="44.82921" lon="5.3834">
        <ele>1478.79</ele>
        <time>2021-09-22T11:42:56.278Z</time>
      </trkpt>
      <trkpt lat="44.82915" lon="5.38349">
        <ele>1475.03</ele>
        <time>2021-09-22T11:43:05.658Z</time>
      </trkpt>
      <trkpt lat="44.82914" lon="5.38355">
        <ele>1473.68</ele>
        <time>2021-09-22T11:43:14.779Z</time>
      </trkpt>
      <trkpt lat="44.82907" lon="5.38357">
        <ele>1466.66</ele>
        <time>2021-09-22T11:43:24.557Z</time>
      </trkpt>
      <trkpt lat="44.82907" lon="5.38359">
        <ele>1465.71</ele>
        <time>2021-09-22T11:43:34.000Z</time>
      </trkpt>
      <trkpt lat="44.82905" lon="5.3836">
        <ele>1464.08</ele>
        <time>2021-09-22T11:43:44.758Z</time>
      </trkpt>
      <trkpt lat="44.829" lon="5.38371">
        <ele>1454.98</ele>
        <time>2021-09-22T11:43:53.792Z</time>
      </trkpt>
      <trkpt lat="44.82907" lon="5.3838">
        <ele>1462.03</ele>
        <time>2021-09-22T11:44:03.000Z</time>
      </trkpt>
      <trkpt lat="44.82905" lon="5.3838">
        <ele>1459.53</ele>
        <time>2021-09-22T11:44:13.000Z</time>
      </trkpt>
      <trkpt lat="44.82904" lon="5.38382">
        <ele>1458.35</ele>
        <time>2021-09-22T11:44:25.785Z</time>
      </trkpt>
      <trkpt lat="44.82903" lon="5.38387">
        <ele>1456.14</ele>
        <time>2021-09-22T11:44:36.000Z</time>
      </trkpt>
      <trkpt lat="44.82905" lon="5.38384">
        <ele>1458.28</ele>
        <time>2021-09-22T11:44:46.000Z</time>
      </trkpt>
      <trkpt lat="44.82904" lon="5.38382">
        <ele>1458.61</ele>
        <time>2021-09-22T11:44:57.000Z</time>
      </trkpt>
      <trkpt lat="44.82904" lon="5.3838">
        <ele>1458.87</ele>
        <time>2021-09-22T11:45:41.000Z</time>
      </trkpt>
      <trkpt lat="44.82906" lon="5.38382">
        <ele>1460.07</ele>
        <time>2021-09-22T11:45:50.763Z</time>
      </trkpt>
      <trkpt lat="44.82906" lon="5.38381">
        <ele>1460.34</ele>
        <time>2021-09-22T11:46:06.000Z</time>
      </trkpt>
      <trkpt lat="44.82905" lon="5.38381">
        <ele>1459.07</ele>
        <time>2021-09-22T11:46:18.000Z</time>
      </trkpt>
      <trkpt lat="44.82906" lon="5.38383">
        <ele>1460.07</ele>
        <time>2021-09-22T11:46:27.612Z</time>
      </trkpt>
      <trkpt lat="44.82905" lon="5.38385">
        <ele>1459.01</ele>
        <time>2021-09-22T11:46:38.198Z</time>
      </trkpt>
      <trkpt lat="44.82903" lon="5.38388">
        <ele>1455.5</ele>
        <time>2021-09-22T11:46:48.000Z</time>
      </trkpt>
      <trkpt lat="44.82904" lon="5.38389">
        <ele>1455.92</ele>
        <time>2021-09-22T11:47:00.761Z</time>
      </trkpt>
      <trkpt lat="44.82904" lon="5.3839">
        <ele>1456.19</ele>
        <time>2021-09-22T11:47:10.000Z</time>
      </trkpt>
      <trkpt lat="44.82904" lon="5.38394">
        <ele>1455.72</ele>
        <time>2021-09-22T11:47:20.000Z</time>
      </trkpt>
      <trkpt lat="44.82906" lon="5.38394">
        <ele>1457.6</ele>
        <time>2021-09-22T11:47:30.000Z</time>
      </trkpt>
      <trkpt lat="44.82909" lon="5.38394">
        <ele>1461.3</ele>
        <time>2021-09-22T11:47:39.749Z</time>
      </trkpt>
      <trkpt lat="44.82914" lon="5.38394">
        <ele>1466.38</ele>
        <time>2021-09-22T11:47:49.757Z</time>
      </trkpt>
      <trkpt lat="44.82915" lon="5.38399">
        <ele>1466.15</ele>
        <time>2021-09-22T11:47:59.000Z</time>
      </trkpt>
      <trkpt lat="44.82914" lon="5.384">
        <ele>1465.52</ele>
        <time>2021-09-22T11:48:10.000Z</time>
      </trkpt>
      <trkpt lat="44.82919" lon="5.38404">
        <ele>1468.23</ele>
        <time>2021-09-22T11:48:19.748Z</time>
      </trkpt>
      <trkpt lat="44.8292" lon="5.38412">
        <ele>1467.18</ele>
        <time>2021-09-22T11:48:29.272Z</time>
      </trkpt>
      <trkpt lat="44.82923" lon="5.38419">
        <ele>1467.36</ele>
        <time>2021-09-22T11:48:38.657Z</time>
      </trkpt>
      <trkpt lat="44.82926" lon="5.38425">
        <ele>1467.91</ele>
        <time>2021-09-22T11:48:48.802Z</time>
      </trkpt>
      <trkpt lat="44.82927" lon="5.38426">
        <ele>1468.03</ele>
        <time>2021-09-22T11:48:58.000Z</time>
      </trkpt>
      <trkpt lat="44.82934" lon="5.38435">
        <ele>1468.4</ele>
        <time>2021-09-22T11:49:07.781Z</time>
      </trkpt>
      <trkpt lat="44.82941" lon="5.38443">
        <ele>1467.19</ele>
        <time>2021-09-22T11:49:17.777Z</time>
      </trkpt>
      <trkpt lat="44.82933" lon="5.38455">
        <ele>1466.02</ele>
        <time>2021-09-22T11:49:27.898Z</time>
      </trkpt>
      <trkpt lat="44.82928" lon="5.38467">
        <ele>1463.88</ele>
        <time>2021-09-22T11:49:36.954Z</time>
      </trkpt>
      <trkpt lat="44.82927" lon="5.3848">
        <ele>1460.71</ele>
        <time>2021-09-22T11:49:46.773Z</time>
      </trkpt>
      <trkpt lat="44.82932" lon="5.38489">
        <ele>1458.14</ele>
        <time>2021-09-22T11:49:55.776Z</time>
      </trkpt>
      <trkpt lat="44.82931" lon="5.38502">
        <ele>1452.39</ele>
        <time>2021-09-22T11:50:05.794Z</time>
      </trkpt>
      <trkpt lat="44.82929" lon="5.38505">
        <ele>1450.43</ele>
        <time>2021-09-22T11:50:15.000Z</time>
      </trkpt>
      <trkpt lat="44.8293" lon="5.38504">
        <ele>1451.14</ele>
        <time>2021-09-22T11:50:27.766Z</time>
      </trkpt>
      <trkpt lat="44.82941" lon="5.38498">
        <ele>1453.11</ele>
        <time>2021-09-22T11:50:37.787Z</time>
      </trkpt>
      <trkpt lat="44.82941" lon="5.38508">
        <ele>1448.28</ele>
        <time>2021-09-22T11:50:47.000Z</time>
      </trkpt>
      <trkpt lat="44.82941" lon="5.38506">
        <ele>1449.45</ele>
        <time>2021-09-22T11:50:57.000Z</time>
      </trkpt>
      <trkpt lat="44.82942" lon="5.38507">
        <ele>1448.61</ele>
        <time>2021-09-22T11:51:19.000Z</time>
      </trkpt>
      <trkpt lat="44.82951" lon="5.38511">
        <ele>1444.28</ele>
        <time>2021-09-22T11:51:28.750Z</time>
      </trkpt>
      <trkpt lat="44.82959" lon="5.38507">
        <ele>1443.25</ele>
        <time>2021-09-22T11:51:37.780Z</time>
      </trkpt>
      <trkpt lat="44.82965" lon="5.38503">
        <ele>1442.33</ele>
        <time>2021-09-22T11:51:47.333Z</time>
      </trkpt>
      <trkpt lat="44.82973" lon="5.38498">
        <ele>1439.96</ele>
        <time>2021-09-22T11:51:56.771Z</time>
      </trkpt>
      <trkpt lat="44.82977" lon="5.38495">
        <ele>1438.94</ele>
        <time>2021-09-22T11:52:06.000Z</time>
      </trkpt>
      <trkpt lat="44.82976" lon="5.38495">
        <ele>1439.53</ele>
        <time>2021-09-22T11:52:22.000Z</time>
      </trkpt>
      <trkpt lat="44.82975" lon="5.38495">
        <ele>1439.92</ele>
        <time>2021-09-22T11:52:39.000Z</time>
      </trkpt>
      <trkpt lat="44.8297" lon="5.38502">
        <ele>1440.12</ele>
        <time>2021-09-22T11:52:48.815Z</time>
      </trkpt>
      <trkpt lat="44.82963" lon="5.38503">
        <ele>1443.21</ele>
        <time>2021-09-22T11:52:58.000Z</time>
      </trkpt>
      <trkpt lat="44.82963" lon="5.38504">
        <ele>1442.41</ele>
        <time>2021-09-22T11:53:36.775Z</time>
      </trkpt>
      <trkpt lat="44.82965" lon="5.38506">
        <ele>1441.25</ele>
        <time>2021-09-22T11:53:46.774Z</time>
      </trkpt>
      <trkpt lat="44.82964" lon="5.38516">
        <ele>1437.57</ele>
        <time>2021-09-22T11:53:56.312Z</time>
      </trkpt>
      <trkpt lat="44.82965" lon="5.38517">
        <ele>1436.88</ele>
        <time>2021-09-22T11:54:12.769Z</time>
      </trkpt>
      <trkpt lat="44.82966" lon="5.38518">
        <ele>1436.12</ele>
        <time>2021-09-22T11:54:21.771Z</time>
      </trkpt>
      <trkpt lat="44.8296" lon="5.38534">
        <ele>1430.56</ele>
        <time>2021-09-22T11:54:31.772Z</time>
      </trkpt>
      <trkpt lat="44.8296" lon="5.38548">
        <ele>1423</ele>
        <time>2021-09-22T11:54:41.767Z</time>
      </trkpt>
      <trkpt lat="44.82964" lon="5.38556">
        <ele>1419.05</ele>
        <time>2021-09-22T11:54:50.768Z</time>
      </trkpt>
      <trkpt lat="44.82963" lon="5.38566">
        <ele>1413.55</ele>
        <time>2021-09-22T11:55:00.767Z</time>
      </trkpt>
      <trkpt lat="44.82966" lon="5.38575">
        <ele>1409.21</ele>
        <time>2021-09-22T11:55:09.771Z</time>
      </trkpt>
      <trkpt lat="44.82963" lon="5.38575">
        <ele>1408.05</ele>
        <time>2021-09-22T11:55:19.000Z</time>
      </trkpt>
      <trkpt lat="44.82965" lon="5.38575">
        <ele>1408.69</ele>
        <time>2021-09-22T11:55:42.000Z</time>
      </trkpt>
      <trkpt lat="44.8297" lon="5.38578">
        <ele>1408.8</ele>
        <time>2021-09-22T11:55:51.764Z</time>
      </trkpt>
      <trkpt lat="44.82972" lon="5.38577">
        <ele>1409.93</ele>
        <time>2021-09-22T11:56:04.770Z</time>
      </trkpt>
      <trkpt lat="44.82981" lon="5.38581">
        <ele>1410.28</ele>
        <time>2021-09-22T11:56:14.778Z</time>
      </trkpt>
      <trkpt lat="44.82987" lon="5.38585">
        <ele>1410.09</ele>
        <time>2021-09-22T11:56:23.784Z</time>
      </trkpt>
      <trkpt lat="44.82995" lon="5.38588">
        <ele>1409.89</ele>
        <time>2021-09-22T11:56:33.770Z</time>
      </trkpt>
      <trkpt lat="44.83001" lon="5.38593">
        <ele>1407.83</ele>
        <time>2021-09-22T11:56:42.779Z</time>
      </trkpt>
      <trkpt lat="44.83004" lon="5.38594">
        <ele>1407.94</ele>
        <time>2021-09-22T11:56:51.786Z</time>
      </trkpt>
      <trkpt lat="44.83014" lon="5.38595">
        <ele>1407.08</ele>
        <time>2021-09-22T11:57:01.789Z</time>
      </trkpt>
      <trkpt lat="44.83016" lon="5.386">
        <ele>1404.75</ele>
        <time>2021-09-22T11:57:11.117Z</time>
      </trkpt>
      <trkpt lat="44.83024" lon="5.38603">
        <ele>1402.17</ele>
        <time>2021-09-22T11:57:20.210Z</time>
      </trkpt>
      <trkpt lat="44.83033" lon="5.38602">
        <ele>1401.38</ele>
        <time>2021-09-22T11:57:29.518Z</time>
      </trkpt>
      <trkpt lat="44.83041" lon="5.38606">
        <ele>1398.39</ele>
        <time>2021-09-22T11:57:38.673Z</time>
      </trkpt>
      <trkpt lat="44.8305" lon="5.38608">
        <ele>1395.9</ele>
        <time>2021-09-22T11:57:47.785Z</time>
      </trkpt>
      <trkpt lat="44.83057" lon="5.38611">
        <ele>1393.62</ele>
        <time>2021-09-22T11:57:56.787Z</time>
      </trkpt>
      <trkpt lat="44.83064" lon="5.3862">
        <ele>1390.85</ele>
        <time>2021-09-22T11:58:05.788Z</time>
      </trkpt>
      <trkpt lat="44.83071" lon="5.38629">
        <ele>1388.92</ele>
        <time>2021-09-22T11:58:15.771Z</time>
      </trkpt>
      <trkpt lat="44.83079" lon="5.3863">
        <ele>1388.29</ele>
        <time>2021-09-22T11:58:24.776Z</time>
      </trkpt>
      <trkpt lat="44.83089" lon="5.38633">
        <ele>1387.52</ele>
        <time>2021-09-22T11:58:33.784Z</time>
      </trkpt>
      <trkpt lat="44.83099" lon="5.38636">
        <ele>1386.14</ele>
        <time>2021-09-22T11:58:43.774Z</time>
      </trkpt>
      <trkpt lat="44.83108" lon="5.38641">
        <ele>1384.3</ele>
        <time>2021-09-22T11:58:53.780Z</time>
      </trkpt>
      <trkpt lat="44.83116" lon="5.38645">
        <ele>1382.1</ele>
        <time>2021-09-22T11:59:02.809Z</time>
      </trkpt>
      <trkpt lat="44.83122" lon="5.38643">
        <ele>1381</ele>
        <time>2021-09-22T11:59:12.000Z</time>
      </trkpt>
      <trkpt lat="44.83122" lon="5.38644">
        <ele>1380.89</ele>
        <time>2021-09-22T11:59:22.000Z</time>
      </trkpt>
      <trkpt lat="44.83121" lon="5.38646">
        <ele>1380.83</ele>
        <time>2021-09-22T11:59:32.000Z</time>
      </trkpt>
      <trkpt lat="44.83122" lon="5.38647">
        <ele>1380.42</ele>
        <time>2021-09-22T11:59:42.495Z</time>
      </trkpt>
      <trkpt lat="44.8313" lon="5.38653">
        <ele>1377.48</ele>
        <time>2021-09-22T11:59:52.000Z</time>
      </trkpt>
      <trkpt lat="44.83137" lon="5.38646">
        <ele>1376.95</ele>
        <time>2021-09-22T12:00:02.248Z</time>
      </trkpt>
      <trkpt lat="44.83149" lon="5.3865">
        <ele>1373.21</ele>
        <time>2021-09-22T12:00:11.770Z</time>
      </trkpt>
      <trkpt lat="44.8316" lon="5.38655">
        <ele>1369.9</ele>
        <time>2021-09-22T12:00:21.774Z</time>
      </trkpt>
      <trkpt lat="44.83164" lon="5.38659">
        <ele>1368.27</ele>
        <time>2021-09-22T12:00:30.775Z</time>
      </trkpt>
      <trkpt lat="44.83174" lon="5.38658">
        <ele>1367.09</ele>
        <time>2021-09-22T12:00:39.777Z</time>
      </trkpt>
      <trkpt lat="44.83187" lon="5.38658">
        <ele>1365.44</ele>
        <time>2021-09-22T12:00:49.768Z</time>
      </trkpt>
      <trkpt lat="44.832" lon="5.38666">
        <ele>1362.04</ele>
        <time>2021-09-22T12:00:59.804Z</time>
      </trkpt>
      <trkpt lat="44.83212" lon="5.38674">
        <ele>1358.79</ele>
        <time>2021-09-22T12:01:09.348Z</time>
      </trkpt>
      <trkpt lat="44.83223" lon="5.38678">
        <ele>1356.77</ele>
        <time>2021-09-22T12:01:18.771Z</time>
      </trkpt>
      <trkpt lat="44.83234" lon="5.38681">
        <ele>1355.15</ele>
        <time>2021-09-22T12:01:28.765Z</time>
      </trkpt>
      <trkpt lat="44.83243" lon="5.38687">
        <ele>1353.43</ele>
        <time>2021-09-22T12:01:37.780Z</time>
      </trkpt>
      <trkpt lat="44.83253" lon="5.38691">
        <ele>1352.26</ele>
        <time>2021-09-22T12:01:47.210Z</time>
      </trkpt>
      <trkpt lat="44.83263" lon="5.38699">
        <ele>1350.75</ele>
        <time>2021-09-22T12:01:56.763Z</time>
      </trkpt>
      <trkpt lat="44.83272" lon="5.38695">
        <ele>1350.92</ele>
        <time>2021-09-22T12:02:05.802Z</time>
      </trkpt>
      <trkpt lat="44.83282" lon="5.38698">
        <ele>1350.32</ele>
        <time>2021-09-22T12:02:15.792Z</time>
      </trkpt>
      <trkpt lat="44.83293" lon="5.38699">
        <ele>1349.88</ele>
        <time>2021-09-22T12:02:25.783Z</time>
      </trkpt>
      <trkpt lat="44.83302" lon="5.38699">
        <ele>1349.64</ele>
        <time>2021-09-22T12:02:34.794Z</time>
      </trkpt>
      <trkpt lat="44.83313" lon="5.38699">
        <ele>1349.29</ele>
        <time>2021-09-22T12:02:44.708Z</time>
      </trkpt>
      <trkpt lat="44.83323" lon="5.38699">
        <ele>1348.83</ele>
        <time>2021-09-22T12:02:53.766Z</time>
      </trkpt>
      <trkpt lat="44.83334" lon="5.38694">
        <ele>1348.72</ele>
        <time>2021-09-22T12:03:03.762Z</time>
      </trkpt>
      <trkpt lat="44.83345" lon="5.38691">
        <ele>1348.27</ele>
        <time>2021-09-22T12:03:12.782Z</time>
      </trkpt>
      <trkpt lat="44.83356" lon="5.38683">
        <ele>1348.77</ele>
        <time>2021-09-22T12:03:22.777Z</time>
      </trkpt>
      <trkpt lat="44.83368" lon="5.3868">
        <ele>1348.1</ele>
        <time>2021-09-22T12:03:32.751Z</time>
      </trkpt>
      <trkpt lat="44.83378" lon="5.38674">
        <ele>1348.99</ele>
        <time>2021-09-22T12:03:41.783Z</time>
      </trkpt>
      <trkpt lat="44.83394" lon="5.38666">
        <ele>1350.71</ele>
        <time>2021-09-22T12:03:51.689Z</time>
      </trkpt>
      <trkpt lat="44.83412" lon="5.38657">
        <ele>1353.37</ele>
        <time>2021-09-22T12:04:01.799Z</time>
      </trkpt>
      <trkpt lat="44.83429" lon="5.38649">
        <ele>1356.39</ele>
        <time>2021-09-22T12:04:11.801Z</time>
      </trkpt>
      <trkpt lat="44.83445" lon="5.38643">
        <ele>1358.9</ele>
        <time>2021-09-22T12:04:21.779Z</time>
      </trkpt>
      <trkpt lat="44.83458" lon="5.38637">
        <ele>1361.14</ele>
        <time>2021-09-22T12:04:31.765Z</time>
      </trkpt>
      <trkpt lat="44.83468" lon="5.38632">
        <ele>1362.72</ele>
        <time>2021-09-22T12:04:41.760Z</time>
      </trkpt>
      <trkpt lat="44.83462" lon="5.38631">
        <ele>1362.75</ele>
        <time>2021-09-22T12:04:50.780Z</time>
      </trkpt>
      <trkpt lat="44.83468" lon="5.38627">
        <ele>1363.7</ele>
        <time>2021-09-22T12:05:00.784Z</time>
      </trkpt>
      <trkpt lat="44.83475" lon="5.38634">
        <ele>1362.46</ele>
        <time>2021-09-22T12:05:10.772Z</time>
      </trkpt>
      <trkpt lat="44.83483" lon="5.38645">
        <ele>1361.02</ele>
        <time>2021-09-22T12:05:20.546Z</time>
      </trkpt>
      <trkpt lat="44.83492" lon="5.38646">
        <ele>1361.2</ele>
        <time>2021-09-22T12:05:29.806Z</time>
      </trkpt>
      <trkpt lat="44.83496" lon="5.38647">
        <ele>1361.2</ele>
        <time>2021-09-22T12:05:39.770Z</time>
      </trkpt>
      <trkpt lat="44.83502" lon="5.3865">
        <ele>1360.96</ele>
        <time>2021-09-22T12:05:48.778Z</time>
      </trkpt>
      <trkpt lat="44.8351" lon="5.38656">
        <ele>1360.09</ele>
        <time>2021-09-22T12:05:57.811Z</time>
      </trkpt>
      <trkpt lat="44.83518" lon="5.38666">
        <ele>1358.68</ele>
        <time>2021-09-22T12:06:07.781Z</time>
      </trkpt>
      <trkpt lat="44.83525" lon="5.38676">
        <ele>1356.94</ele>
        <time>2021-09-22T12:06:17.780Z</time>
      </trkpt>
      <trkpt lat="44.83534" lon="5.38686">
        <ele>1355.48</ele>
        <time>2021-09-22T12:06:26.806Z</time>
      </trkpt>
      <trkpt lat="44.83543" lon="5.38687">
        <ele>1355.37</ele>
        <time>2021-09-22T12:06:36.272Z</time>
      </trkpt>
      <trkpt lat="44.83552" lon="5.38691">
        <ele>1354.95</ele>
        <time>2021-09-22T12:06:45.785Z</time>
      </trkpt>
      <trkpt lat="44.83564" lon="5.38694">
        <ele>1354.68</ele>
        <time>2021-09-22T12:06:55.770Z</time>
      </trkpt>
      <trkpt lat="44.83573" lon="5.38697">
        <ele>1354.51</ele>
        <time>2021-09-22T12:07:04.771Z</time>
      </trkpt>
      <trkpt lat="44.83584" lon="5.387">
        <ele>1354.66</ele>
        <time>2021-09-22T12:07:14.786Z</time>
      </trkpt>
      <trkpt lat="44.83594" lon="5.38705">
        <ele>1354.85</ele>
        <time>2021-09-22T12:07:24.784Z</time>
      </trkpt>
      <trkpt lat="44.83603" lon="5.38713">
        <ele>1354.99</ele>
        <time>2021-09-22T12:07:34.779Z</time>
      </trkpt>
      <trkpt lat="44.8361" lon="5.38724">
        <ele>1355.12</ele>
        <time>2021-09-22T12:07:44.776Z</time>
      </trkpt>
      <trkpt lat="44.83609" lon="5.3874">
        <ele>1354.51</ele>
        <time>2021-09-22T12:07:54.124Z</time>
      </trkpt>
      <trkpt lat="44.83602" lon="5.38746">
        <ele>1353.45</ele>
        <time>2021-09-22T12:08:03.803Z</time>
      </trkpt>
      <trkpt lat="44.83593" lon="5.38747">
        <ele>1352.28</ele>
        <time>2021-09-22T12:08:13.781Z</time>
      </trkpt>
      <trkpt lat="44.83584" lon="5.38746">
        <ele>1351.4</ele>
        <time>2021-09-22T12:08:23.045Z</time>
      </trkpt>
      <trkpt lat="44.83574" lon="5.38743">
        <ele>1350.71</ele>
        <time>2021-09-22T12:08:32.787Z</time>
      </trkpt>
      <trkpt lat="44.83563" lon="5.38744">
        <ele>1349.55</ele>
        <time>2021-09-22T12:08:42.773Z</time>
      </trkpt>
      <trkpt lat="44.83551" lon="5.38746">
        <ele>1348.19</ele>
        <time>2021-09-22T12:08:52.775Z</time>
      </trkpt>
      <trkpt lat="44.83541" lon="5.38746">
        <ele>1347.08</ele>
        <time>2021-09-22T12:09:02.803Z</time>
      </trkpt>
      <trkpt lat="44.83529" lon="5.38747">
        <ele>1345.47</ele>
        <time>2021-09-22T12:09:12.768Z</time>
      </trkpt>
      <trkpt lat="44.8352" lon="5.38749">
        <ele>1343.78</ele>
        <time>2021-09-22T12:09:21.787Z</time>
      </trkpt>
      <trkpt lat="44.83512" lon="5.38756">
        <ele>1340.87</ele>
        <time>2021-09-22T12:09:31.780Z</time>
      </trkpt>
      <trkpt lat="44.83502" lon="5.38755">
        <ele>1339.29</ele>
        <time>2021-09-22T12:09:41.769Z</time>
      </trkpt>
      <trkpt lat="44.83493" lon="5.38755">
        <ele>1336.92</ele>
        <time>2021-09-22T12:09:50.785Z</time>
      </trkpt>
      <trkpt lat="44.83484" lon="5.38755">
        <ele>1334.16</ele>
        <time>2021-09-22T12:10:00.926Z</time>
      </trkpt>
      <trkpt lat="44.83484" lon="5.38774">
        <ele>1329.32</ele>
        <time>2021-09-22T12:10:10.769Z</time>
      </trkpt>
      <trkpt lat="44.83491" lon="5.38783">
        <ele>1329.28</ele>
        <time>2021-09-22T12:10:19.774Z</time>
      </trkpt>
      <trkpt lat="44.835" lon="5.38791">
        <ele>1329.77</ele>
        <time>2021-09-22T12:10:28.785Z</time>
      </trkpt>
      <trkpt lat="44.83509" lon="5.388">
        <ele>1329.87</ele>
        <time>2021-09-22T12:10:38.793Z</time>
      </trkpt>
      <trkpt lat="44.83517" lon="5.38808">
        <ele>1329.92</ele>
        <time>2021-09-22T12:10:48.789Z</time>
      </trkpt>
      <trkpt lat="44.83526" lon="5.38817">
        <ele>1330.11</ele>
        <time>2021-09-22T12:10:58.793Z</time>
      </trkpt>
      <trkpt lat="44.83536" lon="5.38824">
        <ele>1330.91</ele>
        <time>2021-09-22T12:11:08.776Z</time>
      </trkpt>
      <trkpt lat="44.83545" lon="5.38829">
        <ele>1332.14</ele>
        <time>2021-09-22T12:11:17.790Z</time>
      </trkpt>
      <trkpt lat="44.83551" lon="5.38835">
        <ele>1332.24</ele>
        <time>2021-09-22T12:11:27.763Z</time>
      </trkpt>
      <trkpt lat="44.8356" lon="5.38841">
        <ele>1332.88</ele>
        <time>2021-09-22T12:11:36.774Z</time>
      </trkpt>
      <trkpt lat="44.8357" lon="5.38845">
        <ele>1333.87</ele>
        <time>2021-09-22T12:11:45.779Z</time>
      </trkpt>
      <trkpt lat="44.83579" lon="5.38848">
        <ele>1335.23</ele>
        <time>2021-09-22T12:11:54.789Z</time>
      </trkpt>
      <trkpt lat="44.8359" lon="5.38851">
        <ele>1336.47</ele>
        <time>2021-09-22T12:12:04.794Z</time>
      </trkpt>
      <trkpt lat="44.836" lon="5.38857">
        <ele>1336.4</ele>
        <time>2021-09-22T12:12:14.783Z</time>
      </trkpt>
      <trkpt lat="44.83609" lon="5.38863">
        <ele>1335.48</ele>
        <time>2021-09-22T12:12:24.787Z</time>
      </trkpt>
      <trkpt lat="44.83619" lon="5.38872">
        <ele>1332.89</ele>
        <time>2021-09-22T12:12:34.781Z</time>
      </trkpt>
      <trkpt lat="44.83626" lon="5.38879">
        <ele>1330.38</ele>
        <time>2021-09-22T12:12:43.788Z</time>
      </trkpt>
      <trkpt lat="44.83635" lon="5.38888">
        <ele>1327.36</ele>
        <time>2021-09-22T12:12:53.773Z</time>
      </trkpt>
      <trkpt lat="44.83644" lon="5.38894">
        <ele>1325.58</ele>
        <time>2021-09-22T12:13:02.777Z</time>
      </trkpt>
      <trkpt lat="44.83653" lon="5.38903">
        <ele>1323.15</ele>
        <time>2021-09-22T12:13:12.788Z</time>
      </trkpt>
      <trkpt lat="44.83661" lon="5.3891">
        <ele>1322.12</ele>
        <time>2021-09-22T12:13:21.794Z</time>
      </trkpt>
      <trkpt lat="44.8367" lon="5.38918">
        <ele>1321.33</ele>
        <time>2021-09-22T12:13:31.804Z</time>
      </trkpt>
      <trkpt lat="44.83674" lon="5.38932">
        <ele>1319.82</ele>
        <time>2021-09-22T12:13:41.774Z</time>
      </trkpt>
      <trkpt lat="44.83677" lon="5.38947">
        <ele>1319.08</ele>
        <time>2021-09-22T12:13:51.763Z</time>
      </trkpt>
      <trkpt lat="44.83674" lon="5.38962">
        <ele>1317.77</ele>
        <time>2021-09-22T12:14:00.792Z</time>
      </trkpt>
      <trkpt lat="44.83668" lon="5.3896">
        <ele>1316.55</ele>
        <time>2021-09-22T12:14:10.772Z</time>
      </trkpt>
      <trkpt lat="44.83666" lon="5.3896">
        <ele>1316.04</ele>
        <time>2021-09-22T12:14:20.000Z</time>
      </trkpt>
      <trkpt lat="44.8366" lon="5.38961">
        <ele>1315.01</ele>
        <time>2021-09-22T12:14:29.770Z</time>
      </trkpt>
      <trkpt lat="44.83648" lon="5.3897">
        <ele>1313.57</ele>
        <time>2021-09-22T12:14:38.780Z</time>
      </trkpt>
      <trkpt lat="44.8364" lon="5.38975">
        <ele>1313.11</ele>
        <time>2021-09-22T12:14:47.781Z</time>
      </trkpt>
      <trkpt lat="44.83631" lon="5.38982">
        <ele>1312.45</ele>
        <time>2021-09-22T12:14:57.796Z</time>
      </trkpt>
      <trkpt lat="44.83626" lon="5.38994">
        <ele>1309.92</ele>
        <time>2021-09-22T12:15:07.789Z</time>
      </trkpt>
      <trkpt lat="44.8363" lon="5.39007">
        <ele>1304.21</ele>
        <time>2021-09-22T12:15:16.794Z</time>
      </trkpt>
      <trkpt lat="44.8364" lon="5.39018">
        <ele>1300.01</ele>
        <time>2021-09-22T12:15:26.779Z</time>
      </trkpt>
      <trkpt lat="44.83647" lon="5.39027">
        <ele>1297.05</ele>
        <time>2021-09-22T12:15:36.780Z</time>
      </trkpt>
      <trkpt lat="44.83652" lon="5.3904">
        <ele>1292.61</ele>
        <time>2021-09-22T12:15:45.783Z</time>
      </trkpt>
      <trkpt lat="44.83655" lon="5.39047">
        <ele>1290.33</ele>
        <time>2021-09-22T12:15:55.000Z</time>
      </trkpt>
      <trkpt lat="44.8366" lon="5.39051">
        <ele>1291.64</ele>
        <time>2021-09-22T12:16:04.775Z</time>
      </trkpt>
      <trkpt lat="44.83667" lon="5.39059">
        <ele>1291.95</ele>
        <time>2021-09-22T12:16:13.777Z</time>
      </trkpt>
      <trkpt lat="44.83667" lon="5.39063">
        <ele>1290.02</ele>
        <time>2021-09-22T12:16:23.771Z</time>
      </trkpt>
      <trkpt lat="44.83669" lon="5.39073">
        <ele>1285.07</ele>
        <time>2021-09-22T12:16:33.765Z</time>
      </trkpt>
      <trkpt lat="44.83676" lon="5.39081">
        <ele>1283.69</ele>
        <time>2021-09-22T12:16:42.787Z</time>
      </trkpt>
      <trkpt lat="44.83682" lon="5.3908">
        <ele>1287.63</ele>
        <time>2021-09-22T12:16:52.000Z</time>
      </trkpt>
      <trkpt lat="44.83683" lon="5.39079">
        <ele>1288.95</ele>
        <time>2021-09-22T12:17:02.785Z</time>
      </trkpt>
      <trkpt lat="44.83694" lon="5.39087">
        <ele>1288.8</ele>
        <time>2021-09-22T12:17:13.775Z</time>
      </trkpt>
      <trkpt lat="44.83704" lon="5.39093">
        <ele>1287.85</ele>
        <time>2021-09-22T12:17:22.780Z</time>
      </trkpt>
      <trkpt lat="44.83714" lon="5.39093">
        <ele>1291.43</ele>
        <time>2021-09-22T12:17:32.783Z</time>
      </trkpt>
      <trkpt lat="44.83723" lon="5.39094">
        <ele>1294.04</ele>
        <time>2021-09-22T12:17:42.787Z</time>
      </trkpt>
      <trkpt lat="44.83724" lon="5.39096">
        <ele>1292.4</ele>
        <time>2021-09-22T12:17:52.000Z</time>
      </trkpt>
      <trkpt lat="44.83724" lon="5.39095">
        <ele>1293.56</ele>
        <time>2021-09-22T12:18:10.000Z</time>
      </trkpt>
      <trkpt lat="44.83726" lon="5.39096">
        <ele>1293.81</ele>
        <time>2021-09-22T12:18:19.789Z</time>
      </trkpt>
      <trkpt lat="44.83732" lon="5.391">
        <ele>1291.17</ele>
        <time>2021-09-22T12:18:29.777Z</time>
      </trkpt>
      <trkpt lat="44.83742" lon="5.39104">
        <ele>1290.93</ele>
        <time>2021-09-22T12:18:38.782Z</time>
      </trkpt>
      <trkpt lat="44.83746" lon="5.39102">
        <ele>1294.66</ele>
        <time>2021-09-22T12:18:48.772Z</time>
      </trkpt>
      <trkpt lat="44.83745" lon="5.39104">
        <ele>1292.95</ele>
        <time>2021-09-22T12:18:58.000Z</time>
      </trkpt>
      <trkpt lat="44.83745" lon="5.39106">
        <ele>1290.7</ele>
        <time>2021-09-22T12:19:08.000Z</time>
      </trkpt>
      <trkpt lat="44.83745" lon="5.39105">
        <ele>1291.84</ele>
        <time>2021-09-22T12:19:17.768Z</time>
      </trkpt>
      <trkpt lat="44.8375" lon="5.39108">
        <ele>1290.71</ele>
        <time>2021-09-22T12:19:26.785Z</time>
      </trkpt>
      <trkpt lat="44.83762" lon="5.39111">
        <ele>1292.29</ele>
        <time>2021-09-22T12:19:36.779Z</time>
      </trkpt>
      <trkpt lat="44.83771" lon="5.39114">
        <ele>1292.46</ele>
        <time>2021-09-22T12:19:45.791Z</time>
      </trkpt>
      <trkpt lat="44.83781" lon="5.39112">
        <ele>1297.67</ele>
        <time>2021-09-22T12:19:54.792Z</time>
      </trkpt>
      <trkpt lat="44.83787" lon="5.39113">
        <ele>1298.99</ele>
        <time>2021-09-22T12:20:04.783Z</time>
      </trkpt>
      <trkpt lat="44.83794" lon="5.39117">
        <ele>1296.25</ele>
        <time>2021-09-22T12:20:14.000Z</time>
      </trkpt>
      <trkpt lat="44.83794" lon="5.39119">
        <ele>1294.93</ele>
        <time>2021-09-22T12:20:23.780Z</time>
      </trkpt>
      <trkpt lat="44.83805" lon="5.39122">
        <ele>1295.22</ele>
        <time>2021-09-22T12:20:32.804Z</time>
      </trkpt>
      <trkpt lat="44.83817" lon="5.39122">
        <ele>1299.6</ele>
        <time>2021-09-22T12:20:42.797Z</time>
      </trkpt>
      <trkpt lat="44.83826" lon="5.39123">
        <ele>1302.32</ele>
        <time>2021-09-22T12:20:52.789Z</time>
      </trkpt>
      <trkpt lat="44.83834" lon="5.39123">
        <ele>1305.87</ele>
        <time>2021-09-22T12:21:02.800Z</time>
      </trkpt>
      <trkpt lat="44.83842" lon="5.39124">
        <ele>1309.07</ele>
        <time>2021-09-22T12:21:12.000Z</time>
      </trkpt>
      <trkpt lat="44.83845" lon="5.39129">
        <ele>1304.14</ele>
        <time>2021-09-22T12:21:21.772Z</time>
      </trkpt>
      <trkpt lat="44.83848" lon="5.39128">
        <ele>1306.28</ele>
        <time>2021-09-22T12:21:31.000Z</time>
      </trkpt>
      <trkpt lat="44.83849" lon="5.39128">
        <ele>1306.45</ele>
        <time>2021-09-22T12:21:40.768Z</time>
      </trkpt>
      <trkpt lat="44.83852" lon="5.39132">
        <ele>1303.7</ele>
        <time>2021-09-22T12:21:50.776Z</time>
      </trkpt>
      <trkpt lat="44.83855" lon="5.39131">
        <ele>1305.78</ele>
        <time>2021-09-22T12:21:59.791Z</time>
      </trkpt>
      <trkpt lat="44.83864" lon="5.39141">
        <ele>1296.82</ele>
        <time>2021-09-22T12:22:08.794Z</time>
      </trkpt>
      <trkpt lat="44.8387" lon="5.39145">
        <ele>1293.83</ele>
        <time>2021-09-22T12:22:19.000Z</time>
      </trkpt>
      <trkpt lat="44.83877" lon="5.39145">
        <ele>1297.28</ele>
        <time>2021-09-22T12:22:29.000Z</time>
      </trkpt>
      <trkpt lat="44.83877" lon="5.39143">
        <ele>1299.56</ele>
        <time>2021-09-22T12:22:39.000Z</time>
      </trkpt>
      <trkpt lat="44.8388" lon="5.39147">
        <ele>1295.28</ele>
        <time>2021-09-22T12:22:48.765Z</time>
      </trkpt>
      <trkpt lat="44.83882" lon="5.39161">
        <ele>1280.74</ele>
        <time>2021-09-22T12:22:58.756Z</time>
      </trkpt>
      <trkpt lat="44.83887" lon="5.39173">
        <ele>1272.75</ele>
        <time>2021-09-22T12:23:07.780Z</time>
      </trkpt>
      <trkpt lat="44.83894" lon="5.3918">
        <ele>1271.36</ele>
        <time>2021-09-22T12:23:16.793Z</time>
      </trkpt>
      <trkpt lat="44.83902" lon="5.39185">
        <ele>1271.85</ele>
        <time>2021-09-22T12:23:26.779Z</time>
      </trkpt>
      <trkpt lat="44.83909" lon="5.39195">
        <ele>1271</ele>
        <time>2021-09-22T12:23:35.796Z</time>
      </trkpt>
      <trkpt lat="44.83913" lon="5.3921">
        <ele>1269.28</ele>
        <time>2021-09-22T12:23:45.779Z</time>
      </trkpt>
      <trkpt lat="44.83916" lon="5.39209">
        <ele>1270.64</ele>
        <time>2021-09-22T12:23:55.772Z</time>
      </trkpt>
      <trkpt lat="44.83919" lon="5.39221">
        <ele>1270.58</ele>
        <time>2021-09-22T12:24:04.775Z</time>
      </trkpt>
      <trkpt lat="44.8392" lon="5.39232">
        <ele>1269.56</ele>
        <time>2021-09-22T12:24:13.787Z</time>
      </trkpt>
      <trkpt lat="44.83927" lon="5.39251">
        <ele>1268.18</ele>
        <time>2021-09-22T12:24:23.798Z</time>
      </trkpt>
      <trkpt lat="44.83932" lon="5.39267">
        <ele>1264.81</ele>
        <time>2021-09-22T12:24:33.775Z</time>
      </trkpt>
      <trkpt lat="44.83934" lon="5.39279">
        <ele>1260.9</ele>
        <time>2021-09-22T12:24:42.793Z</time>
      </trkpt>
      <trkpt lat="44.83938" lon="5.39292">
        <ele>1257.56</ele>
        <time>2021-09-22T12:24:51.800Z</time>
      </trkpt>
      <trkpt lat="44.83944" lon="5.39305">
        <ele>1255.26</ele>
        <time>2021-09-22T12:25:01.795Z</time>
      </trkpt>
      <trkpt lat="44.8395" lon="5.3932">
        <ele>1252.58</ele>
        <time>2021-09-22T12:25:11.784Z</time>
      </trkpt>
      <trkpt lat="44.83955" lon="5.39333">
        <ele>1251.92</ele>
        <time>2021-09-22T12:25:20.794Z</time>
      </trkpt>
      <trkpt lat="44.83962" lon="5.39344">
        <ele>1253.81</ele>
        <time>2021-09-22T12:25:30.790Z</time>
      </trkpt>
      <trkpt lat="44.83965" lon="5.39356">
        <ele>1255.08</ele>
        <time>2021-09-22T12:25:39.791Z</time>
      </trkpt>
      <trkpt lat="44.83963" lon="5.39369">
        <ele>1254.05</ele>
        <time>2021-09-22T12:25:49.783Z</time>
      </trkpt>
      <trkpt lat="44.83961" lon="5.39382">
        <ele>1254.15</ele>
        <time>2021-09-22T12:25:59.785Z</time>
      </trkpt>
      <trkpt lat="44.8396" lon="5.39393">
        <ele>1254.66</ele>
        <time>2021-09-22T12:26:08.786Z</time>
      </trkpt>
      <trkpt lat="44.8396" lon="5.3939">
        <ele>1254.33</ele>
        <time>2021-09-22T12:26:18.000Z</time>
      </trkpt>
      <trkpt lat="44.8396" lon="5.39386">
        <ele>1254.13</ele>
        <time>2021-09-22T12:26:28.000Z</time>
      </trkpt>
      <trkpt lat="44.8396" lon="5.39388">
        <ele>1254.2</ele>
        <time>2021-09-22T12:26:40.000Z</time>
      </trkpt>
      <trkpt lat="44.83961" lon="5.39397">
        <ele>1255.87</ele>
        <time>2021-09-22T12:26:49.763Z</time>
      </trkpt>
      <trkpt lat="44.83956" lon="5.39413">
        <ele>1255.06</ele>
        <time>2021-09-22T12:26:58.782Z</time>
      </trkpt>
      <trkpt lat="44.83951" lon="5.39424">
        <ele>1253.44</ele>
        <time>2021-09-22T12:27:08.826Z</time>
      </trkpt>
      <trkpt lat="44.83945" lon="5.39437">
        <ele>1252.33</ele>
        <time>2021-09-22T12:27:18.786Z</time>
      </trkpt>
      <trkpt lat="44.83944" lon="5.39443">
        <ele>1253.28</ele>
        <time>2021-09-22T12:27:28.000Z</time>
      </trkpt>
      <trkpt lat="44.83939" lon="5.39454">
        <ele>1252.99</ele>
        <time>2021-09-22T12:27:37.648Z</time>
      </trkpt>
      <trkpt lat="44.83934" lon="5.39469">
        <ele>1254.75</ele>
        <time>2021-09-22T12:27:46.763Z</time>
      </trkpt>
      <trkpt lat="44.83927" lon="5.39479">
        <ele>1254.1</ele>
        <time>2021-09-22T12:27:55.765Z</time>
      </trkpt>
      <trkpt lat="44.83916" lon="5.39486">
        <ele>1251.43</ele>
        <time>2021-09-22T12:28:04.800Z</time>
      </trkpt>
      <trkpt lat="44.83907" lon="5.39495">
        <ele>1249.81</ele>
        <time>2021-09-22T12:28:14.774Z</time>
      </trkpt>
      <trkpt lat="44.83897" lon="5.395">
        <ele>1246.81</ele>
        <time>2021-09-22T12:28:23.777Z</time>
      </trkpt>
      <trkpt lat="44.83889" lon="5.39511">
        <ele>1246.76</ele>
        <time>2021-09-22T12:28:32.798Z</time>
      </trkpt>
      <trkpt lat="44.83896" lon="5.39515">
        <ele>1251.13</ele>
        <time>2021-09-22T12:28:41.949Z</time>
      </trkpt>
      <trkpt lat="44.83889" lon="5.39516">
        <ele>1248.39</ele>
        <time>2021-09-22T12:28:51.783Z</time>
      </trkpt>
      <trkpt lat="44.83873" lon="5.3953">
        <ele>1246.19</ele>
        <time>2021-09-22T12:29:01.782Z</time>
      </trkpt>
      <trkpt lat="44.83868" lon="5.39541">
        <ele>1247.58</ele>
        <time>2021-09-22T12:29:10.801Z</time>
      </trkpt>
      <trkpt lat="44.8387" lon="5.39551">
        <ele>1251.32</ele>
        <time>2021-09-22T12:29:20.000Z</time>
      </trkpt>
      <trkpt lat="44.83871" lon="5.39562">
        <ele>1255.18</ele>
        <time>2021-09-22T12:29:29.787Z</time>
      </trkpt>
      <trkpt lat="44.83869" lon="5.39571">
        <ele>1256.48</ele>
        <time>2021-09-22T12:29:38.788Z</time>
      </trkpt>
      <trkpt lat="44.83865" lon="5.39578">
        <ele>1256.55</ele>
        <time>2021-09-22T12:29:48.782Z</time>
      </trkpt>
      <trkpt lat="44.83863" lon="5.39588">
        <ele>1257.53</ele>
        <time>2021-09-22T12:29:57.784Z</time>
      </trkpt>
      <trkpt lat="44.83863" lon="5.39599">
        <ele>1259.02</ele>
        <time>2021-09-22T12:30:06.785Z</time>
      </trkpt>
      <trkpt lat="44.83861" lon="5.39608">
        <ele>1259.11</ele>
        <time>2021-09-22T12:30:15.791Z</time>
      </trkpt>
      <trkpt lat="44.83857" lon="5.39616">
        <ele>1258.23</ele>
        <time>2021-09-22T12:30:24.793Z</time>
      </trkpt>
      <trkpt lat="44.83856" lon="5.39631">
        <ele>1258.82</ele>
        <time>2021-09-22T12:30:34.651Z</time>
      </trkpt>
      <trkpt lat="44.83852" lon="5.39642">
        <ele>1257.59</ele>
        <time>2021-09-22T12:30:44.403Z</time>
      </trkpt>
      <trkpt lat="44.83852" lon="5.39652">
        <ele>1258.6</ele>
        <time>2021-09-22T12:30:53.780Z</time>
      </trkpt>
      <trkpt lat="44.83851" lon="5.39663">
        <ele>1259.23</ele>
        <time>2021-09-22T12:31:03.606Z</time>
      </trkpt>
      <trkpt lat="44.83851" lon="5.39673">
        <ele>1260.43</ele>
        <time>2021-09-22T12:31:12.780Z</time>
      </trkpt>
      <trkpt lat="44.83851" lon="5.39684">
        <ele>1261.39</ele>
        <time>2021-09-22T12:31:21.801Z</time>
      </trkpt>
      <trkpt lat="44.83851" lon="5.39695">
        <ele>1262.79</ele>
        <time>2021-09-22T12:31:31.410Z</time>
      </trkpt>
      <trkpt lat="44.83851" lon="5.39709">
        <ele>1264.43</ele>
        <time>2021-09-22T12:31:40.781Z</time>
      </trkpt>
      <trkpt lat="44.83854" lon="5.39723">
        <ele>1267.66</ele>
        <time>2021-09-22T12:31:50.770Z</time>
      </trkpt>
      <trkpt lat="44.83853" lon="5.39737">
        <ele>1269.69</ele>
        <time>2021-09-22T12:32:00.791Z</time>
      </trkpt>
      <trkpt lat="44.83853" lon="5.39747">
        <ele>1271.57</ele>
        <time>2021-09-22T12:32:10.794Z</time>
      </trkpt>
      <trkpt lat="44.8385" lon="5.39756">
        <ele>1271.59</ele>
        <time>2021-09-22T12:32:19.798Z</time>
      </trkpt>
      <trkpt lat="44.83854" lon="5.39763">
        <ele>1275.39</ele>
        <time>2021-09-22T12:32:29.602Z</time>
      </trkpt>
      <trkpt lat="44.83854" lon="5.39767">
        <ele>1276.5</ele>
        <time>2021-09-22T12:32:38.778Z</time>
      </trkpt>
      <trkpt lat="44.83855" lon="5.39771">
        <ele>1277.98</ele>
        <time>2021-09-22T12:32:47.782Z</time>
      </trkpt>
      <trkpt lat="44.83856" lon="5.39771">
        <ele>1278.61</ele>
        <time>2021-09-22T12:32:57.759Z</time>
      </trkpt>
      <trkpt lat="44.83855" lon="5.39773">
        <ele>1278.66</ele>
        <time>2021-09-22T12:33:06.760Z</time>
      </trkpt>
      <trkpt lat="44.83857" lon="5.39777">
        <ele>1280.97</ele>
        <time>2021-09-22T12:33:16.784Z</time>
      </trkpt>
      <trkpt lat="44.8386" lon="5.39784">
        <ele>1284.7</ele>
        <time>2021-09-22T12:33:26.810Z</time>
      </trkpt>
      <trkpt lat="44.83861" lon="5.39792">
        <ele>1287.23</ele>
        <time>2021-09-22T12:33:37.774Z</time>
      </trkpt>
      <trkpt lat="44.8386" lon="5.3979">
        <ele>1286.45</ele>
        <time>2021-09-22T12:33:47.000Z</time>
      </trkpt>
      <trkpt lat="44.83861" lon="5.39795">
        <ele>1288.42</ele>
        <time>2021-09-22T12:33:57.794Z</time>
      </trkpt>
      <trkpt lat="44.83857" lon="5.39808">
        <ele>1290.11</ele>
        <time>2021-09-22T12:34:07.786Z</time>
      </trkpt>
      <trkpt lat="44.8385" lon="5.39816">
        <ele>1289</ele>
        <time>2021-09-22T12:34:18.000Z</time>
      </trkpt>
      <trkpt lat="44.83843" lon="5.39822">
        <ele>1286.99</ele>
        <time>2021-09-22T12:34:27.769Z</time>
      </trkpt>
      <trkpt lat="44.83838" lon="5.39827">
        <ele>1286.33</ele>
        <time>2021-09-22T12:34:37.000Z</time>
      </trkpt>
      <trkpt lat="44.83839" lon="5.39828">
        <ele>1287.03</ele>
        <time>2021-09-22T12:34:53.000Z</time>
      </trkpt>
      <trkpt lat="44.83838" lon="5.39829">
        <ele>1287.31</ele>
        <time>2021-09-22T12:35:13.000Z</time>
      </trkpt>
      <trkpt lat="44.83833" lon="5.39837">
        <ele>1287.35</ele>
        <time>2021-09-22T12:35:22.830Z</time>
      </trkpt>
      <trkpt lat="44.83821" lon="5.39847">
        <ele>1285.47</ele>
        <time>2021-09-22T12:35:32.801Z</time>
      </trkpt>
      <trkpt lat="44.83815" lon="5.39855">
        <ele>1286.79</ele>
        <time>2021-09-22T12:35:41.893Z</time>
      </trkpt>
      <trkpt lat="44.83808" lon="5.39866">
        <ele>1288.19</ele>
        <time>2021-09-22T12:35:51.800Z</time>
      </trkpt>
      <trkpt lat="44.838" lon="5.39873">
        <ele>1287.67</ele>
        <time>2021-09-22T12:36:01.782Z</time>
      </trkpt>
      <trkpt lat="44.83795" lon="5.39883">
        <ele>1289.46</ele>
        <time>2021-09-22T12:36:10.783Z</time>
      </trkpt>
      <trkpt lat="44.83789" lon="5.39891">
        <ele>1290.48</ele>
        <time>2021-09-22T12:36:19.793Z</time>
      </trkpt>
      <trkpt lat="44.83784" lon="5.39894">
        <ele>1288.56</ele>
        <time>2021-09-22T12:36:29.522Z</time>
      </trkpt>
      <trkpt lat="44.83778" lon="5.39902">
        <ele>1288.95</ele>
        <time>2021-09-22T12:36:38.779Z</time>
      </trkpt>
      <trkpt lat="44.83775" lon="5.39909">
        <ele>1290.31</ele>
        <time>2021-09-22T12:36:48.000Z</time>
      </trkpt>
      <trkpt lat="44.83774" lon="5.3991">
        <ele>1290.13</ele>
        <time>2021-09-22T12:38:07.000Z</time>
      </trkpt>
      <trkpt lat="44.83772" lon="5.39911">
        <ele>1289.37</ele>
        <time>2021-09-22T12:38:17.000Z</time>
      </trkpt>
      <trkpt lat="44.83772" lon="5.39912">
        <ele>1289.45</ele>
        <time>2021-09-22T12:39:24.000Z</time>
      </trkpt>
      <trkpt lat="44.83765" lon="5.39917">
        <ele>1287.83</ele>
        <time>2021-09-22T12:39:33.777Z</time>
      </trkpt>
      <trkpt lat="44.8376" lon="5.39927">
        <ele>1288.97</ele>
        <time>2021-09-22T12:39:43.306Z</time>
      </trkpt>
      <trkpt lat="44.83759" lon="5.3994">
        <ele>1295.19</ele>
        <time>2021-09-22T12:39:52.772Z</time>
      </trkpt>
      <trkpt lat="44.83759" lon="5.39944">
        <ele>1297.18</ele>
        <time>2021-09-22T12:40:02.000Z</time>
      </trkpt>
      <trkpt lat="44.83759" lon="5.39943">
        <ele>1296.96</ele>
        <time>2021-09-22T12:40:16.000Z</time>
      </trkpt>
      <trkpt lat="44.83758" lon="5.39944">
        <ele>1296.56</ele>
        <time>2021-09-22T12:40:58.000Z</time>
      </trkpt>
      <trkpt lat="44.83757" lon="5.39945">
        <ele>1296.76</ele>
        <time>2021-09-22T12:41:07.779Z</time>
      </trkpt>
      <trkpt lat="44.83752" lon="5.39957">
        <ele>1300.54</ele>
        <time>2021-09-22T12:41:17.795Z</time>
      </trkpt>
      <trkpt lat="44.83751" lon="5.39962">
        <ele>1302.5</ele>
        <time>2021-09-22T12:41:27.773Z</time>
      </trkpt>
      <trkpt lat="44.83751" lon="5.39968">
        <ele>1305.3</ele>
        <time>2021-09-22T12:41:36.778Z</time>
      </trkpt>
      <trkpt lat="44.83745" lon="5.39979">
        <ele>1308.18</ele>
        <time>2021-09-22T12:41:46.984Z</time>
      </trkpt>
      <trkpt lat="44.8374" lon="5.39986">
        <ele>1309.2</ele>
        <time>2021-09-22T12:41:56.777Z</time>
      </trkpt>
      <trkpt lat="44.83733" lon="5.39984">
        <ele>1305.59</ele>
        <time>2021-09-22T12:42:05.922Z</time>
      </trkpt>
      <trkpt lat="44.83726" lon="5.39983">
        <ele>1302.63</ele>
        <time>2021-09-22T12:42:15.774Z</time>
      </trkpt>
      <trkpt lat="44.83723" lon="5.39989">
        <ele>1304.75</ele>
        <time>2021-09-22T12:42:25.000Z</time>
      </trkpt>
      <trkpt lat="44.83724" lon="5.39989">
        <ele>1305.06</ele>
        <time>2021-09-22T12:42:35.000Z</time>
      </trkpt>
      <trkpt lat="44.83723" lon="5.3999">
        <ele>1305.27</ele>
        <time>2021-09-22T12:42:54.000Z</time>
      </trkpt>
      <trkpt lat="44.83721" lon="5.39997">
        <ele>1307.76</ele>
        <time>2021-09-22T12:43:03.757Z</time>
      </trkpt>
      <trkpt lat="44.83719" lon="5.40007">
        <ele>1310.62</ele>
        <time>2021-09-22T12:43:12.782Z</time>
      </trkpt>
      <trkpt lat="44.83717" lon="5.40019">
        <ele>1313.78</ele>
        <time>2021-09-22T12:43:22.767Z</time>
      </trkpt>
      <trkpt lat="44.83717" lon="5.40022">
        <ele>1314.59</ele>
        <time>2021-09-22T12:43:32.000Z</time>
      </trkpt>
      <trkpt lat="44.83717" lon="5.4002">
        <ele>1314.1</ele>
        <time>2021-09-22T12:43:42.000Z</time>
      </trkpt>
      <trkpt lat="44.83716" lon="5.40022">
        <ele>1314.48</ele>
        <time>2021-09-22T12:44:30.000Z</time>
      </trkpt>
      <trkpt lat="44.83715" lon="5.40025">
        <ele>1314.69</ele>
        <time>2021-09-22T12:44:40.770Z</time>
      </trkpt>
      <trkpt lat="44.83712" lon="5.40035">
        <ele>1315.75</ele>
        <time>2021-09-22T12:44:49.783Z</time>
      </trkpt>
      <trkpt lat="44.8371" lon="5.40047">
        <ele>1317.52</ele>
        <time>2021-09-22T12:44:58.795Z</time>
      </trkpt>
      <trkpt lat="44.83712" lon="5.4006">
        <ele>1320.66</ele>
        <time>2021-09-22T12:45:08.773Z</time>
      </trkpt>
      <trkpt lat="44.83718" lon="5.4007">
        <ele>1324.73</ele>
        <time>2021-09-22T12:45:17.800Z</time>
      </trkpt>
      <trkpt lat="44.83723" lon="5.40067">
        <ele>1325.96</ele>
        <time>2021-09-22T12:45:27.841Z</time>
      </trkpt>
      <trkpt lat="44.8373" lon="5.40066">
        <ele>1328.33</ele>
        <time>2021-09-22T12:45:37.777Z</time>
      </trkpt>
      <trkpt lat="44.83735" lon="5.40069">
        <ele>1330.87</ele>
        <time>2021-09-22T12:45:47.779Z</time>
      </trkpt>
      <trkpt lat="44.83739" lon="5.4007">
        <ele>1332.77</ele>
        <time>2021-09-22T12:45:57.768Z</time>
      </trkpt>
      <trkpt lat="44.83746" lon="5.40068">
        <ele>1334.56</ele>
        <time>2021-09-22T12:46:06.776Z</time>
      </trkpt>
      <trkpt lat="44.83751" lon="5.40063">
        <ele>1335.54</ele>
        <time>2021-09-22T12:46:15.801Z</time>
      </trkpt>
      <trkpt lat="44.83758" lon="5.4006">
        <ele>1337.57</ele>
        <time>2021-09-22T12:46:25.795Z</time>
      </trkpt>
      <trkpt lat="44.83757" lon="5.40064">
        <ele>1338.09</ele>
        <time>2021-09-22T12:46:35.767Z</time>
      </trkpt>
      <trkpt lat="44.8376" lon="5.40076">
        <ele>1341.67</ele>
        <time>2021-09-22T12:46:45.789Z</time>
      </trkpt>
      <trkpt lat="44.83756" lon="5.40087">
        <ele>1343.44</ele>
        <time>2021-09-22T12:46:55.818Z</time>
      </trkpt>
      <trkpt lat="44.83755" lon="5.40098">
        <ele>1346.3</ele>
        <time>2021-09-22T12:47:05.783Z</time>
      </trkpt>
      <trkpt lat="44.83755" lon="5.40104">
        <ele>1348.19</ele>
        <time>2021-09-22T12:47:14.786Z</time>
      </trkpt>
      <trkpt lat="44.83754" lon="5.40111">
        <ele>1350.47</ele>
        <time>2021-09-22T12:47:23.787Z</time>
      </trkpt>
      <trkpt lat="44.83752" lon="5.40123">
        <ele>1353.72</ele>
        <time>2021-09-22T12:47:33.769Z</time>
      </trkpt>
      <trkpt lat="44.83752" lon="5.40124">
        <ele>1353.82</ele>
        <time>2021-09-22T12:47:42.777Z</time>
      </trkpt>
      <trkpt lat="44.83748" lon="5.40133">
        <ele>1356.06</ele>
        <time>2021-09-22T12:47:51.790Z</time>
      </trkpt>
      <trkpt lat="44.83737" lon="5.4014">
        <ele>1355.97</ele>
        <time>2021-09-22T12:48:01.772Z</time>
      </trkpt>
      <trkpt lat="44.83729" lon="5.40147">
        <ele>1356.79</ele>
        <time>2021-09-22T12:48:10.792Z</time>
      </trkpt>
      <trkpt lat="44.83723" lon="5.40152">
        <ele>1357.75</ele>
        <time>2021-09-22T12:48:20.786Z</time>
      </trkpt>
      <trkpt lat="44.83716" lon="5.40155">
        <ele>1358.18</ele>
        <time>2021-09-22T12:48:29.797Z</time>
      </trkpt>
      <trkpt lat="44.83713" lon="5.40161">
        <ele>1359.98</ele>
        <time>2021-09-22T12:48:39.796Z</time>
      </trkpt>
      <trkpt lat="44.83721" lon="5.40164">
        <ele>1361.2</ele>
        <time>2021-09-22T12:48:49.780Z</time>
      </trkpt>
      <trkpt lat="44.83726" lon="5.40165">
        <ele>1361.77</ele>
        <time>2021-09-22T12:48:59.245Z</time>
      </trkpt>
      <trkpt lat="44.83733" lon="5.40171">
        <ele>1362.91</ele>
        <time>2021-09-22T12:49:09.193Z</time>
      </trkpt>
      <trkpt lat="44.83741" lon="5.40174">
        <ele>1363.54</ele>
        <time>2021-09-22T12:49:18.645Z</time>
      </trkpt>
      <trkpt lat="44.83748" lon="5.40177">
        <ele>1364.23</ele>
        <time>2021-09-22T12:49:27.946Z</time>
      </trkpt>
      <trkpt lat="44.83752" lon="5.40183">
        <ele>1364.62</ele>
        <time>2021-09-22T12:49:38.000Z</time>
      </trkpt>
      <trkpt lat="44.83753" lon="5.40184">
        <ele>1364.66</ele>
        <time>2021-09-22T12:49:48.000Z</time>
      </trkpt>
      <trkpt lat="44.83752" lon="5.40184">
        <ele>1364.57</ele>
        <time>2021-09-22T12:49:58.000Z</time>
      </trkpt>
      <trkpt lat="44.83751" lon="5.40185">
        <ele>1364.44</ele>
        <time>2021-09-22T12:50:08.000Z</time>
      </trkpt>
      <trkpt lat="44.83751" lon="5.40186">
        <ele>1364.38</ele>
        <time>2021-09-22T12:51:16.000Z</time>
      </trkpt>
      <trkpt lat="44.83753" lon="5.40192">
        <ele>1364.06</ele>
        <time>2021-09-22T12:51:25.789Z</time>
      </trkpt>
      <trkpt lat="44.83755" lon="5.40204">
        <ele>1362.72</ele>
        <time>2021-09-22T12:51:35.780Z</time>
      </trkpt>
      <trkpt lat="44.83757" lon="5.40219">
        <ele>1360.04</ele>
        <time>2021-09-22T12:51:45.783Z</time>
      </trkpt>
      <trkpt lat="44.83756" lon="5.40236">
        <ele>1356.72</ele>
        <time>2021-09-22T12:51:55.760Z</time>
      </trkpt>
      <trkpt lat="44.83752" lon="5.40248">
        <ele>1354.86</ele>
        <time>2021-09-22T12:52:04.781Z</time>
      </trkpt>
      <trkpt lat="44.8375" lon="5.4026">
        <ele>1353.47</ele>
        <time>2021-09-22T12:52:15.131Z</time>
      </trkpt>
      <trkpt lat="44.83747" lon="5.40275">
        <ele>1351.59</ele>
        <time>2021-09-22T12:52:24.768Z</time>
      </trkpt>
      <trkpt lat="44.83741" lon="5.40288">
        <ele>1351.27</ele>
        <time>2021-09-22T12:52:34.779Z</time>
      </trkpt>
      <trkpt lat="44.83736" lon="5.403">
        <ele>1350.97</ele>
        <time>2021-09-22T12:52:43.789Z</time>
      </trkpt>
      <trkpt lat="44.83731" lon="5.40312">
        <ele>1350.79</ele>
        <time>2021-09-22T12:52:52.790Z</time>
      </trkpt>
      <trkpt lat="44.83732" lon="5.40322">
        <ele>1347.84</ele>
        <time>2021-09-22T12:53:01.811Z</time>
      </trkpt>
      <trkpt lat="44.83725" lon="5.40335">
        <ele>1348.49</ele>
        <time>2021-09-22T12:53:11.785Z</time>
      </trkpt>
      <trkpt lat="44.83721" lon="5.40348">
        <ele>1347.43</ele>
        <time>2021-09-22T12:53:21.805Z</time>
      </trkpt>
      <trkpt lat="44.83721" lon="5.40361">
        <ele>1344.24</ele>
        <time>2021-09-22T12:53:31.000Z</time>
      </trkpt>
      <trkpt lat="44.83718" lon="5.4037">
        <ele>1343.84</ele>
        <time>2021-09-22T12:53:40.775Z</time>
      </trkpt>
      <trkpt lat="44.83711" lon="5.40379">
        <ele>1344.56</ele>
        <time>2021-09-22T12:53:49.789Z</time>
      </trkpt>
      <trkpt lat="44.83704" lon="5.40386">
        <ele>1345.77</ele>
        <time>2021-09-22T12:53:58.801Z</time>
      </trkpt>
      <trkpt lat="44.83694" lon="5.40398">
        <ele>1346.59</ele>
        <time>2021-09-22T12:54:08.781Z</time>
      </trkpt>
      <trkpt lat="44.83685" lon="5.40407">
        <ele>1347.42</ele>
        <time>2021-09-22T12:54:17.789Z</time>
      </trkpt>
      <trkpt lat="44.83676" lon="5.40419">
        <ele>1346.09</ele>
        <time>2021-09-22T12:54:27.782Z</time>
      </trkpt>
      <trkpt lat="44.83669" lon="5.4043">
        <ele>1344.19</ele>
        <time>2021-09-22T12:54:37.772Z</time>
      </trkpt>
      <trkpt lat="44.83661" lon="5.40436">
        <ele>1343.71</ele>
        <time>2021-09-22T12:54:46.797Z</time>
      </trkpt>
      <trkpt lat="44.83666" lon="5.40432">
        <ele>1344.05</ele>
        <time>2021-09-22T12:54:56.000Z</time>
      </trkpt>
      <trkpt lat="44.83665" lon="5.40435">
        <ele>1342.87</ele>
        <time>2021-09-22T12:55:06.000Z</time>
      </trkpt>
      <trkpt lat="44.83665" lon="5.40437">
        <ele>1342.26</ele>
        <time>2021-09-22T12:55:16.000Z</time>
      </trkpt>
      <trkpt lat="44.83662" lon="5.40439">
        <ele>1341.99</ele>
        <time>2021-09-22T12:55:25.771Z</time>
      </trkpt>
      <trkpt lat="44.83654" lon="5.40443">
        <ele>1342.7</ele>
        <time>2021-09-22T12:55:35.000Z</time>
      </trkpt>
      <trkpt lat="44.83653" lon="5.40443">
        <ele>1342.82</ele>
        <time>2021-09-22T12:55:48.777Z</time>
      </trkpt>
      <trkpt lat="44.83642" lon="5.40451">
        <ele>1342.61</ele>
        <time>2021-09-22T12:55:57.780Z</time>
      </trkpt>
      <trkpt lat="44.83633" lon="5.40459">
        <ele>1342.13</ele>
        <time>2021-09-22T12:56:06.799Z</time>
      </trkpt>
      <trkpt lat="44.83624" lon="5.40469">
        <ele>1340.74</ele>
        <time>2021-09-22T12:56:16.779Z</time>
      </trkpt>
      <trkpt lat="44.83616" lon="5.40474">
        <ele>1341.46</ele>
        <time>2021-09-22T12:56:25.795Z</time>
      </trkpt>
      <trkpt lat="44.83608" lon="5.40487">
        <ele>1339.41</ele>
        <time>2021-09-22T12:56:35.794Z</time>
      </trkpt>
      <trkpt lat="44.83597" lon="5.40496">
        <ele>1339.78</ele>
        <time>2021-09-22T12:56:45.780Z</time>
      </trkpt>
      <trkpt lat="44.83589" lon="5.40509">
        <ele>1337.93</ele>
        <time>2021-09-22T12:56:55.778Z</time>
      </trkpt>
      <trkpt lat="44.83586" lon="5.40516">
        <ele>1336.88</ele>
        <time>2021-09-22T12:57:04.814Z</time>
      </trkpt>
      <trkpt lat="44.83576" lon="5.40526">
        <ele>1336.9</ele>
        <time>2021-09-22T12:57:14.778Z</time>
      </trkpt>
      <trkpt lat="44.83567" lon="5.40535">
        <ele>1336.68</ele>
        <time>2021-09-22T12:57:23.782Z</time>
      </trkpt>
      <trkpt lat="44.83561" lon="5.40547">
        <ele>1335.33</ele>
        <time>2021-09-22T12:57:33.767Z</time>
      </trkpt>
      <trkpt lat="44.83553" lon="5.40561">
        <ele>1334.39</ele>
        <time>2021-09-22T12:57:43.773Z</time>
      </trkpt>
      <trkpt lat="44.83545" lon="5.40571">
        <ele>1334.22</ele>
        <time>2021-09-22T12:57:52.789Z</time>
      </trkpt>
      <trkpt lat="44.83539" lon="5.40585">
        <ele>1332.85</ele>
        <time>2021-09-22T12:58:02.786Z</time>
      </trkpt>
      <trkpt lat="44.83533" lon="5.40596">
        <ele>1331.87</ele>
        <time>2021-09-22T12:58:11.787Z</time>
      </trkpt>
      <trkpt lat="44.83525" lon="5.40605">
        <ele>1331.47</ele>
        <time>2021-09-22T12:58:20.788Z</time>
      </trkpt>
      <trkpt lat="44.83515" lon="5.40614">
        <ele>1332.13</ele>
        <time>2021-09-22T12:58:30.769Z</time>
      </trkpt>
      <trkpt lat="44.83512" lon="5.40615">
        <ele>1332.54</ele>
        <time>2021-09-22T12:58:41.331Z</time>
      </trkpt>
      <trkpt lat="44.83503" lon="5.40625">
        <ele>1332.63</ele>
        <time>2021-09-22T12:58:51.354Z</time>
      </trkpt>
      <trkpt lat="44.83493" lon="5.40628">
        <ele>1334.7</ele>
        <time>2021-09-22T12:59:00.404Z</time>
      </trkpt>
      <trkpt lat="44.83485" lon="5.40639">
        <ele>1334.63</ele>
        <time>2021-09-22T12:59:09.759Z</time>
      </trkpt>
      <trkpt lat="44.83485" lon="5.40655">
        <ele>1332.08</ele>
        <time>2021-09-22T12:59:18.766Z</time>
      </trkpt>
      <trkpt lat="44.83488" lon="5.40666">
        <ele>1330.42</ele>
        <time>2021-09-22T12:59:27.770Z</time>
      </trkpt>
      <trkpt lat="44.83485" lon="5.40672">
        <ele>1331.18</ele>
        <time>2021-09-22T12:59:36.777Z</time>
      </trkpt>
      <trkpt lat="44.83485" lon="5.40679">
        <ele>1331.06</ele>
        <time>2021-09-22T12:59:45.794Z</time>
      </trkpt>
      <trkpt lat="44.83494" lon="5.40679">
        <ele>1328.69</ele>
        <time>2021-09-22T12:59:55.626Z</time>
      </trkpt>
      <trkpt lat="44.83502" lon="5.40675">
        <ele>1326.32</ele>
        <time>2021-09-22T13:00:04.780Z</time>
      </trkpt>
      <trkpt lat="44.83508" lon="5.40682">
        <ele>1324.85</ele>
        <time>2021-09-22T13:00:14.781Z</time>
      </trkpt>
      <trkpt lat="44.83514" lon="5.40688">
        <ele>1323.31</ele>
        <time>2021-09-22T13:00:24.779Z</time>
      </trkpt>
      <trkpt lat="44.83525" lon="5.40688">
        <ele>1320.25</ele>
        <time>2021-09-22T13:00:33.786Z</time>
      </trkpt>
      <trkpt lat="44.83531" lon="5.40685">
        <ele>1318.17</ele>
        <time>2021-09-22T13:00:43.783Z</time>
      </trkpt>
      <trkpt lat="44.8354" lon="5.40677">
        <ele>1314.65</ele>
        <time>2021-09-22T13:00:52.784Z</time>
      </trkpt>
      <trkpt lat="44.8355" lon="5.40684">
        <ele>1312.17</ele>
        <time>2021-09-22T13:01:02.769Z</time>
      </trkpt>
      <trkpt lat="44.83557" lon="5.40683">
        <ele>1309.93</ele>
        <time>2021-09-22T13:01:11.779Z</time>
      </trkpt>
      <trkpt lat="44.83561" lon="5.40683">
        <ele>1309.04</ele>
        <time>2021-09-22T13:01:20.792Z</time>
      </trkpt>
      <trkpt lat="44.83568" lon="5.40686">
        <ele>1307.6</ele>
        <time>2021-09-22T13:01:30.767Z</time>
      </trkpt>
      <trkpt lat="44.83576" lon="5.40682">
        <ele>1305.06</ele>
        <time>2021-09-22T13:01:39.768Z</time>
      </trkpt>
      <trkpt lat="44.83585" lon="5.40677">
        <ele>1302.42</ele>
        <time>2021-09-22T13:01:49.771Z</time>
      </trkpt>
      <trkpt lat="44.83596" lon="5.40674">
        <ele>1300.07</ele>
        <time>2021-09-22T13:01:59.775Z</time>
      </trkpt>
      <trkpt lat="44.83606" lon="5.40674">
        <ele>1298.58</ele>
        <time>2021-09-22T13:02:09.786Z</time>
      </trkpt>
      <trkpt lat="44.83618" lon="5.40681">
        <ele>1298.42</ele>
        <time>2021-09-22T13:02:19.793Z</time>
      </trkpt>
      <trkpt lat="44.8362" lon="5.40684">
        <ele>1298.63</ele>
        <time>2021-09-22T13:02:29.787Z</time>
      </trkpt>
      <trkpt lat="44.83624" lon="5.40683">
        <ele>1298.05</ele>
        <time>2021-09-22T13:02:38.797Z</time>
      </trkpt>
      <trkpt lat="44.83629" lon="5.40681">
        <ele>1297.19</ele>
        <time>2021-09-22T13:02:48.766Z</time>
      </trkpt>
      <trkpt lat="44.83637" lon="5.40675">
        <ele>1295.35</ele>
        <time>2021-09-22T13:02:57.768Z</time>
      </trkpt>
      <trkpt lat="44.83643" lon="5.40668">
        <ele>1293.92</ele>
        <time>2021-09-22T13:03:06.777Z</time>
      </trkpt>
      <trkpt lat="44.8365" lon="5.40663">
        <ele>1292.64</ele>
        <time>2021-09-22T13:03:16.773Z</time>
      </trkpt>
      <trkpt lat="44.83652" lon="5.40664">
        <ele>1292.54</ele>
        <time>2021-09-22T13:03:26.000Z</time>
      </trkpt>
      <trkpt lat="44.83653" lon="5.40664">
        <ele>1292.39</ele>
        <time>2021-09-22T13:03:43.780Z</time>
      </trkpt>
      <trkpt lat="44.83662" lon="5.40656">
        <ele>1290.9</ele>
        <time>2021-09-22T13:03:53.782Z</time>
      </trkpt>
      <trkpt lat="44.83676" lon="5.40653">
        <ele>1288.86</ele>
        <time>2021-09-22T13:04:03.776Z</time>
      </trkpt>
      <trkpt lat="44.8368" lon="5.40654">
        <ele>1288.15</ele>
        <time>2021-09-22T13:04:13.770Z</time>
      </trkpt>
      <trkpt lat="44.83693" lon="5.40649">
        <ele>1285.95</ele>
        <time>2021-09-22T13:04:23.789Z</time>
      </trkpt>
      <trkpt lat="44.83704" lon="5.4065">
        <ele>1284.27</ele>
        <time>2021-09-22T13:04:33.774Z</time>
      </trkpt>
      <trkpt lat="44.83711" lon="5.40648">
        <ele>1282.97</ele>
        <time>2021-09-22T13:04:43.758Z</time>
      </trkpt>
      <trkpt lat="44.83722" lon="5.40646">
        <ele>1281.11</ele>
        <time>2021-09-22T13:04:52.771Z</time>
      </trkpt>
      <trkpt lat="44.83731" lon="5.40644">
        <ele>1279.45</ele>
        <time>2021-09-22T13:05:01.780Z</time>
      </trkpt>
      <trkpt lat="44.83738" lon="5.40641">
        <ele>1278.06</ele>
        <time>2021-09-22T13:05:11.787Z</time>
      </trkpt>
      <trkpt lat="44.83749" lon="5.4064">
        <ele>1276.28</ele>
        <time>2021-09-22T13:05:21.779Z</time>
      </trkpt>
      <trkpt lat="44.8376" lon="5.40639">
        <ele>1274.63</ele>
        <time>2021-09-22T13:05:31.770Z</time>
      </trkpt>
      <trkpt lat="44.83771" lon="5.40641">
        <ele>1273.36</ele>
        <time>2021-09-22T13:05:40.782Z</time>
      </trkpt>
      <trkpt lat="44.83782" lon="5.4064">
        <ele>1271.79</ele>
        <time>2021-09-22T13:05:50.774Z</time>
      </trkpt>
      <trkpt lat="44.83792" lon="5.40641">
        <ele>1270.85</ele>
        <time>2021-09-22T13:06:01.123Z</time>
      </trkpt>
      <trkpt lat="44.83793" lon="5.4064">
        <ele>1270.5</ele>
        <time>2021-09-22T13:06:10.783Z</time>
      </trkpt>
      <trkpt lat="44.83806" lon="5.40642">
        <ele>1269.22</ele>
        <time>2021-09-22T13:06:20.768Z</time>
      </trkpt>
      <trkpt lat="44.83817" lon="5.40647">
        <ele>1268.52</ele>
        <time>2021-09-22T13:06:30.796Z</time>
      </trkpt>
      <trkpt lat="44.83829" lon="5.40646">
        <ele>1267.11</ele>
        <time>2021-09-22T13:06:39.817Z</time>
      </trkpt>
      <trkpt lat="44.83837" lon="5.40636">
        <ele>1265.22</ele>
        <time>2021-09-22T13:06:49.773Z</time>
      </trkpt>
      <trkpt lat="44.83845" lon="5.40631">
        <ele>1263.98</ele>
        <time>2021-09-22T13:06:59.047Z</time>
      </trkpt>
      <trkpt lat="44.83857" lon="5.40628">
        <ele>1262.56</ele>
        <time>2021-09-22T13:07:08.505Z</time>
      </trkpt>
      <trkpt lat="44.83869" lon="5.40626">
        <ele>1261.04</ele>
        <time>2021-09-22T13:07:18.769Z</time>
      </trkpt>
      <trkpt lat="44.8388" lon="5.40626">
        <ele>1259.83</ele>
        <time>2021-09-22T13:07:27.777Z</time>
      </trkpt>
      <trkpt lat="44.83891" lon="5.40619">
        <ele>1258.07</ele>
        <time>2021-09-22T13:07:37.789Z</time>
      </trkpt>
      <trkpt lat="44.83901" lon="5.4061">
        <ele>1256.59</ele>
        <time>2021-09-22T13:07:46.800Z</time>
      </trkpt>
      <trkpt lat="44.83911" lon="5.40603">
        <ele>1255</ele>
        <time>2021-09-22T13:07:56.779Z</time>
      </trkpt>
      <trkpt lat="44.83917" lon="5.40597">
        <ele>1254.19</ele>
        <time>2021-09-22T13:08:05.781Z</time>
      </trkpt>
      <trkpt lat="44.83926" lon="5.40595">
        <ele>1253.06</ele>
        <time>2021-09-22T13:08:15.762Z</time>
      </trkpt>
      <trkpt lat="44.83936" lon="5.4059">
        <ele>1251.59</ele>
        <time>2021-09-22T13:08:24.771Z</time>
      </trkpt>
      <trkpt lat="44.83949" lon="5.40588">
        <ele>1249.52</ele>
        <time>2021-09-22T13:08:34.746Z</time>
      </trkpt>
      <trkpt lat="44.83961" lon="5.40585">
        <ele>1247.78</ele>
        <time>2021-09-22T13:08:43.795Z</time>
      </trkpt>
      <trkpt lat="44.83972" lon="5.40582">
        <ele>1246.29</ele>
        <time>2021-09-22T13:08:53.780Z</time>
      </trkpt>
      <trkpt lat="44.83981" lon="5.40578">
        <ele>1245.32</ele>
        <time>2021-09-22T13:09:02.798Z</time>
      </trkpt>
      <trkpt lat="44.83989" lon="5.40582">
        <ele>1243.64</ele>
        <time>2021-09-22T13:09:12.776Z</time>
      </trkpt>
      <trkpt lat="44.83993" lon="5.406">
        <ele>1242.48</ele>
        <time>2021-09-22T13:09:21.783Z</time>
      </trkpt>
      <trkpt lat="44.84004" lon="5.40611">
        <ele>1241.92</ele>
        <time>2021-09-22T13:09:30.789Z</time>
      </trkpt>
      <trkpt lat="44.84015" lon="5.40617">
        <ele>1241.28</ele>
        <time>2021-09-22T13:09:39.908Z</time>
      </trkpt>
      <trkpt lat="44.84027" lon="5.40618">
        <ele>1240.1</ele>
        <time>2021-09-22T13:09:49.765Z</time>
      </trkpt>
      <trkpt lat="44.84034" lon="5.40616">
        <ele>1239.12</ele>
        <time>2021-09-22T13:09:58.773Z</time>
      </trkpt>
      <trkpt lat="44.84044" lon="5.40621">
        <ele>1238.78</ele>
        <time>2021-09-22T13:10:08.772Z</time>
      </trkpt>
      <trkpt lat="44.84048" lon="5.40628">
        <ele>1239.65</ele>
        <time>2021-09-22T13:10:18.000Z</time>
      </trkpt>
      <trkpt lat="44.84046" lon="5.40628">
        <ele>1239.94</ele>
        <time>2021-09-22T13:10:28.000Z</time>
      </trkpt>
      <trkpt lat="44.84048" lon="5.40631">
        <ele>1240.4</ele>
        <time>2021-09-22T13:10:37.779Z</time>
      </trkpt>
      <trkpt lat="44.8406" lon="5.40627">
        <ele>1238.15</ele>
        <time>2021-09-22T13:10:47.772Z</time>
      </trkpt>
      <trkpt lat="44.8407" lon="5.40629">
        <ele>1237.28</ele>
        <time>2021-09-22T13:10:56.776Z</time>
      </trkpt>
      <trkpt lat="44.84076" lon="5.40632">
        <ele>1237.24</ele>
        <time>2021-09-22T13:11:06.000Z</time>
      </trkpt>
      <trkpt lat="44.84076" lon="5.40632">
        <ele>1237.23</ele>
        <time>2021-09-22T13:11:07.000Z</time>
      </trkpt>
    </trkseg>
  </trk>
</gpx>